<?xml version="1.0" encoding="UTF-8" standalone="no" ?>
<gpx xmlns="http://www.topografix.com/GPX/1/1" xmlns:xsi="http://www.w3.org/2001/XMLSchema-instance" xsi:schemaLocation="http://www.topografix.com/GPX/1/1 http://www.topografix.com/GPX/1/1/gpx.xsd" version="1.1" creator="VisuGPX - https://www.visugpx.com">
  <metadata>
    <name>83-D-Lorgues</name>
    <desc><![CDATA[83-D-Lorgues : oppidum de Taradeau
2026-01-25-MLMM]]></desc>
  </metadata>
  <trk>
    <name><![CDATA[2026-01-25_D-Lorgues]]></name>
    <extensions>
      <line xmlns="http://www.topografix.com/GPX/gpx_style/0/2">
        <width>4</width>
      </line>
    </extensions>
    <trkseg>
      <trkpt lat="43.48283" lon="6.41548">
        <ele>168.5</ele>
        <time>2026-01-25T08:12:53.000Z</time>
      </trkpt>
      <trkpt lat="43.48283" lon="6.41548">
        <ele>168.5</ele>
        <time>2026-01-25T08:12:54.000Z</time>
      </trkpt>
      <trkpt lat="43.48284" lon="6.41549">
        <ele>168.5</ele>
        <time>2026-01-25T08:13:03.000Z</time>
      </trkpt>
      <trkpt lat="43.48284" lon="6.41549">
        <ele>168.5</ele>
        <time>2026-01-25T08:13:03.000Z</time>
      </trkpt>
      <trkpt lat="43.48284" lon="6.41549">
        <ele>168.4</ele>
        <time>2026-01-25T08:13:17.000Z</time>
      </trkpt>
      <trkpt lat="43.48285" lon="6.41548">
        <ele>168.1</ele>
        <time>2026-01-25T08:14:59.000Z</time>
      </trkpt>
      <trkpt lat="43.48286" lon="6.4155">
        <ele>168.1</ele>
        <time>2026-01-25T08:15:09.000Z</time>
      </trkpt>
      <trkpt lat="43.48286" lon="6.4155">
        <ele>167.9</ele>
        <time>2026-01-25T08:15:24.000Z</time>
      </trkpt>
      <trkpt lat="43.48283" lon="6.41552">
        <ele>167.9</ele>
        <time>2026-01-25T08:16:14.000Z</time>
      </trkpt>
      <trkpt lat="43.48284" lon="6.41551">
        <ele>167.7</ele>
        <time>2026-01-25T08:18:07.000Z</time>
      </trkpt>
      <trkpt lat="43.48284" lon="6.41551">
        <ele>167.6</ele>
        <time>2026-01-25T08:18:18.000Z</time>
      </trkpt>
      <trkpt lat="43.48283" lon="6.41549">
        <ele>167.6</ele>
        <time>2026-01-25T08:18:27.000Z</time>
      </trkpt>
      <trkpt lat="43.48283" lon="6.4155">
        <ele>167.6</ele>
        <time>2026-01-25T08:18:53.000Z</time>
      </trkpt>
      <trkpt lat="43.48282" lon="6.41548">
        <ele>167.4</ele>
        <time>2026-01-25T08:20:07.000Z</time>
      </trkpt>
      <trkpt lat="43.48282" lon="6.41548">
        <ele>167.4</ele>
        <time>2026-01-25T08:20:18.000Z</time>
      </trkpt>
      <trkpt lat="43.48281" lon="6.41547">
        <ele>167.3</ele>
        <time>2026-01-25T08:20:51.000Z</time>
      </trkpt>
      <trkpt lat="43.48281" lon="6.41547">
        <ele>167.2</ele>
        <time>2026-01-25T08:21:02.000Z</time>
      </trkpt>
      <trkpt lat="43.48279" lon="6.41548">
        <ele>167.2</ele>
        <time>2026-01-25T08:21:12.000Z</time>
      </trkpt>
      <trkpt lat="43.4828" lon="6.41549">
        <ele>167.2</ele>
        <time>2026-01-25T08:21:24.000Z</time>
      </trkpt>
      <trkpt lat="43.48275" lon="6.41552">
        <ele>166.9</ele>
        <time>2026-01-25T08:22:28.000Z</time>
      </trkpt>
      <trkpt lat="43.48274" lon="6.41557">
        <ele>166.8</ele>
        <time>2026-01-25T08:22:42.000Z</time>
      </trkpt>
      <trkpt lat="43.48271" lon="6.41559">
        <ele>166.7</ele>
        <time>2026-01-25T08:23:02.000Z</time>
      </trkpt>
      <trkpt lat="43.48262" lon="6.41557">
        <ele>166.6</ele>
        <time>2026-01-25T08:23:12.000Z</time>
      </trkpt>
      <trkpt lat="43.48252" lon="6.41555">
        <ele>166.5</ele>
        <time>2026-01-25T08:23:20.000Z</time>
      </trkpt>
      <trkpt lat="43.48242" lon="6.41552">
        <ele>166.3</ele>
        <time>2026-01-25T08:23:30.000Z</time>
      </trkpt>
      <trkpt lat="43.48233" lon="6.41552">
        <ele>166.3</ele>
        <time>2026-01-25T08:23:38.000Z</time>
      </trkpt>
      <trkpt lat="43.48223" lon="6.41552">
        <ele>166.2</ele>
        <time>2026-01-25T08:23:45.000Z</time>
      </trkpt>
      <trkpt lat="43.48214" lon="6.41553">
        <ele>166.2</ele>
        <time>2026-01-25T08:23:53.000Z</time>
      </trkpt>
      <trkpt lat="43.48205" lon="6.41556">
        <ele>166.2</ele>
        <time>2026-01-25T08:24:01.000Z</time>
      </trkpt>
      <trkpt lat="43.48197" lon="6.41564">
        <ele>166.4</ele>
        <time>2026-01-25T08:24:08.000Z</time>
      </trkpt>
      <trkpt lat="43.48194" lon="6.41577">
        <ele>166.4</ele>
        <time>2026-01-25T08:24:15.000Z</time>
      </trkpt>
      <trkpt lat="43.48188" lon="6.41588">
        <ele>166.5</ele>
        <time>2026-01-25T08:24:22.000Z</time>
      </trkpt>
      <trkpt lat="43.48185" lon="6.41601">
        <ele>166.7</ele>
        <time>2026-01-25T08:24:30.000Z</time>
      </trkpt>
      <trkpt lat="43.48182" lon="6.41612">
        <ele>166.8</ele>
        <time>2026-01-25T08:24:39.000Z</time>
      </trkpt>
      <trkpt lat="43.48177" lon="6.41623">
        <ele>166.9</ele>
        <time>2026-01-25T08:24:49.000Z</time>
      </trkpt>
      <trkpt lat="43.48169" lon="6.41631">
        <ele>167.1</ele>
        <time>2026-01-25T08:24:58.000Z</time>
      </trkpt>
      <trkpt lat="43.48162" lon="6.41639">
        <ele>167.1</ele>
        <time>2026-01-25T08:25:05.000Z</time>
      </trkpt>
      <trkpt lat="43.48156" lon="6.4165">
        <ele>167.1</ele>
        <time>2026-01-25T08:25:12.000Z</time>
      </trkpt>
      <trkpt lat="43.4815" lon="6.41661">
        <ele>167</ele>
        <time>2026-01-25T08:25:19.000Z</time>
      </trkpt>
      <trkpt lat="43.48144" lon="6.4167">
        <ele>166.9</ele>
        <time>2026-01-25T08:25:26.000Z</time>
      </trkpt>
      <trkpt lat="43.4814" lon="6.41682">
        <ele>166.8</ele>
        <time>2026-01-25T08:25:34.000Z</time>
      </trkpt>
      <trkpt lat="43.48134" lon="6.41692">
        <ele>166.7</ele>
        <time>2026-01-25T08:25:53.000Z</time>
      </trkpt>
      <trkpt lat="43.48127" lon="6.41701">
        <ele>166.6</ele>
        <time>2026-01-25T08:26:00.000Z</time>
      </trkpt>
      <trkpt lat="43.4812" lon="6.41709">
        <ele>166.4</ele>
        <time>2026-01-25T08:26:08.000Z</time>
      </trkpt>
      <trkpt lat="43.48112" lon="6.41717">
        <ele>166.3</ele>
        <time>2026-01-25T08:26:16.000Z</time>
      </trkpt>
      <trkpt lat="43.48105" lon="6.41727">
        <ele>166.2</ele>
        <time>2026-01-25T08:26:24.000Z</time>
      </trkpt>
      <trkpt lat="43.48097" lon="6.41735">
        <ele>166.1</ele>
        <time>2026-01-25T08:26:32.000Z</time>
      </trkpt>
      <trkpt lat="43.4809" lon="6.41744">
        <ele>165.9</ele>
        <time>2026-01-25T08:26:39.000Z</time>
      </trkpt>
      <trkpt lat="43.48082" lon="6.41751">
        <ele>165.6</ele>
        <time>2026-01-25T08:26:47.000Z</time>
      </trkpt>
      <trkpt lat="43.48076" lon="6.41761">
        <ele>165.3</ele>
        <time>2026-01-25T08:26:55.000Z</time>
      </trkpt>
      <trkpt lat="43.48066" lon="6.41765">
        <ele>164.8</ele>
        <time>2026-01-25T08:27:03.000Z</time>
      </trkpt>
      <trkpt lat="43.48056" lon="6.41768">
        <ele>164.5</ele>
        <time>2026-01-25T08:27:11.000Z</time>
      </trkpt>
      <trkpt lat="43.48048" lon="6.41775">
        <ele>164.2</ele>
        <time>2026-01-25T08:27:19.000Z</time>
      </trkpt>
      <trkpt lat="43.48039" lon="6.41777">
        <ele>163.9</ele>
        <time>2026-01-25T08:27:26.000Z</time>
      </trkpt>
      <trkpt lat="43.4803" lon="6.41782">
        <ele>163.7</ele>
        <time>2026-01-25T08:27:34.000Z</time>
      </trkpt>
      <trkpt lat="43.48022" lon="6.41788">
        <ele>163.5</ele>
        <time>2026-01-25T08:27:42.000Z</time>
      </trkpt>
      <trkpt lat="43.48013" lon="6.41794">
        <ele>163.4</ele>
        <time>2026-01-25T08:27:50.000Z</time>
      </trkpt>
      <trkpt lat="43.48004" lon="6.41799">
        <ele>163.3</ele>
        <time>2026-01-25T08:28:00.000Z</time>
      </trkpt>
      <trkpt lat="43.47996" lon="6.41807">
        <ele>163.2</ele>
        <time>2026-01-25T08:28:08.000Z</time>
      </trkpt>
      <trkpt lat="43.47988" lon="6.41814">
        <ele>163.2</ele>
        <time>2026-01-25T08:28:16.000Z</time>
      </trkpt>
      <trkpt lat="43.47979" lon="6.41819">
        <ele>163</ele>
        <time>2026-01-25T08:28:24.000Z</time>
      </trkpt>
      <trkpt lat="43.47971" lon="6.41828">
        <ele>162.8</ele>
        <time>2026-01-25T08:28:33.000Z</time>
      </trkpt>
      <trkpt lat="43.47961" lon="6.4183">
        <ele>162.5</ele>
        <time>2026-01-25T08:28:42.000Z</time>
      </trkpt>
      <trkpt lat="43.47952" lon="6.41827">
        <ele>162.2</ele>
        <time>2026-01-25T08:28:49.000Z</time>
      </trkpt>
      <trkpt lat="43.47946" lon="6.41817">
        <ele>161.5</ele>
        <time>2026-01-25T08:29:00.000Z</time>
      </trkpt>
      <trkpt lat="43.47947" lon="6.41804">
        <ele>160.7</ele>
        <time>2026-01-25T08:29:15.000Z</time>
      </trkpt>
      <trkpt lat="43.47944" lon="6.41791">
        <ele>160.5</ele>
        <time>2026-01-25T08:29:22.000Z</time>
      </trkpt>
      <trkpt lat="43.47943" lon="6.41777">
        <ele>160.3</ele>
        <time>2026-01-25T08:29:31.000Z</time>
      </trkpt>
      <trkpt lat="43.47943" lon="6.41764">
        <ele>160.1</ele>
        <time>2026-01-25T08:29:38.000Z</time>
      </trkpt>
      <trkpt lat="43.47945" lon="6.41752">
        <ele>159.9</ele>
        <time>2026-01-25T08:29:45.000Z</time>
      </trkpt>
      <trkpt lat="43.47944" lon="6.41739">
        <ele>159.5</ele>
        <time>2026-01-25T08:29:53.000Z</time>
      </trkpt>
      <trkpt lat="43.47944" lon="6.41725">
        <ele>159.1</ele>
        <time>2026-01-25T08:30:01.000Z</time>
      </trkpt>
      <trkpt lat="43.47943" lon="6.41713">
        <ele>158.7</ele>
        <time>2026-01-25T08:30:09.000Z</time>
      </trkpt>
      <trkpt lat="43.47942" lon="6.41699">
        <ele>158.1</ele>
        <time>2026-01-25T08:30:18.000Z</time>
      </trkpt>
      <trkpt lat="43.47939" lon="6.41686">
        <ele>157.5</ele>
        <time>2026-01-25T08:30:27.000Z</time>
      </trkpt>
      <trkpt lat="43.47939" lon="6.41673">
        <ele>157.1</ele>
        <time>2026-01-25T08:30:35.000Z</time>
      </trkpt>
      <trkpt lat="43.47937" lon="6.41659">
        <ele>156.6</ele>
        <time>2026-01-25T08:30:43.000Z</time>
      </trkpt>
      <trkpt lat="43.4794" lon="6.41647">
        <ele>156.2</ele>
        <time>2026-01-25T08:30:51.000Z</time>
      </trkpt>
      <trkpt lat="43.47938" lon="6.41635">
        <ele>156</ele>
        <time>2026-01-25T08:30:58.000Z</time>
      </trkpt>
      <trkpt lat="43.47936" lon="6.41623">
        <ele>155.8</ele>
        <time>2026-01-25T08:31:06.000Z</time>
      </trkpt>
      <trkpt lat="43.47934" lon="6.41611">
        <ele>155.7</ele>
        <time>2026-01-25T08:31:13.000Z</time>
      </trkpt>
      <trkpt lat="43.47931" lon="6.41598">
        <ele>155.6</ele>
        <time>2026-01-25T08:31:20.000Z</time>
      </trkpt>
      <trkpt lat="43.47929" lon="6.41586">
        <ele>155.4</ele>
        <time>2026-01-25T08:31:28.000Z</time>
      </trkpt>
      <trkpt lat="43.47925" lon="6.41575">
        <ele>155.2</ele>
        <time>2026-01-25T08:31:35.000Z</time>
      </trkpt>
      <trkpt lat="43.47925" lon="6.41561">
        <ele>154.8</ele>
        <time>2026-01-25T08:31:44.000Z</time>
      </trkpt>
      <trkpt lat="43.47922" lon="6.41549">
        <ele>154.4</ele>
        <time>2026-01-25T08:31:53.000Z</time>
      </trkpt>
      <trkpt lat="43.47919" lon="6.41536">
        <ele>154</ele>
        <time>2026-01-25T08:32:01.000Z</time>
      </trkpt>
      <trkpt lat="43.47914" lon="6.41526">
        <ele>153.6</ele>
        <time>2026-01-25T08:32:08.000Z</time>
      </trkpt>
      <trkpt lat="43.47907" lon="6.41517">
        <ele>153.3</ele>
        <time>2026-01-25T08:32:14.000Z</time>
      </trkpt>
      <trkpt lat="43.47897" lon="6.41512">
        <ele>153.1</ele>
        <time>2026-01-25T08:32:21.000Z</time>
      </trkpt>
      <trkpt lat="43.47888" lon="6.41509">
        <ele>152.8</ele>
        <time>2026-01-25T08:32:29.000Z</time>
      </trkpt>
      <trkpt lat="43.47879" lon="6.41507">
        <ele>152.5</ele>
        <time>2026-01-25T08:32:35.000Z</time>
      </trkpt>
      <trkpt lat="43.4787" lon="6.41506">
        <ele>152.1</ele>
        <time>2026-01-25T08:32:44.000Z</time>
      </trkpt>
      <trkpt lat="43.4786" lon="6.41505">
        <ele>151.9</ele>
        <time>2026-01-25T08:32:51.000Z</time>
      </trkpt>
      <trkpt lat="43.47851" lon="6.41504">
        <ele>151.6</ele>
        <time>2026-01-25T08:32:59.000Z</time>
      </trkpt>
      <trkpt lat="43.47841" lon="6.41505">
        <ele>151.4</ele>
        <time>2026-01-25T08:33:06.000Z</time>
      </trkpt>
      <trkpt lat="43.47832" lon="6.41508">
        <ele>151.3</ele>
        <time>2026-01-25T08:33:13.000Z</time>
      </trkpt>
      <trkpt lat="43.47823" lon="6.41511">
        <ele>151.1</ele>
        <time>2026-01-25T08:33:20.000Z</time>
      </trkpt>
      <trkpt lat="43.47813" lon="6.41515">
        <ele>151</ele>
        <time>2026-01-25T08:33:27.000Z</time>
      </trkpt>
      <trkpt lat="43.47805" lon="6.4152">
        <ele>150.8</ele>
        <time>2026-01-25T08:33:34.000Z</time>
      </trkpt>
      <trkpt lat="43.47796" lon="6.41525">
        <ele>150.6</ele>
        <time>2026-01-25T08:33:42.000Z</time>
      </trkpt>
      <trkpt lat="43.47787" lon="6.41529">
        <ele>150.4</ele>
        <time>2026-01-25T08:33:51.000Z</time>
      </trkpt>
      <trkpt lat="43.47779" lon="6.41536">
        <ele>150.3</ele>
        <time>2026-01-25T08:33:58.000Z</time>
      </trkpt>
      <trkpt lat="43.4777" lon="6.41542">
        <ele>150.1</ele>
        <time>2026-01-25T08:34:05.000Z</time>
      </trkpt>
      <trkpt lat="43.47761" lon="6.41545">
        <ele>149.8</ele>
        <time>2026-01-25T08:34:14.000Z</time>
      </trkpt>
      <trkpt lat="43.47751" lon="6.41548">
        <ele>149.4</ele>
        <time>2026-01-25T08:34:24.000Z</time>
      </trkpt>
      <trkpt lat="43.47742" lon="6.41546">
        <ele>149.1</ele>
        <time>2026-01-25T08:34:32.000Z</time>
      </trkpt>
      <trkpt lat="43.47732" lon="6.4154">
        <ele>148.6</ele>
        <time>2026-01-25T08:34:41.000Z</time>
      </trkpt>
      <trkpt lat="43.47723" lon="6.41535">
        <ele>148.2</ele>
        <time>2026-01-25T08:34:48.000Z</time>
      </trkpt>
      <trkpt lat="43.47713" lon="6.41532">
        <ele>147.7</ele>
        <time>2026-01-25T08:34:55.000Z</time>
      </trkpt>
      <trkpt lat="43.47704" lon="6.41531">
        <ele>147.5</ele>
        <time>2026-01-25T08:35:02.000Z</time>
      </trkpt>
      <trkpt lat="43.47695" lon="6.41529">
        <ele>147.2</ele>
        <time>2026-01-25T08:35:11.000Z</time>
      </trkpt>
      <trkpt lat="43.47685" lon="6.41529">
        <ele>147</ele>
        <time>2026-01-25T08:35:19.000Z</time>
      </trkpt>
      <trkpt lat="43.47676" lon="6.41526">
        <ele>146.7</ele>
        <time>2026-01-25T08:35:28.000Z</time>
      </trkpt>
      <trkpt lat="43.47667" lon="6.41521">
        <ele>146.4</ele>
        <time>2026-01-25T08:35:36.000Z</time>
      </trkpt>
      <trkpt lat="43.47658" lon="6.41522">
        <ele>146.3</ele>
        <time>2026-01-25T08:35:44.000Z</time>
      </trkpt>
      <trkpt lat="43.47649" lon="6.41517">
        <ele>146.2</ele>
        <time>2026-01-25T08:35:51.000Z</time>
      </trkpt>
      <trkpt lat="43.47639" lon="6.41514">
        <ele>146</ele>
        <time>2026-01-25T08:36:00.000Z</time>
      </trkpt>
      <trkpt lat="43.47632" lon="6.41505">
        <ele>145.9</ele>
        <time>2026-01-25T08:36:09.000Z</time>
      </trkpt>
      <trkpt lat="43.47625" lon="6.41497">
        <ele>145.7</ele>
        <time>2026-01-25T08:36:19.000Z</time>
      </trkpt>
      <trkpt lat="43.47623" lon="6.41485">
        <ele>145.3</ele>
        <time>2026-01-25T08:36:31.000Z</time>
      </trkpt>
      <trkpt lat="43.47626" lon="6.41472">
        <ele>144.6</ele>
        <time>2026-01-25T08:36:41.000Z</time>
      </trkpt>
      <trkpt lat="43.47621" lon="6.41465">
        <ele>142.4</ele>
        <time>2026-01-25T08:37:06.000Z</time>
      </trkpt>
      <trkpt lat="43.47619" lon="6.41465">
        <ele>142.1</ele>
        <time>2026-01-25T08:37:13.000Z</time>
      </trkpt>
      <trkpt lat="43.47614" lon="6.41453">
        <ele>141.2</ele>
        <time>2026-01-25T08:37:25.000Z</time>
      </trkpt>
      <trkpt lat="43.47615" lon="6.4144">
        <ele>139.5</ele>
        <time>2026-01-25T08:37:43.000Z</time>
      </trkpt>
      <trkpt lat="43.47606" lon="6.41439">
        <ele>138.4</ele>
        <time>2026-01-25T08:37:52.000Z</time>
      </trkpt>
      <trkpt lat="43.47596" lon="6.41436">
        <ele>137.4</ele>
        <time>2026-01-25T08:38:08.000Z</time>
      </trkpt>
      <trkpt lat="43.47596" lon="6.41442">
        <ele>137.1</ele>
        <time>2026-01-25T08:38:46.000Z</time>
      </trkpt>
      <trkpt lat="43.47596" lon="6.41442">
        <ele>136.9</ele>
        <time>2026-01-25T08:39:44.000Z</time>
      </trkpt>
      <trkpt lat="43.47597" lon="6.41446">
        <ele>136.8</ele>
        <time>2026-01-25T08:40:26.000Z</time>
      </trkpt>
      <trkpt lat="43.47598" lon="6.41449">
        <ele>136.7</ele>
        <time>2026-01-25T08:40:36.000Z</time>
      </trkpt>
      <trkpt lat="43.47601" lon="6.4146">
        <ele>137</ele>
        <time>2026-01-25T08:40:49.000Z</time>
      </trkpt>
      <trkpt lat="43.47611" lon="6.41457">
        <ele>137.9</ele>
        <time>2026-01-25T08:40:56.000Z</time>
      </trkpt>
      <trkpt lat="43.47618" lon="6.41449">
        <ele>138.9</ele>
        <time>2026-01-25T08:41:04.000Z</time>
      </trkpt>
      <trkpt lat="43.47622" lon="6.41438">
        <ele>139.1</ele>
        <time>2026-01-25T08:41:13.000Z</time>
      </trkpt>
      <trkpt lat="43.47631" lon="6.41434">
        <ele>139.9</ele>
        <time>2026-01-25T08:41:42.000Z</time>
      </trkpt>
      <trkpt lat="43.47633" lon="6.41421">
        <ele>139.9</ele>
        <time>2026-01-25T08:41:52.000Z</time>
      </trkpt>
      <trkpt lat="43.47636" lon="6.41409">
        <ele>139.9</ele>
        <time>2026-01-25T08:41:59.000Z</time>
      </trkpt>
      <trkpt lat="43.4764" lon="6.41396">
        <ele>139.8</ele>
        <time>2026-01-25T08:42:07.000Z</time>
      </trkpt>
      <trkpt lat="43.4764" lon="6.41383">
        <ele>139.8</ele>
        <time>2026-01-25T08:42:17.000Z</time>
      </trkpt>
      <trkpt lat="43.47642" lon="6.4137">
        <ele>139.8</ele>
        <time>2026-01-25T08:42:26.000Z</time>
      </trkpt>
      <trkpt lat="43.47644" lon="6.41357">
        <ele>139.7</ele>
        <time>2026-01-25T08:42:36.000Z</time>
      </trkpt>
      <trkpt lat="43.47643" lon="6.41344">
        <ele>139.6</ele>
        <time>2026-01-25T08:42:46.000Z</time>
      </trkpt>
      <trkpt lat="43.47642" lon="6.41332">
        <ele>139.5</ele>
        <time>2026-01-25T08:42:55.000Z</time>
      </trkpt>
      <trkpt lat="43.47637" lon="6.4132">
        <ele>139.5</ele>
        <time>2026-01-25T08:43:04.000Z</time>
      </trkpt>
      <trkpt lat="43.47634" lon="6.41307">
        <ele>139.5</ele>
        <time>2026-01-25T08:43:13.000Z</time>
      </trkpt>
      <trkpt lat="43.47629" lon="6.41294">
        <ele>139.5</ele>
        <time>2026-01-25T08:43:22.000Z</time>
      </trkpt>
      <trkpt lat="43.47626" lon="6.41281">
        <ele>139.6</ele>
        <time>2026-01-25T08:43:31.000Z</time>
      </trkpt>
      <trkpt lat="43.47622" lon="6.41268">
        <ele>139.5</ele>
        <time>2026-01-25T08:43:38.000Z</time>
      </trkpt>
      <trkpt lat="43.47615" lon="6.41259">
        <ele>139.4</ele>
        <time>2026-01-25T08:43:46.000Z</time>
      </trkpt>
      <trkpt lat="43.47608" lon="6.41251">
        <ele>139.2</ele>
        <time>2026-01-25T08:43:53.000Z</time>
      </trkpt>
      <trkpt lat="43.47602" lon="6.41241">
        <ele>138.4</ele>
        <time>2026-01-25T08:44:02.000Z</time>
      </trkpt>
      <trkpt lat="43.47595" lon="6.41232">
        <ele>137.5</ele>
        <time>2026-01-25T08:44:11.000Z</time>
      </trkpt>
      <trkpt lat="43.47589" lon="6.41222">
        <ele>136.5</ele>
        <time>2026-01-25T08:44:20.000Z</time>
      </trkpt>
      <trkpt lat="43.47581" lon="6.41213">
        <ele>135.5</ele>
        <time>2026-01-25T08:44:30.000Z</time>
      </trkpt>
      <trkpt lat="43.47572" lon="6.41208">
        <ele>134.8</ele>
        <time>2026-01-25T08:44:37.000Z</time>
      </trkpt>
      <trkpt lat="43.47564" lon="6.41202">
        <ele>134.4</ele>
        <time>2026-01-25T08:44:45.000Z</time>
      </trkpt>
      <trkpt lat="43.47555" lon="6.412">
        <ele>133.8</ele>
        <time>2026-01-25T08:44:54.000Z</time>
      </trkpt>
      <trkpt lat="43.47545" lon="6.41199">
        <ele>133.1</ele>
        <time>2026-01-25T08:45:01.000Z</time>
      </trkpt>
      <trkpt lat="43.47535" lon="6.41195">
        <ele>132.2</ele>
        <time>2026-01-25T08:45:12.000Z</time>
      </trkpt>
      <trkpt lat="43.47533" lon="6.41194">
        <ele>131.7</ele>
        <time>2026-01-25T08:45:29.000Z</time>
      </trkpt>
      <trkpt lat="43.47531" lon="6.41193">
        <ele>131.6</ele>
        <time>2026-01-25T08:45:50.000Z</time>
      </trkpt>
      <trkpt lat="43.4753" lon="6.41193">
        <ele>131.5</ele>
        <time>2026-01-25T08:46:03.000Z</time>
      </trkpt>
      <trkpt lat="43.47528" lon="6.41194">
        <ele>131.5</ele>
        <time>2026-01-25T08:46:06.000Z</time>
      </trkpt>
      <trkpt lat="43.47519" lon="6.41195">
        <ele>131.4</ele>
        <time>2026-01-25T08:46:16.000Z</time>
      </trkpt>
      <trkpt lat="43.4751" lon="6.41197">
        <ele>131.2</ele>
        <time>2026-01-25T08:46:27.000Z</time>
      </trkpt>
      <trkpt lat="43.475" lon="6.41199">
        <ele>130.9</ele>
        <time>2026-01-25T08:46:37.000Z</time>
      </trkpt>
      <trkpt lat="43.47492" lon="6.41196">
        <ele>130.3</ele>
        <time>2026-01-25T08:46:45.000Z</time>
      </trkpt>
      <trkpt lat="43.47483" lon="6.41193">
        <ele>129.6</ele>
        <time>2026-01-25T08:46:54.000Z</time>
      </trkpt>
      <trkpt lat="43.47473" lon="6.41192">
        <ele>128.8</ele>
        <time>2026-01-25T08:47:03.000Z</time>
      </trkpt>
      <trkpt lat="43.47463" lon="6.4119">
        <ele>128.2</ele>
        <time>2026-01-25T08:47:12.000Z</time>
      </trkpt>
      <trkpt lat="43.47454" lon="6.41188">
        <ele>127.5</ele>
        <time>2026-01-25T08:47:20.000Z</time>
      </trkpt>
      <trkpt lat="43.47445" lon="6.41189">
        <ele>127.2</ele>
        <time>2026-01-25T08:47:29.000Z</time>
      </trkpt>
      <trkpt lat="43.47435" lon="6.41191">
        <ele>126.8</ele>
        <time>2026-01-25T08:47:36.000Z</time>
      </trkpt>
      <trkpt lat="43.47426" lon="6.41195">
        <ele>126.1</ele>
        <time>2026-01-25T08:47:44.000Z</time>
      </trkpt>
      <trkpt lat="43.47417" lon="6.41199">
        <ele>125.5</ele>
        <time>2026-01-25T08:47:52.000Z</time>
      </trkpt>
      <trkpt lat="43.47408" lon="6.41203">
        <ele>124.9</ele>
        <time>2026-01-25T08:47:59.000Z</time>
      </trkpt>
      <trkpt lat="43.47401" lon="6.41212">
        <ele>124.3</ele>
        <time>2026-01-25T08:48:08.000Z</time>
      </trkpt>
      <trkpt lat="43.47393" lon="6.41221">
        <ele>123.7</ele>
        <time>2026-01-25T08:48:45.000Z</time>
      </trkpt>
      <trkpt lat="43.47386" lon="6.4123">
        <ele>123.7</ele>
        <time>2026-01-25T08:48:56.000Z</time>
      </trkpt>
      <trkpt lat="43.47378" lon="6.41239">
        <ele>123.6</ele>
        <time>2026-01-25T08:49:04.000Z</time>
      </trkpt>
      <trkpt lat="43.4737" lon="6.41247">
        <ele>123.6</ele>
        <time>2026-01-25T08:49:11.000Z</time>
      </trkpt>
      <trkpt lat="43.47363" lon="6.41256">
        <ele>123.5</ele>
        <time>2026-01-25T08:49:19.000Z</time>
      </trkpt>
      <trkpt lat="43.47355" lon="6.41265">
        <ele>123.3</ele>
        <time>2026-01-25T08:49:26.000Z</time>
      </trkpt>
      <trkpt lat="43.47349" lon="6.41276">
        <ele>123</ele>
        <time>2026-01-25T08:49:34.000Z</time>
      </trkpt>
      <trkpt lat="43.47342" lon="6.41287">
        <ele>122.5</ele>
        <time>2026-01-25T08:49:42.000Z</time>
      </trkpt>
      <trkpt lat="43.47338" lon="6.41298">
        <ele>122</ele>
        <time>2026-01-25T08:49:49.000Z</time>
      </trkpt>
      <trkpt lat="43.47333" lon="6.41309">
        <ele>121.3</ele>
        <time>2026-01-25T08:49:56.000Z</time>
      </trkpt>
      <trkpt lat="43.4733" lon="6.41322">
        <ele>120.2</ele>
        <time>2026-01-25T08:50:04.000Z</time>
      </trkpt>
      <trkpt lat="43.47327" lon="6.41334">
        <ele>118.9</ele>
        <time>2026-01-25T08:50:14.000Z</time>
      </trkpt>
      <trkpt lat="43.47326" lon="6.41347">
        <ele>117.7</ele>
        <time>2026-01-25T08:50:23.000Z</time>
      </trkpt>
      <trkpt lat="43.47324" lon="6.4136">
        <ele>116.7</ele>
        <time>2026-01-25T08:50:31.000Z</time>
      </trkpt>
      <trkpt lat="43.47326" lon="6.41372">
        <ele>115.9</ele>
        <time>2026-01-25T08:50:38.000Z</time>
      </trkpt>
      <trkpt lat="43.47326" lon="6.41385">
        <ele>115</ele>
        <time>2026-01-25T08:50:48.000Z</time>
      </trkpt>
      <trkpt lat="43.47332" lon="6.41397">
        <ele>114.3</ele>
        <time>2026-01-25T08:50:56.000Z</time>
      </trkpt>
      <trkpt lat="43.47337" lon="6.41409">
        <ele>113.7</ele>
        <time>2026-01-25T08:51:05.000Z</time>
      </trkpt>
      <trkpt lat="43.47343" lon="6.41418">
        <ele>113.3</ele>
        <time>2026-01-25T08:51:13.000Z</time>
      </trkpt>
      <trkpt lat="43.4735" lon="6.41426">
        <ele>112.4</ele>
        <time>2026-01-25T08:51:24.000Z</time>
      </trkpt>
      <trkpt lat="43.47355" lon="6.41437">
        <ele>111.7</ele>
        <time>2026-01-25T08:51:32.000Z</time>
      </trkpt>
      <trkpt lat="43.47361" lon="6.41446">
        <ele>111.1</ele>
        <time>2026-01-25T08:51:41.000Z</time>
      </trkpt>
      <trkpt lat="43.47369" lon="6.41455">
        <ele>110.4</ele>
        <time>2026-01-25T08:51:50.000Z</time>
      </trkpt>
      <trkpt lat="43.47374" lon="6.41466">
        <ele>109.6</ele>
        <time>2026-01-25T08:51:59.000Z</time>
      </trkpt>
      <trkpt lat="43.47378" lon="6.41479">
        <ele>108.8</ele>
        <time>2026-01-25T08:52:10.000Z</time>
      </trkpt>
      <trkpt lat="43.47385" lon="6.41487">
        <ele>108.2</ele>
        <time>2026-01-25T08:52:19.000Z</time>
      </trkpt>
      <trkpt lat="43.47391" lon="6.41497">
        <ele>107.6</ele>
        <time>2026-01-25T08:52:27.000Z</time>
      </trkpt>
      <trkpt lat="43.474" lon="6.41502">
        <ele>107.6</ele>
        <time>2026-01-25T08:52:39.000Z</time>
      </trkpt>
      <trkpt lat="43.47408" lon="6.41508">
        <ele>108</ele>
        <time>2026-01-25T08:52:48.000Z</time>
      </trkpt>
      <trkpt lat="43.47416" lon="6.41515">
        <ele>108.8</ele>
        <time>2026-01-25T08:52:59.000Z</time>
      </trkpt>
      <trkpt lat="43.47425" lon="6.4152">
        <ele>109.7</ele>
        <time>2026-01-25T08:53:09.000Z</time>
      </trkpt>
      <trkpt lat="43.47433" lon="6.41526">
        <ele>110.7</ele>
        <time>2026-01-25T08:53:20.000Z</time>
      </trkpt>
      <trkpt lat="43.47442" lon="6.41531">
        <ele>111.4</ele>
        <time>2026-01-25T08:53:29.000Z</time>
      </trkpt>
      <trkpt lat="43.47434" lon="6.41539">
        <ele>113.3</ele>
        <time>2026-01-25T08:53:51.000Z</time>
      </trkpt>
      <trkpt lat="43.47425" lon="6.41535">
        <ele>114.4</ele>
        <time>2026-01-25T08:54:06.000Z</time>
      </trkpt>
      <trkpt lat="43.47416" lon="6.4153">
        <ele>115</ele>
        <time>2026-01-25T08:54:15.000Z</time>
      </trkpt>
      <trkpt lat="43.47407" lon="6.41525">
        <ele>115.7</ele>
        <time>2026-01-25T08:54:23.000Z</time>
      </trkpt>
      <trkpt lat="43.47397" lon="6.41522">
        <ele>116.3</ele>
        <time>2026-01-25T08:54:34.000Z</time>
      </trkpt>
      <trkpt lat="43.47389" lon="6.41527">
        <ele>116.9</ele>
        <time>2026-01-25T08:54:43.000Z</time>
      </trkpt>
      <trkpt lat="43.47393" lon="6.41538">
        <ele>118</ele>
        <time>2026-01-25T08:54:55.000Z</time>
      </trkpt>
      <trkpt lat="43.47403" lon="6.41542">
        <ele>118.6</ele>
        <time>2026-01-25T08:55:02.000Z</time>
      </trkpt>
      <trkpt lat="43.47411" lon="6.41547">
        <ele>119.5</ele>
        <time>2026-01-25T08:55:15.000Z</time>
      </trkpt>
      <trkpt lat="43.47416" lon="6.41558">
        <ele>120.2</ele>
        <time>2026-01-25T08:55:25.000Z</time>
      </trkpt>
      <trkpt lat="43.47422" lon="6.41569">
        <ele>121</ele>
        <time>2026-01-25T08:55:36.000Z</time>
      </trkpt>
      <trkpt lat="43.47426" lon="6.41581">
        <ele>121.7</ele>
        <time>2026-01-25T08:55:46.000Z</time>
      </trkpt>
      <trkpt lat="43.47428" lon="6.41594">
        <ele>122.4</ele>
        <time>2026-01-25T08:55:56.000Z</time>
      </trkpt>
      <trkpt lat="43.47431" lon="6.41607">
        <ele>123.3</ele>
        <time>2026-01-25T08:56:07.000Z</time>
      </trkpt>
      <trkpt lat="43.47432" lon="6.41619">
        <ele>124.4</ele>
        <time>2026-01-25T08:56:18.000Z</time>
      </trkpt>
      <trkpt lat="43.47436" lon="6.41631">
        <ele>125.3</ele>
        <time>2026-01-25T08:56:28.000Z</time>
      </trkpt>
      <trkpt lat="43.47438" lon="6.41643">
        <ele>126.1</ele>
        <time>2026-01-25T08:56:37.000Z</time>
      </trkpt>
      <trkpt lat="43.47436" lon="6.41657">
        <ele>127.6</ele>
        <time>2026-01-25T08:56:51.000Z</time>
      </trkpt>
      <trkpt lat="43.4744" lon="6.41669">
        <ele>130.5</ele>
        <time>2026-01-25T08:57:27.000Z</time>
      </trkpt>
      <trkpt lat="43.4744" lon="6.41667">
        <ele>130.9</ele>
        <time>2026-01-25T08:57:44.000Z</time>
      </trkpt>
      <trkpt lat="43.4744" lon="6.41667">
        <ele>131</ele>
        <time>2026-01-25T08:57:53.000Z</time>
      </trkpt>
      <trkpt lat="43.4744" lon="6.41667">
        <ele>131.1</ele>
        <time>2026-01-25T08:58:06.000Z</time>
      </trkpt>
      <trkpt lat="43.4744" lon="6.41668">
        <ele>131.1</ele>
        <time>2026-01-25T08:59:02.000Z</time>
      </trkpt>
      <trkpt lat="43.47437" lon="6.41668">
        <ele>131.2</ele>
        <time>2026-01-25T08:59:21.000Z</time>
      </trkpt>
      <trkpt lat="43.47436" lon="6.41672">
        <ele>131.3</ele>
        <time>2026-01-25T09:00:24.000Z</time>
      </trkpt>
      <trkpt lat="43.47436" lon="6.41672">
        <ele>131.2</ele>
        <time>2026-01-25T09:00:34.000Z</time>
      </trkpt>
      <trkpt lat="43.47438" lon="6.41674">
        <ele>131.3</ele>
        <time>2026-01-25T09:00:44.000Z</time>
      </trkpt>
      <trkpt lat="43.47446" lon="6.41682">
        <ele>131.4</ele>
        <time>2026-01-25T09:01:14.000Z</time>
      </trkpt>
      <trkpt lat="43.47452" lon="6.41692">
        <ele>131.6</ele>
        <time>2026-01-25T09:01:24.000Z</time>
      </trkpt>
      <trkpt lat="43.47457" lon="6.41701">
        <ele>132.3</ele>
        <time>2026-01-25T09:01:34.000Z</time>
      </trkpt>
      <trkpt lat="43.47464" lon="6.41711">
        <ele>133.4</ele>
        <time>2026-01-25T09:01:44.000Z</time>
      </trkpt>
      <trkpt lat="43.47468" lon="6.41723">
        <ele>134.5</ele>
        <time>2026-01-25T09:01:55.000Z</time>
      </trkpt>
      <trkpt lat="43.47475" lon="6.4173">
        <ele>135.8</ele>
        <time>2026-01-25T09:02:08.000Z</time>
      </trkpt>
      <trkpt lat="43.47482" lon="6.41738">
        <ele>137.2</ele>
        <time>2026-01-25T09:02:19.000Z</time>
      </trkpt>
      <trkpt lat="43.4749" lon="6.41746">
        <ele>138</ele>
        <time>2026-01-25T09:02:32.000Z</time>
      </trkpt>
      <trkpt lat="43.47496" lon="6.41755">
        <ele>139</ele>
        <time>2026-01-25T09:02:43.000Z</time>
      </trkpt>
      <trkpt lat="43.47502" lon="6.41764">
        <ele>139.9</ele>
        <time>2026-01-25T09:02:55.000Z</time>
      </trkpt>
      <trkpt lat="43.47508" lon="6.41774">
        <ele>140.6</ele>
        <time>2026-01-25T09:03:04.000Z</time>
      </trkpt>
      <trkpt lat="43.47516" lon="6.4178">
        <ele>141.3</ele>
        <time>2026-01-25T09:03:15.000Z</time>
      </trkpt>
      <trkpt lat="43.47524" lon="6.41789">
        <ele>141.8</ele>
        <time>2026-01-25T09:03:27.000Z</time>
      </trkpt>
      <trkpt lat="43.4753" lon="6.41798">
        <ele>142.3</ele>
        <time>2026-01-25T09:03:35.000Z</time>
      </trkpt>
      <trkpt lat="43.47537" lon="6.41806">
        <ele>142.9</ele>
        <time>2026-01-25T09:03:45.000Z</time>
      </trkpt>
      <trkpt lat="43.47542" lon="6.41817">
        <ele>143.7</ele>
        <time>2026-01-25T09:03:55.000Z</time>
      </trkpt>
      <trkpt lat="43.47547" lon="6.41827">
        <ele>144.8</ele>
        <time>2026-01-25T09:04:07.000Z</time>
      </trkpt>
      <trkpt lat="43.47551" lon="6.41838">
        <ele>145.5</ele>
        <time>2026-01-25T09:04:17.000Z</time>
      </trkpt>
      <trkpt lat="43.47556" lon="6.4185">
        <ele>146.1</ele>
        <time>2026-01-25T09:04:27.000Z</time>
      </trkpt>
      <trkpt lat="43.47558" lon="6.41863">
        <ele>147.1</ele>
        <time>2026-01-25T09:04:39.000Z</time>
      </trkpt>
      <trkpt lat="43.47558" lon="6.41876">
        <ele>148.2</ele>
        <time>2026-01-25T09:04:50.000Z</time>
      </trkpt>
      <trkpt lat="43.47559" lon="6.41888">
        <ele>149.3</ele>
        <time>2026-01-25T09:05:00.000Z</time>
      </trkpt>
      <trkpt lat="43.47558" lon="6.41901">
        <ele>151.2</ele>
        <time>2026-01-25T09:05:20.000Z</time>
      </trkpt>
      <trkpt lat="43.47552" lon="6.41911">
        <ele>152.1</ele>
        <time>2026-01-25T09:05:32.000Z</time>
      </trkpt>
      <trkpt lat="43.47547" lon="6.41923">
        <ele>153.1</ele>
        <time>2026-01-25T09:05:44.000Z</time>
      </trkpt>
      <trkpt lat="43.47543" lon="6.41934">
        <ele>153.8</ele>
        <time>2026-01-25T09:05:53.000Z</time>
      </trkpt>
      <trkpt lat="43.47539" lon="6.41946">
        <ele>154.4</ele>
        <time>2026-01-25T09:06:03.000Z</time>
      </trkpt>
      <trkpt lat="43.47532" lon="6.41955">
        <ele>155</ele>
        <time>2026-01-25T09:06:14.000Z</time>
      </trkpt>
      <trkpt lat="43.47528" lon="6.41966">
        <ele>155.9</ele>
        <time>2026-01-25T09:06:24.000Z</time>
      </trkpt>
      <trkpt lat="43.47522" lon="6.41977">
        <ele>156.8</ele>
        <time>2026-01-25T09:06:33.000Z</time>
      </trkpt>
      <trkpt lat="43.47518" lon="6.41989">
        <ele>157.9</ele>
        <time>2026-01-25T09:06:45.000Z</time>
      </trkpt>
      <trkpt lat="43.47518" lon="6.42002">
        <ele>158.8</ele>
        <time>2026-01-25T09:06:55.000Z</time>
      </trkpt>
      <trkpt lat="43.47518" lon="6.42015">
        <ele>159.4</ele>
        <time>2026-01-25T09:07:04.000Z</time>
      </trkpt>
      <trkpt lat="43.47519" lon="6.42028">
        <ele>160.1</ele>
        <time>2026-01-25T09:07:14.000Z</time>
      </trkpt>
      <trkpt lat="43.47519" lon="6.42042">
        <ele>160.8</ele>
        <time>2026-01-25T09:07:24.000Z</time>
      </trkpt>
      <trkpt lat="43.47514" lon="6.42032">
        <ele>163.4</ele>
        <time>2026-01-25T09:07:53.000Z</time>
      </trkpt>
      <trkpt lat="43.47511" lon="6.42019">
        <ele>164.4</ele>
        <time>2026-01-25T09:08:04.000Z</time>
      </trkpt>
      <trkpt lat="43.4751" lon="6.42007">
        <ele>165</ele>
        <time>2026-01-25T09:08:15.000Z</time>
      </trkpt>
      <trkpt lat="43.4751" lon="6.41994">
        <ele>165.9</ele>
        <time>2026-01-25T09:08:26.000Z</time>
      </trkpt>
      <trkpt lat="43.47511" lon="6.41981">
        <ele>166.8</ele>
        <time>2026-01-25T09:08:36.000Z</time>
      </trkpt>
      <trkpt lat="43.47513" lon="6.41969">
        <ele>167.5</ele>
        <time>2026-01-25T09:08:47.000Z</time>
      </trkpt>
      <trkpt lat="43.47513" lon="6.41956">
        <ele>168.3</ele>
        <time>2026-01-25T09:08:59.000Z</time>
      </trkpt>
      <trkpt lat="43.47511" lon="6.41943">
        <ele>169.5</ele>
        <time>2026-01-25T09:09:13.000Z</time>
      </trkpt>
      <trkpt lat="43.47513" lon="6.41931">
        <ele>170.4</ele>
        <time>2026-01-25T09:09:24.000Z</time>
      </trkpt>
      <trkpt lat="43.47511" lon="6.41922">
        <ele>172.2</ele>
        <time>2026-01-25T09:09:48.000Z</time>
      </trkpt>
      <trkpt lat="43.47512" lon="6.41914">
        <ele>172.5</ele>
        <time>2026-01-25T09:10:38.000Z</time>
      </trkpt>
      <trkpt lat="43.47511" lon="6.41901">
        <ele>172.4</ele>
        <time>2026-01-25T09:10:56.000Z</time>
      </trkpt>
      <trkpt lat="43.47503" lon="6.41894">
        <ele>172.5</ele>
        <time>2026-01-25T09:11:06.000Z</time>
      </trkpt>
      <trkpt lat="43.47495" lon="6.41888">
        <ele>172.6</ele>
        <time>2026-01-25T09:11:17.000Z</time>
      </trkpt>
      <trkpt lat="43.47485" lon="6.41887">
        <ele>173</ele>
        <time>2026-01-25T09:11:27.000Z</time>
      </trkpt>
      <trkpt lat="43.47476" lon="6.41883">
        <ele>173.7</ele>
        <time>2026-01-25T09:11:37.000Z</time>
      </trkpt>
      <trkpt lat="43.47467" lon="6.41884">
        <ele>174.2</ele>
        <time>2026-01-25T09:11:45.000Z</time>
      </trkpt>
      <trkpt lat="43.47457" lon="6.41885">
        <ele>174.8</ele>
        <time>2026-01-25T09:11:55.000Z</time>
      </trkpt>
      <trkpt lat="43.47448" lon="6.41886">
        <ele>175.5</ele>
        <time>2026-01-25T09:12:05.000Z</time>
      </trkpt>
      <trkpt lat="43.47439" lon="6.41891">
        <ele>176.1</ele>
        <time>2026-01-25T09:12:15.000Z</time>
      </trkpt>
      <trkpt lat="43.4743" lon="6.41894">
        <ele>176.3</ele>
        <time>2026-01-25T09:12:24.000Z</time>
      </trkpt>
      <trkpt lat="43.47421" lon="6.41896">
        <ele>176.5</ele>
        <time>2026-01-25T09:12:34.000Z</time>
      </trkpt>
      <trkpt lat="43.47411" lon="6.41895">
        <ele>177</ele>
        <time>2026-01-25T09:12:44.000Z</time>
      </trkpt>
      <trkpt lat="43.47402" lon="6.41895">
        <ele>177.5</ele>
        <time>2026-01-25T09:12:53.000Z</time>
      </trkpt>
      <trkpt lat="43.47393" lon="6.41895">
        <ele>178.1</ele>
        <time>2026-01-25T09:13:08.000Z</time>
      </trkpt>
      <trkpt lat="43.47383" lon="6.41895">
        <ele>178.7</ele>
        <time>2026-01-25T09:13:19.000Z</time>
      </trkpt>
      <trkpt lat="43.47374" lon="6.419">
        <ele>179.5</ele>
        <time>2026-01-25T09:13:32.000Z</time>
      </trkpt>
      <trkpt lat="43.47364" lon="6.41895">
        <ele>179.8</ele>
        <time>2026-01-25T09:13:42.000Z</time>
      </trkpt>
      <trkpt lat="43.47355" lon="6.41893">
        <ele>180.1</ele>
        <time>2026-01-25T09:13:51.000Z</time>
      </trkpt>
      <trkpt lat="43.47347" lon="6.41887">
        <ele>180.4</ele>
        <time>2026-01-25T09:13:59.000Z</time>
      </trkpt>
      <trkpt lat="43.47338" lon="6.41884">
        <ele>180.5</ele>
        <time>2026-01-25T09:14:08.000Z</time>
      </trkpt>
      <trkpt lat="43.47328" lon="6.41884">
        <ele>180.1</ele>
        <time>2026-01-25T09:14:20.000Z</time>
      </trkpt>
      <trkpt lat="43.47319" lon="6.41881">
        <ele>179.7</ele>
        <time>2026-01-25T09:14:29.000Z</time>
      </trkpt>
      <trkpt lat="43.47309" lon="6.41881">
        <ele>179</ele>
        <time>2026-01-25T09:14:39.000Z</time>
      </trkpt>
      <trkpt lat="43.473" lon="6.41879">
        <ele>178.1</ele>
        <time>2026-01-25T09:14:49.000Z</time>
      </trkpt>
      <trkpt lat="43.47291" lon="6.41881">
        <ele>177.1</ele>
        <time>2026-01-25T09:14:58.000Z</time>
      </trkpt>
      <trkpt lat="43.47282" lon="6.41884">
        <ele>175</ele>
        <time>2026-01-25T09:16:06.000Z</time>
      </trkpt>
      <trkpt lat="43.47273" lon="6.41887">
        <ele>173.9</ele>
        <time>2026-01-25T09:16:23.000Z</time>
      </trkpt>
      <trkpt lat="43.47265" lon="6.41892">
        <ele>172.5</ele>
        <time>2026-01-25T09:16:38.000Z</time>
      </trkpt>
      <trkpt lat="43.47255" lon="6.41895">
        <ele>171.3</ele>
        <time>2026-01-25T09:16:48.000Z</time>
      </trkpt>
      <trkpt lat="43.47245" lon="6.41898">
        <ele>170.1</ele>
        <time>2026-01-25T09:16:57.000Z</time>
      </trkpt>
      <trkpt lat="43.47236" lon="6.41904">
        <ele>169.1</ele>
        <time>2026-01-25T09:17:06.000Z</time>
      </trkpt>
      <trkpt lat="43.47228" lon="6.4191">
        <ele>168.2</ele>
        <time>2026-01-25T09:17:15.000Z</time>
      </trkpt>
      <trkpt lat="43.47219" lon="6.41914">
        <ele>167.3</ele>
        <time>2026-01-25T09:17:25.000Z</time>
      </trkpt>
      <trkpt lat="43.4721" lon="6.41915">
        <ele>166.6</ele>
        <time>2026-01-25T09:17:36.000Z</time>
      </trkpt>
      <trkpt lat="43.47201" lon="6.41917">
        <ele>165.9</ele>
        <time>2026-01-25T09:17:44.000Z</time>
      </trkpt>
      <trkpt lat="43.47192" lon="6.41919">
        <ele>164.6</ele>
        <time>2026-01-25T09:17:56.000Z</time>
      </trkpt>
      <trkpt lat="43.47184" lon="6.41926">
        <ele>163</ele>
        <time>2026-01-25T09:18:06.000Z</time>
      </trkpt>
      <trkpt lat="43.47176" lon="6.41931">
        <ele>160.8</ele>
        <time>2026-01-25T09:18:20.000Z</time>
      </trkpt>
      <trkpt lat="43.47169" lon="6.4194">
        <ele>159.5</ele>
        <time>2026-01-25T09:18:31.000Z</time>
      </trkpt>
      <trkpt lat="43.47168" lon="6.41953">
        <ele>158.7</ele>
        <time>2026-01-25T09:18:44.000Z</time>
      </trkpt>
      <trkpt lat="43.47165" lon="6.41967">
        <ele>158.6</ele>
        <time>2026-01-25T09:18:53.000Z</time>
      </trkpt>
      <trkpt lat="43.47161" lon="6.41978">
        <ele>158.6</ele>
        <time>2026-01-25T09:19:04.000Z</time>
      </trkpt>
      <trkpt lat="43.47155" lon="6.41988">
        <ele>158.1</ele>
        <time>2026-01-25T09:19:18.000Z</time>
      </trkpt>
      <trkpt lat="43.4716" lon="6.41977">
        <ele>155.8</ele>
        <time>2026-01-25T09:19:54.000Z</time>
      </trkpt>
      <trkpt lat="43.47156" lon="6.41964">
        <ele>153.4</ele>
        <time>2026-01-25T09:20:50.000Z</time>
      </trkpt>
      <trkpt lat="43.47153" lon="6.41965">
        <ele>153.1</ele>
        <time>2026-01-25T09:21:14.000Z</time>
      </trkpt>
      <trkpt lat="43.47154" lon="6.41963">
        <ele>153</ele>
        <time>2026-01-25T09:21:19.000Z</time>
      </trkpt>
      <trkpt lat="43.47154" lon="6.41951">
        <ele>152.6</ele>
        <time>2026-01-25T09:21:32.000Z</time>
      </trkpt>
      <trkpt lat="43.47153" lon="6.41938">
        <ele>151.4</ele>
        <time>2026-01-25T09:21:59.000Z</time>
      </trkpt>
      <trkpt lat="43.47158" lon="6.41926">
        <ele>151.2</ele>
        <time>2026-01-25T09:22:28.000Z</time>
      </trkpt>
      <trkpt lat="43.47162" lon="6.41914">
        <ele>151.2</ele>
        <time>2026-01-25T09:22:37.000Z</time>
      </trkpt>
      <trkpt lat="43.47159" lon="6.41903">
        <ele>151.6</ele>
        <time>2026-01-25T09:23:32.000Z</time>
      </trkpt>
      <trkpt lat="43.47157" lon="6.419">
        <ele>151.9</ele>
        <time>2026-01-25T09:23:53.000Z</time>
      </trkpt>
      <trkpt lat="43.47157" lon="6.41897">
        <ele>152</ele>
        <time>2026-01-25T09:24:20.000Z</time>
      </trkpt>
      <trkpt lat="43.47163" lon="6.41907">
        <ele>154.9</ele>
        <time>2026-01-25T09:25:27.000Z</time>
      </trkpt>
      <trkpt lat="43.47169" lon="6.41907">
        <ele>155.7</ele>
        <time>2026-01-25T09:25:52.000Z</time>
      </trkpt>
      <trkpt lat="43.47175" lon="6.4191">
        <ele>155.9</ele>
        <time>2026-01-25T09:26:06.000Z</time>
      </trkpt>
      <trkpt lat="43.47175" lon="6.41906">
        <ele>156.1</ele>
        <time>2026-01-25T09:26:17.000Z</time>
      </trkpt>
      <trkpt lat="43.47171" lon="6.41905">
        <ele>156.4</ele>
        <time>2026-01-25T09:26:59.000Z</time>
      </trkpt>
      <trkpt lat="43.47171" lon="6.41901">
        <ele>156.6</ele>
        <time>2026-01-25T09:27:15.000Z</time>
      </trkpt>
      <trkpt lat="43.47168" lon="6.41897">
        <ele>156.9</ele>
        <time>2026-01-25T09:27:59.000Z</time>
      </trkpt>
      <trkpt lat="43.47171" lon="6.41904">
        <ele>156.8</ele>
        <time>2026-01-25T09:28:16.000Z</time>
      </trkpt>
      <trkpt lat="43.4717" lon="6.419">
        <ele>156.7</ele>
        <time>2026-01-25T09:28:23.000Z</time>
      </trkpt>
      <trkpt lat="43.47166" lon="6.41888">
        <ele>156</ele>
        <time>2026-01-25T09:28:48.000Z</time>
      </trkpt>
      <trkpt lat="43.47165" lon="6.4189">
        <ele>155.2</ele>
        <time>2026-01-25T09:29:14.000Z</time>
      </trkpt>
      <trkpt lat="43.47162" lon="6.41885">
        <ele>155.3</ele>
        <time>2026-01-25T09:29:24.000Z</time>
      </trkpt>
      <trkpt lat="43.47171" lon="6.41891">
        <ele>156.5</ele>
        <time>2026-01-25T09:29:50.000Z</time>
      </trkpt>
      <trkpt lat="43.47177" lon="6.419">
        <ele>159.4</ele>
        <time>2026-01-25T09:30:12.000Z</time>
      </trkpt>
      <trkpt lat="43.47181" lon="6.41912">
        <ele>161</ele>
        <time>2026-01-25T09:30:35.000Z</time>
      </trkpt>
      <trkpt lat="43.47181" lon="6.41914">
        <ele>161.5</ele>
        <time>2026-01-25T09:31:07.000Z</time>
      </trkpt>
      <trkpt lat="43.47181" lon="6.41917">
        <ele>161.5</ele>
        <time>2026-01-25T09:31:24.000Z</time>
      </trkpt>
      <trkpt lat="43.47183" lon="6.41929">
        <ele>161.7</ele>
        <time>2026-01-25T09:31:37.000Z</time>
      </trkpt>
      <trkpt lat="43.47192" lon="6.41932">
        <ele>162.9</ele>
        <time>2026-01-25T09:32:22.000Z</time>
      </trkpt>
      <trkpt lat="43.47191" lon="6.41932">
        <ele>162.9</ele>
        <time>2026-01-25T09:32:29.000Z</time>
      </trkpt>
      <trkpt lat="43.47189" lon="6.41929">
        <ele>162.8</ele>
        <time>2026-01-25T09:32:42.000Z</time>
      </trkpt>
      <trkpt lat="43.47186" lon="6.41932">
        <ele>163</ele>
        <time>2026-01-25T09:32:54.000Z</time>
      </trkpt>
      <trkpt lat="43.47188" lon="6.41938">
        <ele>163.1</ele>
        <time>2026-01-25T09:33:28.000Z</time>
      </trkpt>
      <trkpt lat="43.47182" lon="6.41928">
        <ele>162.8</ele>
        <time>2026-01-25T09:33:59.000Z</time>
      </trkpt>
      <trkpt lat="43.47183" lon="6.4193">
        <ele>162.7</ele>
        <time>2026-01-25T09:34:09.000Z</time>
      </trkpt>
      <trkpt lat="43.47182" lon="6.41928">
        <ele>162.8</ele>
        <time>2026-01-25T09:34:28.000Z</time>
      </trkpt>
      <trkpt lat="43.47184" lon="6.41929">
        <ele>162.9</ele>
        <time>2026-01-25T09:34:34.000Z</time>
      </trkpt>
      <trkpt lat="43.47184" lon="6.41925">
        <ele>163.1</ele>
        <time>2026-01-25T09:35:12.000Z</time>
      </trkpt>
      <trkpt lat="43.47184" lon="6.41921">
        <ele>163</ele>
        <time>2026-01-25T09:36:38.000Z</time>
      </trkpt>
      <trkpt lat="43.47184" lon="6.41921">
        <ele>163</ele>
        <time>2026-01-25T09:36:49.000Z</time>
      </trkpt>
      <trkpt lat="43.47183" lon="6.41922">
        <ele>163</ele>
        <time>2026-01-25T09:36:58.000Z</time>
      </trkpt>
      <trkpt lat="43.47184" lon="6.41922">
        <ele>162.6</ele>
        <time>2026-01-25T09:37:48.000Z</time>
      </trkpt>
      <trkpt lat="43.47182" lon="6.41926">
        <ele>162.6</ele>
        <time>2026-01-25T09:38:19.000Z</time>
      </trkpt>
      <trkpt lat="43.47174" lon="6.41933">
        <ele>161.8</ele>
        <time>2026-01-25T09:38:37.000Z</time>
      </trkpt>
      <trkpt lat="43.47169" lon="6.41944">
        <ele>160.2</ele>
        <time>2026-01-25T09:38:56.000Z</time>
      </trkpt>
      <trkpt lat="43.47167" lon="6.41956">
        <ele>159.9</ele>
        <time>2026-01-25T09:39:08.000Z</time>
      </trkpt>
      <trkpt lat="43.47166" lon="6.41969">
        <ele>159.9</ele>
        <time>2026-01-25T09:39:18.000Z</time>
      </trkpt>
      <trkpt lat="43.4716" lon="6.4198">
        <ele>159.9</ele>
        <time>2026-01-25T09:39:31.000Z</time>
      </trkpt>
      <trkpt lat="43.47155" lon="6.4199">
        <ele>158.1</ele>
        <time>2026-01-25T09:39:53.000Z</time>
      </trkpt>
      <trkpt lat="43.47148" lon="6.42">
        <ele>157.9</ele>
        <time>2026-01-25T09:40:04.000Z</time>
      </trkpt>
      <trkpt lat="43.47144" lon="6.41989">
        <ele>157.1</ele>
        <time>2026-01-25T09:40:30.000Z</time>
      </trkpt>
      <trkpt lat="43.47139" lon="6.41976">
        <ele>156.3</ele>
        <time>2026-01-25T09:40:41.000Z</time>
      </trkpt>
      <trkpt lat="43.47136" lon="6.41965">
        <ele>155.8</ele>
        <time>2026-01-25T09:40:48.000Z</time>
      </trkpt>
      <trkpt lat="43.4713" lon="6.41954">
        <ele>154.5</ele>
        <time>2026-01-25T09:41:00.000Z</time>
      </trkpt>
      <trkpt lat="43.47122" lon="6.41945">
        <ele>153.2</ele>
        <time>2026-01-25T09:41:10.000Z</time>
      </trkpt>
      <trkpt lat="43.47116" lon="6.41935">
        <ele>152</ele>
        <time>2026-01-25T09:41:21.000Z</time>
      </trkpt>
      <trkpt lat="43.47108" lon="6.41928">
        <ele>151.3</ele>
        <time>2026-01-25T09:41:31.000Z</time>
      </trkpt>
      <trkpt lat="43.47099" lon="6.41922">
        <ele>150.6</ele>
        <time>2026-01-25T09:41:42.000Z</time>
      </trkpt>
      <trkpt lat="43.47092" lon="6.41913">
        <ele>150</ele>
        <time>2026-01-25T09:41:54.000Z</time>
      </trkpt>
      <trkpt lat="43.47083" lon="6.4191">
        <ele>149.5</ele>
        <time>2026-01-25T09:42:03.000Z</time>
      </trkpt>
      <trkpt lat="43.47074" lon="6.41905">
        <ele>148.7</ele>
        <time>2026-01-25T09:42:18.000Z</time>
      </trkpt>
      <trkpt lat="43.47066" lon="6.41896">
        <ele>148.2</ele>
        <time>2026-01-25T09:42:29.000Z</time>
      </trkpt>
      <trkpt lat="43.47057" lon="6.41892">
        <ele>147.7</ele>
        <time>2026-01-25T09:42:41.000Z</time>
      </trkpt>
      <trkpt lat="43.47048" lon="6.41886">
        <ele>146.9</ele>
        <time>2026-01-25T09:42:55.000Z</time>
      </trkpt>
      <trkpt lat="43.47039" lon="6.4188">
        <ele>145.9</ele>
        <time>2026-01-25T09:43:08.000Z</time>
      </trkpt>
      <trkpt lat="43.4703" lon="6.41878">
        <ele>144.9</ele>
        <time>2026-01-25T09:43:21.000Z</time>
      </trkpt>
      <trkpt lat="43.47021" lon="6.41874">
        <ele>143.8</ele>
        <time>2026-01-25T09:43:32.000Z</time>
      </trkpt>
      <trkpt lat="43.47013" lon="6.41871">
        <ele>142.4</ele>
        <time>2026-01-25T09:43:45.000Z</time>
      </trkpt>
      <trkpt lat="43.47004" lon="6.41869">
        <ele>140.9</ele>
        <time>2026-01-25T09:43:58.000Z</time>
      </trkpt>
      <trkpt lat="43.46995" lon="6.41873">
        <ele>139.5</ele>
        <time>2026-01-25T09:44:11.000Z</time>
      </trkpt>
      <trkpt lat="43.46986" lon="6.41876">
        <ele>138.3</ele>
        <time>2026-01-25T09:44:25.000Z</time>
      </trkpt>
      <trkpt lat="43.46977" lon="6.4188">
        <ele>137.3</ele>
        <time>2026-01-25T09:44:36.000Z</time>
      </trkpt>
      <trkpt lat="43.46969" lon="6.41887">
        <ele>135.9</ele>
        <time>2026-01-25T09:44:53.000Z</time>
      </trkpt>
      <trkpt lat="43.46962" lon="6.41895">
        <ele>135</ele>
        <time>2026-01-25T09:45:07.000Z</time>
      </trkpt>
      <trkpt lat="43.46954" lon="6.41901">
        <ele>132.3</ele>
        <time>2026-01-25T09:45:26.000Z</time>
      </trkpt>
      <trkpt lat="43.46948" lon="6.4191">
        <ele>131.1</ele>
        <time>2026-01-25T09:45:38.000Z</time>
      </trkpt>
      <trkpt lat="43.46941" lon="6.4192">
        <ele>130.1</ele>
        <time>2026-01-25T09:45:48.000Z</time>
      </trkpt>
      <trkpt lat="43.46933" lon="6.41926">
        <ele>128.2</ele>
        <time>2026-01-25T09:46:07.000Z</time>
      </trkpt>
      <trkpt lat="43.46924" lon="6.41931">
        <ele>126.8</ele>
        <time>2026-01-25T09:46:18.000Z</time>
      </trkpt>
      <trkpt lat="43.46915" lon="6.41935">
        <ele>124.6</ele>
        <time>2026-01-25T09:46:33.000Z</time>
      </trkpt>
      <trkpt lat="43.46907" lon="6.41941">
        <ele>122.4</ele>
        <time>2026-01-25T09:46:47.000Z</time>
      </trkpt>
      <trkpt lat="43.469" lon="6.4195">
        <ele>120.1</ele>
        <time>2026-01-25T09:47:00.000Z</time>
      </trkpt>
      <trkpt lat="43.46898" lon="6.41955">
        <ele>118.1</ele>
        <time>2026-01-25T09:47:34.000Z</time>
      </trkpt>
      <trkpt lat="43.46897" lon="6.41957">
        <ele>117.9</ele>
        <time>2026-01-25T09:48:15.000Z</time>
      </trkpt>
      <trkpt lat="43.46896" lon="6.41956">
        <ele>117.9</ele>
        <time>2026-01-25T09:48:26.000Z</time>
      </trkpt>
      <trkpt lat="43.46895" lon="6.41958">
        <ele>117.9</ele>
        <time>2026-01-25T09:48:35.000Z</time>
      </trkpt>
      <trkpt lat="43.46891" lon="6.4197">
        <ele>117.8</ele>
        <time>2026-01-25T09:48:48.000Z</time>
      </trkpt>
      <trkpt lat="43.46884" lon="6.41978">
        <ele>117.8</ele>
        <time>2026-01-25T09:48:59.000Z</time>
      </trkpt>
      <trkpt lat="43.46874" lon="6.41981">
        <ele>117.9</ele>
        <time>2026-01-25T09:49:11.000Z</time>
      </trkpt>
      <trkpt lat="43.46865" lon="6.41985">
        <ele>118</ele>
        <time>2026-01-25T09:49:22.000Z</time>
      </trkpt>
      <trkpt lat="43.46857" lon="6.41991">
        <ele>118.2</ele>
        <time>2026-01-25T09:49:31.000Z</time>
      </trkpt>
      <trkpt lat="43.4685" lon="6.41999">
        <ele>118.6</ele>
        <time>2026-01-25T09:49:42.000Z</time>
      </trkpt>
      <trkpt lat="43.46842" lon="6.42006">
        <ele>118.8</ele>
        <time>2026-01-25T09:49:52.000Z</time>
      </trkpt>
      <trkpt lat="43.46835" lon="6.42014">
        <ele>119.2</ele>
        <time>2026-01-25T09:50:01.000Z</time>
      </trkpt>
      <trkpt lat="43.46827" lon="6.42021">
        <ele>119.7</ele>
        <time>2026-01-25T09:50:14.000Z</time>
      </trkpt>
      <trkpt lat="43.46819" lon="6.42028">
        <ele>119.9</ele>
        <time>2026-01-25T09:50:23.000Z</time>
      </trkpt>
      <trkpt lat="43.4681" lon="6.42034">
        <ele>120</ele>
        <time>2026-01-25T09:50:31.000Z</time>
      </trkpt>
      <trkpt lat="43.46802" lon="6.42042">
        <ele>120.1</ele>
        <time>2026-01-25T09:50:39.000Z</time>
      </trkpt>
      <trkpt lat="43.46794" lon="6.4205">
        <ele>120.2</ele>
        <time>2026-01-25T09:50:48.000Z</time>
      </trkpt>
      <trkpt lat="43.46785" lon="6.42053">
        <ele>120.5</ele>
        <time>2026-01-25T09:51:00.000Z</time>
      </trkpt>
      <trkpt lat="43.46776" lon="6.42059">
        <ele>120.8</ele>
        <time>2026-01-25T09:51:10.000Z</time>
      </trkpt>
      <trkpt lat="43.46771" lon="6.42069">
        <ele>121</ele>
        <time>2026-01-25T09:51:19.000Z</time>
      </trkpt>
      <trkpt lat="43.46767" lon="6.42081">
        <ele>121.3</ele>
        <time>2026-01-25T09:51:26.000Z</time>
      </trkpt>
      <trkpt lat="43.46765" lon="6.42094">
        <ele>121.8</ele>
        <time>2026-01-25T09:51:36.000Z</time>
      </trkpt>
      <trkpt lat="43.46763" lon="6.42106">
        <ele>122</ele>
        <time>2026-01-25T09:51:44.000Z</time>
      </trkpt>
      <trkpt lat="43.46762" lon="6.42119">
        <ele>122.3</ele>
        <time>2026-01-25T09:51:54.000Z</time>
      </trkpt>
      <trkpt lat="43.46761" lon="6.42132">
        <ele>122.7</ele>
        <time>2026-01-25T09:52:05.000Z</time>
      </trkpt>
      <trkpt lat="43.46753" lon="6.42139">
        <ele>123</ele>
        <time>2026-01-25T09:52:20.000Z</time>
      </trkpt>
      <trkpt lat="43.46744" lon="6.42137">
        <ele>123.3</ele>
        <time>2026-01-25T09:52:30.000Z</time>
      </trkpt>
      <trkpt lat="43.46735" lon="6.42131">
        <ele>123.7</ele>
        <time>2026-01-25T09:52:44.000Z</time>
      </trkpt>
      <trkpt lat="43.46728" lon="6.42123">
        <ele>124</ele>
        <time>2026-01-25T09:52:53.000Z</time>
      </trkpt>
      <trkpt lat="43.46721" lon="6.42114">
        <ele>124.2</ele>
        <time>2026-01-25T09:53:04.000Z</time>
      </trkpt>
      <trkpt lat="43.46713" lon="6.42108">
        <ele>124.4</ele>
        <time>2026-01-25T09:53:15.000Z</time>
      </trkpt>
      <trkpt lat="43.46707" lon="6.42098">
        <ele>124.6</ele>
        <time>2026-01-25T09:53:39.000Z</time>
      </trkpt>
      <trkpt lat="43.46699" lon="6.42093">
        <ele>124.6</ele>
        <time>2026-01-25T09:53:49.000Z</time>
      </trkpt>
      <trkpt lat="43.46692" lon="6.42084">
        <ele>124.7</ele>
        <time>2026-01-25T09:53:59.000Z</time>
      </trkpt>
      <trkpt lat="43.46685" lon="6.42075">
        <ele>125</ele>
        <time>2026-01-25T09:54:12.000Z</time>
      </trkpt>
      <trkpt lat="43.46676" lon="6.4207">
        <ele>125.2</ele>
        <time>2026-01-25T09:54:22.000Z</time>
      </trkpt>
      <trkpt lat="43.46668" lon="6.42066">
        <ele>125.7</ele>
        <time>2026-01-25T09:54:39.000Z</time>
      </trkpt>
      <trkpt lat="43.46659" lon="6.42064">
        <ele>125.8</ele>
        <time>2026-01-25T09:54:47.000Z</time>
      </trkpt>
      <trkpt lat="43.4665" lon="6.42061">
        <ele>126.1</ele>
        <time>2026-01-25T09:54:56.000Z</time>
      </trkpt>
      <trkpt lat="43.46641" lon="6.42061">
        <ele>126.3</ele>
        <time>2026-01-25T09:55:07.000Z</time>
      </trkpt>
      <trkpt lat="43.46631" lon="6.42064">
        <ele>126.6</ele>
        <time>2026-01-25T09:55:25.000Z</time>
      </trkpt>
      <trkpt lat="43.46621" lon="6.42064">
        <ele>126.7</ele>
        <time>2026-01-25T09:55:34.000Z</time>
      </trkpt>
      <trkpt lat="43.46611" lon="6.42064">
        <ele>126.8</ele>
        <time>2026-01-25T09:55:50.000Z</time>
      </trkpt>
      <trkpt lat="43.46602" lon="6.42067">
        <ele>126.6</ele>
        <time>2026-01-25T09:56:01.000Z</time>
      </trkpt>
      <trkpt lat="43.46593" lon="6.42069">
        <ele>125.8</ele>
        <time>2026-01-25T09:56:13.000Z</time>
      </trkpt>
      <trkpt lat="43.46584" lon="6.42066">
        <ele>124.6</ele>
        <time>2026-01-25T09:56:24.000Z</time>
      </trkpt>
      <trkpt lat="43.46585" lon="6.42062">
        <ele>121.3</ele>
        <time>2026-01-25T09:57:17.000Z</time>
      </trkpt>
      <trkpt lat="43.46588" lon="6.42061">
        <ele>121.3</ele>
        <time>2026-01-25T09:57:21.000Z</time>
      </trkpt>
      <trkpt lat="43.46597" lon="6.42064">
        <ele>121.9</ele>
        <time>2026-01-25T09:57:50.000Z</time>
      </trkpt>
      <trkpt lat="43.46597" lon="6.42064">
        <ele>121.8</ele>
        <time>2026-01-25T09:57:53.000Z</time>
      </trkpt>
      <trkpt lat="43.46591" lon="6.42062">
        <ele>121.4</ele>
        <time>2026-01-25T09:59:18.000Z</time>
      </trkpt>
      <trkpt lat="43.46589" lon="6.42061">
        <ele>121.5</ele>
        <time>2026-01-25T09:59:31.000Z</time>
      </trkpt>
      <trkpt lat="43.46584" lon="6.42063">
        <ele>122</ele>
        <time>2026-01-25T10:00:39.000Z</time>
      </trkpt>
      <trkpt lat="43.46576" lon="6.42068">
        <ele>121.9</ele>
        <time>2026-01-25T10:00:51.000Z</time>
      </trkpt>
      <trkpt lat="43.46567" lon="6.42074">
        <ele>122</ele>
        <time>2026-01-25T10:01:03.000Z</time>
      </trkpt>
      <trkpt lat="43.46572" lon="6.42077">
        <ele>122.5</ele>
        <time>2026-01-25T10:01:33.000Z</time>
      </trkpt>
      <trkpt lat="43.46571" lon="6.42079">
        <ele>122.8</ele>
        <time>2026-01-25T10:02:04.000Z</time>
      </trkpt>
      <trkpt lat="43.46562" lon="6.42083">
        <ele>123</ele>
        <time>2026-01-25T10:02:24.000Z</time>
      </trkpt>
      <trkpt lat="43.46556" lon="6.42093">
        <ele>123.2</ele>
        <time>2026-01-25T10:02:39.000Z</time>
      </trkpt>
      <trkpt lat="43.46548" lon="6.42101">
        <ele>124</ele>
        <time>2026-01-25T10:02:53.000Z</time>
      </trkpt>
      <trkpt lat="43.46541" lon="6.42111">
        <ele>125</ele>
        <time>2026-01-25T10:03:06.000Z</time>
      </trkpt>
      <trkpt lat="43.46535" lon="6.42121">
        <ele>125.9</ele>
        <time>2026-01-25T10:03:16.000Z</time>
      </trkpt>
      <trkpt lat="43.4653" lon="6.42132">
        <ele>126.6</ele>
        <time>2026-01-25T10:03:25.000Z</time>
      </trkpt>
      <trkpt lat="43.46525" lon="6.42142">
        <ele>127.2</ele>
        <time>2026-01-25T10:03:35.000Z</time>
      </trkpt>
      <trkpt lat="43.4652" lon="6.42153">
        <ele>128</ele>
        <time>2026-01-25T10:03:45.000Z</time>
      </trkpt>
      <trkpt lat="43.46518" lon="6.42165">
        <ele>128.7</ele>
        <time>2026-01-25T10:03:52.000Z</time>
      </trkpt>
      <trkpt lat="43.46517" lon="6.42178">
        <ele>129.5</ele>
        <time>2026-01-25T10:04:00.000Z</time>
      </trkpt>
      <trkpt lat="43.46518" lon="6.42192">
        <ele>130.4</ele>
        <time>2026-01-25T10:04:09.000Z</time>
      </trkpt>
      <trkpt lat="43.46516" lon="6.42206">
        <ele>130.8</ele>
        <time>2026-01-25T10:04:20.000Z</time>
      </trkpt>
      <trkpt lat="43.46516" lon="6.42219">
        <ele>131</ele>
        <time>2026-01-25T10:04:31.000Z</time>
      </trkpt>
      <trkpt lat="43.46513" lon="6.42231">
        <ele>131.1</ele>
        <time>2026-01-25T10:04:44.000Z</time>
      </trkpt>
      <trkpt lat="43.46507" lon="6.42241">
        <ele>131.3</ele>
        <time>2026-01-25T10:04:52.000Z</time>
      </trkpt>
      <trkpt lat="43.46502" lon="6.4225">
        <ele>131.8</ele>
        <time>2026-01-25T10:05:02.000Z</time>
      </trkpt>
      <trkpt lat="43.46496" lon="6.42261">
        <ele>132.3</ele>
        <time>2026-01-25T10:05:14.000Z</time>
      </trkpt>
      <trkpt lat="43.46493" lon="6.42274">
        <ele>132.4</ele>
        <time>2026-01-25T10:05:23.000Z</time>
      </trkpt>
      <trkpt lat="43.46494" lon="6.42288">
        <ele>132.8</ele>
        <time>2026-01-25T10:05:38.000Z</time>
      </trkpt>
      <trkpt lat="43.465" lon="6.42299">
        <ele>133.1</ele>
        <time>2026-01-25T10:06:15.000Z</time>
      </trkpt>
      <trkpt lat="43.46505" lon="6.42311">
        <ele>133.1</ele>
        <time>2026-01-25T10:06:24.000Z</time>
      </trkpt>
      <trkpt lat="43.4651" lon="6.42322">
        <ele>133.1</ele>
        <time>2026-01-25T10:06:33.000Z</time>
      </trkpt>
      <trkpt lat="43.46516" lon="6.42332">
        <ele>133.1</ele>
        <time>2026-01-25T10:06:44.000Z</time>
      </trkpt>
      <trkpt lat="43.46519" lon="6.42344">
        <ele>133.2</ele>
        <time>2026-01-25T10:06:53.000Z</time>
      </trkpt>
      <trkpt lat="43.46522" lon="6.42356">
        <ele>133.5</ele>
        <time>2026-01-25T10:07:02.000Z</time>
      </trkpt>
      <trkpt lat="43.46523" lon="6.4237">
        <ele>133.8</ele>
        <time>2026-01-25T10:07:12.000Z</time>
      </trkpt>
      <trkpt lat="43.46522" lon="6.42384">
        <ele>134.2</ele>
        <time>2026-01-25T10:07:22.000Z</time>
      </trkpt>
      <trkpt lat="43.46523" lon="6.42397">
        <ele>134.4</ele>
        <time>2026-01-25T10:07:31.000Z</time>
      </trkpt>
      <trkpt lat="43.46523" lon="6.42409">
        <ele>134.6</ele>
        <time>2026-01-25T10:07:40.000Z</time>
      </trkpt>
      <trkpt lat="43.46523" lon="6.42422">
        <ele>134.9</ele>
        <time>2026-01-25T10:07:50.000Z</time>
      </trkpt>
      <trkpt lat="43.46523" lon="6.42436">
        <ele>135.1</ele>
        <time>2026-01-25T10:08:00.000Z</time>
      </trkpt>
      <trkpt lat="43.46523" lon="6.42435">
        <ele>135.3</ele>
        <time>2026-01-25T10:08:16.000Z</time>
      </trkpt>
      <trkpt lat="43.46524" lon="6.42435">
        <ele>135.3</ele>
        <time>2026-01-25T10:08:21.000Z</time>
      </trkpt>
      <trkpt lat="43.46525" lon="6.42434">
        <ele>135.4</ele>
        <time>2026-01-25T10:08:34.000Z</time>
      </trkpt>
      <trkpt lat="43.46525" lon="6.42435">
        <ele>135.4</ele>
        <time>2026-01-25T10:08:44.000Z</time>
      </trkpt>
      <trkpt lat="43.46525" lon="6.42435">
        <ele>135.4</ele>
        <time>2026-01-25T10:08:53.000Z</time>
      </trkpt>
      <trkpt lat="43.46526" lon="6.42445">
        <ele>135.4</ele>
        <time>2026-01-25T10:09:22.000Z</time>
      </trkpt>
      <trkpt lat="43.46526" lon="6.42459">
        <ele>135.4</ele>
        <time>2026-01-25T10:09:31.000Z</time>
      </trkpt>
      <trkpt lat="43.46527" lon="6.42472">
        <ele>135.4</ele>
        <time>2026-01-25T10:09:40.000Z</time>
      </trkpt>
      <trkpt lat="43.46525" lon="6.42485">
        <ele>135.4</ele>
        <time>2026-01-25T10:09:48.000Z</time>
      </trkpt>
      <trkpt lat="43.46515" lon="6.42483">
        <ele>135.4</ele>
        <time>2026-01-25T10:10:00.000Z</time>
      </trkpt>
      <trkpt lat="43.4651" lon="6.42472">
        <ele>135.4</ele>
        <time>2026-01-25T10:10:09.000Z</time>
      </trkpt>
      <trkpt lat="43.46508" lon="6.42459">
        <ele>135.5</ele>
        <time>2026-01-25T10:10:17.000Z</time>
      </trkpt>
      <trkpt lat="43.46503" lon="6.42448">
        <ele>135.6</ele>
        <time>2026-01-25T10:10:25.000Z</time>
      </trkpt>
      <trkpt lat="43.46501" lon="6.42435">
        <ele>135.7</ele>
        <time>2026-01-25T10:10:35.000Z</time>
      </trkpt>
      <trkpt lat="43.46497" lon="6.42424">
        <ele>135.9</ele>
        <time>2026-01-25T10:10:43.000Z</time>
      </trkpt>
      <trkpt lat="43.46493" lon="6.42412">
        <ele>136</ele>
        <time>2026-01-25T10:10:52.000Z</time>
      </trkpt>
      <trkpt lat="43.46486" lon="6.42401">
        <ele>136.1</ele>
        <time>2026-01-25T10:11:01.000Z</time>
      </trkpt>
      <trkpt lat="43.46478" lon="6.42393">
        <ele>136.2</ele>
        <time>2026-01-25T10:11:10.000Z</time>
      </trkpt>
      <trkpt lat="43.46471" lon="6.42385">
        <ele>136.3</ele>
        <time>2026-01-25T10:11:19.000Z</time>
      </trkpt>
      <trkpt lat="43.46464" lon="6.42376">
        <ele>136.3</ele>
        <time>2026-01-25T10:11:28.000Z</time>
      </trkpt>
      <trkpt lat="43.46455" lon="6.42369">
        <ele>136.4</ele>
        <time>2026-01-25T10:11:36.000Z</time>
      </trkpt>
      <trkpt lat="43.46446" lon="6.42365">
        <ele>136.5</ele>
        <time>2026-01-25T10:11:44.000Z</time>
      </trkpt>
      <trkpt lat="43.46438" lon="6.42359">
        <ele>136.6</ele>
        <time>2026-01-25T10:11:52.000Z</time>
      </trkpt>
      <trkpt lat="43.4643" lon="6.42353">
        <ele>136.7</ele>
        <time>2026-01-25T10:12:00.000Z</time>
      </trkpt>
      <trkpt lat="43.46421" lon="6.42352">
        <ele>136.9</ele>
        <time>2026-01-25T10:12:14.000Z</time>
      </trkpt>
      <trkpt lat="43.46412" lon="6.42346">
        <ele>137</ele>
        <time>2026-01-25T10:12:27.000Z</time>
      </trkpt>
      <trkpt lat="43.46403" lon="6.42345">
        <ele>137.1</ele>
        <time>2026-01-25T10:12:37.000Z</time>
      </trkpt>
      <trkpt lat="43.46395" lon="6.4235">
        <ele>137.4</ele>
        <time>2026-01-25T10:12:51.000Z</time>
      </trkpt>
      <trkpt lat="43.46387" lon="6.42355">
        <ele>137.5</ele>
        <time>2026-01-25T10:12:59.000Z</time>
      </trkpt>
      <trkpt lat="43.46378" lon="6.4236">
        <ele>137.7</ele>
        <time>2026-01-25T10:13:08.000Z</time>
      </trkpt>
      <trkpt lat="43.46368" lon="6.42364">
        <ele>137.8</ele>
        <time>2026-01-25T10:13:17.000Z</time>
      </trkpt>
      <trkpt lat="43.46359" lon="6.42367">
        <ele>138</ele>
        <time>2026-01-25T10:13:25.000Z</time>
      </trkpt>
      <trkpt lat="43.46352" lon="6.42375">
        <ele>138.3</ele>
        <time>2026-01-25T10:13:33.000Z</time>
      </trkpt>
      <trkpt lat="43.46345" lon="6.42382">
        <ele>138.5</ele>
        <time>2026-01-25T10:13:41.000Z</time>
      </trkpt>
      <trkpt lat="43.46338" lon="6.42392">
        <ele>139</ele>
        <time>2026-01-25T10:13:58.000Z</time>
      </trkpt>
      <trkpt lat="43.4633" lon="6.424">
        <ele>139.3</ele>
        <time>2026-01-25T10:14:07.000Z</time>
      </trkpt>
      <trkpt lat="43.46323" lon="6.42407">
        <ele>139.8</ele>
        <time>2026-01-25T10:14:26.000Z</time>
      </trkpt>
      <trkpt lat="43.46316" lon="6.42418">
        <ele>139.9</ele>
        <time>2026-01-25T10:14:35.000Z</time>
      </trkpt>
      <trkpt lat="43.46309" lon="6.42427">
        <ele>140.2</ele>
        <time>2026-01-25T10:14:45.000Z</time>
      </trkpt>
      <trkpt lat="43.46302" lon="6.42436">
        <ele>140.4</ele>
        <time>2026-01-25T10:14:54.000Z</time>
      </trkpt>
      <trkpt lat="43.46295" lon="6.42444">
        <ele>140.7</ele>
        <time>2026-01-25T10:15:02.000Z</time>
      </trkpt>
      <trkpt lat="43.46289" lon="6.42455">
        <ele>140.9</ele>
        <time>2026-01-25T10:15:11.000Z</time>
      </trkpt>
      <trkpt lat="43.46284" lon="6.42466">
        <ele>141.2</ele>
        <time>2026-01-25T10:15:23.000Z</time>
      </trkpt>
      <trkpt lat="43.46278" lon="6.42474">
        <ele>141.4</ele>
        <time>2026-01-25T10:15:31.000Z</time>
      </trkpt>
      <trkpt lat="43.4627" lon="6.42481">
        <ele>141.6</ele>
        <time>2026-01-25T10:15:41.000Z</time>
      </trkpt>
      <trkpt lat="43.46264" lon="6.4249">
        <ele>141.8</ele>
        <time>2026-01-25T10:15:50.000Z</time>
      </trkpt>
      <trkpt lat="43.46257" lon="6.42497">
        <ele>142.1</ele>
        <time>2026-01-25T10:15:58.000Z</time>
      </trkpt>
      <trkpt lat="43.46251" lon="6.42508">
        <ele>142.4</ele>
        <time>2026-01-25T10:16:07.000Z</time>
      </trkpt>
      <trkpt lat="43.46249" lon="6.4252">
        <ele>142.7</ele>
        <time>2026-01-25T10:16:19.000Z</time>
      </trkpt>
      <trkpt lat="43.46245" lon="6.42532">
        <ele>142.9</ele>
        <time>2026-01-25T10:16:29.000Z</time>
      </trkpt>
      <trkpt lat="43.46241" lon="6.42543">
        <ele>143</ele>
        <time>2026-01-25T10:16:39.000Z</time>
      </trkpt>
      <trkpt lat="43.46239" lon="6.42548">
        <ele>143.6</ele>
        <time>2026-01-25T10:16:59.000Z</time>
      </trkpt>
      <trkpt lat="43.46238" lon="6.42554">
        <ele>143.8</ele>
        <time>2026-01-25T10:17:08.000Z</time>
      </trkpt>
      <trkpt lat="43.46235" lon="6.42566">
        <ele>144</ele>
        <time>2026-01-25T10:17:16.000Z</time>
      </trkpt>
      <trkpt lat="43.46231" lon="6.42577">
        <ele>144.2</ele>
        <time>2026-01-25T10:17:24.000Z</time>
      </trkpt>
      <trkpt lat="43.46228" lon="6.42589">
        <ele>144.4</ele>
        <time>2026-01-25T10:17:32.000Z</time>
      </trkpt>
      <trkpt lat="43.46229" lon="6.42603">
        <ele>144.6</ele>
        <time>2026-01-25T10:17:39.000Z</time>
      </trkpt>
      <trkpt lat="43.46229" lon="6.42616">
        <ele>145</ele>
        <time>2026-01-25T10:17:47.000Z</time>
      </trkpt>
      <trkpt lat="43.46227" lon="6.42629">
        <ele>145.4</ele>
        <time>2026-01-25T10:17:57.000Z</time>
      </trkpt>
      <trkpt lat="43.46225" lon="6.42641">
        <ele>145.7</ele>
        <time>2026-01-25T10:18:06.000Z</time>
      </trkpt>
      <trkpt lat="43.46224" lon="6.42654">
        <ele>146.1</ele>
        <time>2026-01-25T10:18:17.000Z</time>
      </trkpt>
      <trkpt lat="43.46219" lon="6.42665">
        <ele>146.7</ele>
        <time>2026-01-25T10:18:26.000Z</time>
      </trkpt>
      <trkpt lat="43.46217" lon="6.42678">
        <ele>147.1</ele>
        <time>2026-01-25T10:18:36.000Z</time>
      </trkpt>
      <trkpt lat="43.46214" lon="6.4269">
        <ele>147.4</ele>
        <time>2026-01-25T10:18:45.000Z</time>
      </trkpt>
      <trkpt lat="43.46212" lon="6.42703">
        <ele>147.6</ele>
        <time>2026-01-25T10:18:53.000Z</time>
      </trkpt>
      <trkpt lat="43.46209" lon="6.42716">
        <ele>147.9</ele>
        <time>2026-01-25T10:19:03.000Z</time>
      </trkpt>
      <trkpt lat="43.46205" lon="6.42727">
        <ele>148.3</ele>
        <time>2026-01-25T10:19:12.000Z</time>
      </trkpt>
      <trkpt lat="43.46202" lon="6.42739">
        <ele>148.6</ele>
        <time>2026-01-25T10:19:23.000Z</time>
      </trkpt>
      <trkpt lat="43.46204" lon="6.42751">
        <ele>148.9</ele>
        <time>2026-01-25T10:19:31.000Z</time>
      </trkpt>
      <trkpt lat="43.46204" lon="6.42764">
        <ele>149.2</ele>
        <time>2026-01-25T10:19:39.000Z</time>
      </trkpt>
      <trkpt lat="43.46202" lon="6.42777">
        <ele>149.4</ele>
        <time>2026-01-25T10:19:47.000Z</time>
      </trkpt>
      <trkpt lat="43.462" lon="6.42789">
        <ele>149.8</ele>
        <time>2026-01-25T10:19:57.000Z</time>
      </trkpt>
      <trkpt lat="43.46198" lon="6.42802">
        <ele>150.2</ele>
        <time>2026-01-25T10:20:06.000Z</time>
      </trkpt>
      <trkpt lat="43.46197" lon="6.42815">
        <ele>150.6</ele>
        <time>2026-01-25T10:20:15.000Z</time>
      </trkpt>
      <trkpt lat="43.46196" lon="6.42828">
        <ele>150.9</ele>
        <time>2026-01-25T10:20:25.000Z</time>
      </trkpt>
      <trkpt lat="43.46195" lon="6.42835">
        <ele>151.8</ele>
        <time>2026-01-25T10:20:59.000Z</time>
      </trkpt>
      <trkpt lat="43.46194" lon="6.42834">
        <ele>151.9</ele>
        <time>2026-01-25T10:21:09.000Z</time>
      </trkpt>
      <trkpt lat="43.46194" lon="6.42834">
        <ele>152.2</ele>
        <time>2026-01-25T10:21:45.000Z</time>
      </trkpt>
      <trkpt lat="43.46193" lon="6.42837">
        <ele>152.2</ele>
        <time>2026-01-25T10:21:52.000Z</time>
      </trkpt>
      <trkpt lat="43.46189" lon="6.42849">
        <ele>152.3</ele>
        <time>2026-01-25T10:22:12.000Z</time>
      </trkpt>
      <trkpt lat="43.46186" lon="6.42861">
        <ele>152.5</ele>
        <time>2026-01-25T10:22:22.000Z</time>
      </trkpt>
      <trkpt lat="43.46181" lon="6.42872">
        <ele>152.7</ele>
        <time>2026-01-25T10:22:32.000Z</time>
      </trkpt>
      <trkpt lat="43.46174" lon="6.42881">
        <ele>153.1</ele>
        <time>2026-01-25T10:22:42.000Z</time>
      </trkpt>
      <trkpt lat="43.46166" lon="6.42889">
        <ele>153.6</ele>
        <time>2026-01-25T10:22:59.000Z</time>
      </trkpt>
      <trkpt lat="43.4616" lon="6.42898">
        <ele>153.8</ele>
        <time>2026-01-25T10:23:21.000Z</time>
      </trkpt>
      <trkpt lat="43.46165" lon="6.42909">
        <ele>154.1</ele>
        <time>2026-01-25T10:23:32.000Z</time>
      </trkpt>
      <trkpt lat="43.46174" lon="6.42914">
        <ele>156.9</ele>
        <time>2026-01-25T10:23:59.000Z</time>
      </trkpt>
      <trkpt lat="43.46183" lon="6.42912">
        <ele>159.1</ele>
        <time>2026-01-25T10:24:19.000Z</time>
      </trkpt>
      <trkpt lat="43.46191" lon="6.42906">
        <ele>161.6</ele>
        <time>2026-01-25T10:24:38.000Z</time>
      </trkpt>
      <trkpt lat="43.46199" lon="6.42899">
        <ele>163.9</ele>
        <time>2026-01-25T10:25:01.000Z</time>
      </trkpt>
      <trkpt lat="43.46209" lon="6.42899">
        <ele>167.3</ele>
        <time>2026-01-25T10:25:43.000Z</time>
      </trkpt>
      <trkpt lat="43.46218" lon="6.42897">
        <ele>170.8</ele>
        <time>2026-01-25T10:26:09.000Z</time>
      </trkpt>
      <trkpt lat="43.46222" lon="6.42895">
        <ele>171.8</ele>
        <time>2026-01-25T10:26:30.000Z</time>
      </trkpt>
      <trkpt lat="43.46221" lon="6.42893">
        <ele>172.2</ele>
        <time>2026-01-25T10:26:37.000Z</time>
      </trkpt>
      <trkpt lat="43.46222" lon="6.42894">
        <ele>172.1</ele>
        <time>2026-01-25T10:26:49.000Z</time>
      </trkpt>
      <trkpt lat="43.46221" lon="6.42894">
        <ele>172.2</ele>
        <time>2026-01-25T10:27:04.000Z</time>
      </trkpt>
      <trkpt lat="43.46221" lon="6.42895">
        <ele>172.3</ele>
        <time>2026-01-25T10:27:32.000Z</time>
      </trkpt>
      <trkpt lat="43.4622" lon="6.42896">
        <ele>172.3</ele>
        <time>2026-01-25T10:28:01.000Z</time>
      </trkpt>
      <trkpt lat="43.4622" lon="6.42896">
        <ele>172.3</ele>
        <time>2026-01-25T10:28:19.000Z</time>
      </trkpt>
      <trkpt lat="43.46221" lon="6.42895">
        <ele>172.3</ele>
        <time>2026-01-25T10:28:22.000Z</time>
      </trkpt>
      <trkpt lat="43.4623" lon="6.42889">
        <ele>172.6</ele>
        <time>2026-01-25T10:28:37.000Z</time>
      </trkpt>
      <trkpt lat="43.46238" lon="6.42884">
        <ele>175</ele>
        <time>2026-01-25T10:28:54.000Z</time>
      </trkpt>
      <trkpt lat="43.46247" lon="6.4288">
        <ele>176.8</ele>
        <time>2026-01-25T10:29:06.000Z</time>
      </trkpt>
      <trkpt lat="43.46255" lon="6.42883">
        <ele>179.1</ele>
        <time>2026-01-25T10:29:19.000Z</time>
      </trkpt>
      <trkpt lat="43.46263" lon="6.42877">
        <ele>181.6</ele>
        <time>2026-01-25T10:29:35.000Z</time>
      </trkpt>
      <trkpt lat="43.46273" lon="6.42874">
        <ele>183.8</ele>
        <time>2026-01-25T10:29:51.000Z</time>
      </trkpt>
      <trkpt lat="43.4628" lon="6.42866">
        <ele>185.6</ele>
        <time>2026-01-25T10:30:06.000Z</time>
      </trkpt>
      <trkpt lat="43.46286" lon="6.42856">
        <ele>186.7</ele>
        <time>2026-01-25T10:30:16.000Z</time>
      </trkpt>
      <trkpt lat="43.46293" lon="6.42846">
        <ele>188.1</ele>
        <time>2026-01-25T10:30:27.000Z</time>
      </trkpt>
      <trkpt lat="43.46299" lon="6.42836">
        <ele>190.1</ele>
        <time>2026-01-25T10:30:52.000Z</time>
      </trkpt>
      <trkpt lat="43.46306" lon="6.42828">
        <ele>192.1</ele>
        <time>2026-01-25T10:31:10.000Z</time>
      </trkpt>
      <trkpt lat="43.46313" lon="6.42821">
        <ele>194</ele>
        <time>2026-01-25T10:31:25.000Z</time>
      </trkpt>
      <trkpt lat="43.46321" lon="6.42813">
        <ele>195.8</ele>
        <time>2026-01-25T10:31:40.000Z</time>
      </trkpt>
      <trkpt lat="43.46326" lon="6.42812">
        <ele>197.4</ele>
        <time>2026-01-25T10:32:02.000Z</time>
      </trkpt>
      <trkpt lat="43.46326" lon="6.42813">
        <ele>197.7</ele>
        <time>2026-01-25T10:32:09.000Z</time>
      </trkpt>
      <trkpt lat="43.46325" lon="6.42814">
        <ele>197.9</ele>
        <time>2026-01-25T10:32:20.000Z</time>
      </trkpt>
      <trkpt lat="43.46324" lon="6.42814">
        <ele>198</ele>
        <time>2026-01-25T10:33:07.000Z</time>
      </trkpt>
      <trkpt lat="43.46324" lon="6.42814">
        <ele>198</ele>
        <time>2026-01-25T10:33:18.000Z</time>
      </trkpt>
      <trkpt lat="43.46327" lon="6.42814">
        <ele>198.7</ele>
        <time>2026-01-25T10:35:36.000Z</time>
      </trkpt>
      <trkpt lat="43.46335" lon="6.42821">
        <ele>198.8</ele>
        <time>2026-01-25T10:35:51.000Z</time>
      </trkpt>
      <trkpt lat="43.4634" lon="6.42831">
        <ele>199</ele>
        <time>2026-01-25T10:36:04.000Z</time>
      </trkpt>
      <trkpt lat="43.46348" lon="6.42837">
        <ele>199.7</ele>
        <time>2026-01-25T10:36:17.000Z</time>
      </trkpt>
      <trkpt lat="43.46354" lon="6.42848">
        <ele>201.4</ele>
        <time>2026-01-25T10:36:29.000Z</time>
      </trkpt>
      <trkpt lat="43.4636" lon="6.42857">
        <ele>203.4</ele>
        <time>2026-01-25T10:36:42.000Z</time>
      </trkpt>
      <trkpt lat="43.46364" lon="6.42869">
        <ele>205</ele>
        <time>2026-01-25T10:36:56.000Z</time>
      </trkpt>
      <trkpt lat="43.46371" lon="6.42879">
        <ele>206.3</ele>
        <time>2026-01-25T10:37:17.000Z</time>
      </trkpt>
      <trkpt lat="43.46377" lon="6.42889">
        <ele>207.8</ele>
        <time>2026-01-25T10:37:33.000Z</time>
      </trkpt>
      <trkpt lat="43.46384" lon="6.42897">
        <ele>210.1</ele>
        <time>2026-01-25T10:37:48.000Z</time>
      </trkpt>
      <trkpt lat="43.46389" lon="6.42907">
        <ele>212.5</ele>
        <time>2026-01-25T10:38:07.000Z</time>
      </trkpt>
      <trkpt lat="43.46397" lon="6.42913">
        <ele>213.9</ele>
        <time>2026-01-25T10:38:30.000Z</time>
      </trkpt>
      <trkpt lat="43.46405" lon="6.42921">
        <ele>215.8</ele>
        <time>2026-01-25T10:38:44.000Z</time>
      </trkpt>
      <trkpt lat="43.46414" lon="6.42923">
        <ele>218.6</ele>
        <time>2026-01-25T10:39:22.000Z</time>
      </trkpt>
      <trkpt lat="43.46422" lon="6.42929">
        <ele>220.3</ele>
        <time>2026-01-25T10:39:35.000Z</time>
      </trkpt>
      <trkpt lat="43.46427" lon="6.42934">
        <ele>222.5</ele>
        <time>2026-01-25T10:40:11.000Z</time>
      </trkpt>
      <trkpt lat="43.46427" lon="6.42934">
        <ele>222.5</ele>
        <time>2026-01-25T10:40:13.000Z</time>
      </trkpt>
      <trkpt lat="43.46427" lon="6.42934">
        <ele>222.5</ele>
        <time>2026-01-25T10:40:27.000Z</time>
      </trkpt>
      <trkpt lat="43.46428" lon="6.42934">
        <ele>222.5</ele>
        <time>2026-01-25T10:40:34.000Z</time>
      </trkpt>
      <trkpt lat="43.4643" lon="6.42935">
        <ele>222.5</ele>
        <time>2026-01-25T10:41:08.000Z</time>
      </trkpt>
      <trkpt lat="43.46433" lon="6.42937">
        <ele>222.5</ele>
        <time>2026-01-25T10:41:19.000Z</time>
      </trkpt>
      <trkpt lat="43.46443" lon="6.42937">
        <ele>222.6</ele>
        <time>2026-01-25T10:41:35.000Z</time>
      </trkpt>
      <trkpt lat="43.46434" lon="6.4293">
        <ele>222.5</ele>
        <time>2026-01-25T10:42:02.000Z</time>
      </trkpt>
      <trkpt lat="43.46426" lon="6.42927">
        <ele>222.6</ele>
        <time>2026-01-25T10:42:44.000Z</time>
      </trkpt>
      <trkpt lat="43.46428" lon="6.42928">
        <ele>222.6</ele>
        <time>2026-01-25T10:42:53.000Z</time>
      </trkpt>
      <trkpt lat="43.46418" lon="6.42929">
        <ele>222.7</ele>
        <time>2026-01-25T10:43:11.000Z</time>
      </trkpt>
      <trkpt lat="43.46409" lon="6.4293">
        <ele>222.7</ele>
        <time>2026-01-25T10:43:21.000Z</time>
      </trkpt>
      <trkpt lat="43.46399" lon="6.4293">
        <ele>222.7</ele>
        <time>2026-01-25T10:43:29.000Z</time>
      </trkpt>
      <trkpt lat="43.4639" lon="6.42931">
        <ele>222.7</ele>
        <time>2026-01-25T10:43:39.000Z</time>
      </trkpt>
      <trkpt lat="43.4638" lon="6.42929">
        <ele>222.6</ele>
        <time>2026-01-25T10:43:48.000Z</time>
      </trkpt>
      <trkpt lat="43.46371" lon="6.42928">
        <ele>222.6</ele>
        <time>2026-01-25T10:43:55.000Z</time>
      </trkpt>
      <trkpt lat="43.46362" lon="6.42924">
        <ele>222.5</ele>
        <time>2026-01-25T10:44:05.000Z</time>
      </trkpt>
      <trkpt lat="43.46353" lon="6.4292">
        <ele>222.2</ele>
        <time>2026-01-25T10:44:15.000Z</time>
      </trkpt>
      <trkpt lat="43.46344" lon="6.4292">
        <ele>221.9</ele>
        <time>2026-01-25T10:44:26.000Z</time>
      </trkpt>
      <trkpt lat="43.46335" lon="6.42923">
        <ele>221.8</ele>
        <time>2026-01-25T10:44:34.000Z</time>
      </trkpt>
      <trkpt lat="43.46326" lon="6.42927">
        <ele>221.6</ele>
        <time>2026-01-25T10:44:42.000Z</time>
      </trkpt>
      <trkpt lat="43.46321" lon="6.42937">
        <ele>221.4</ele>
        <time>2026-01-25T10:44:50.000Z</time>
      </trkpt>
      <trkpt lat="43.46317" lon="6.42949">
        <ele>221.4</ele>
        <time>2026-01-25T10:45:00.000Z</time>
      </trkpt>
      <trkpt lat="43.46316" lon="6.42962">
        <ele>221.4</ele>
        <time>2026-01-25T10:45:09.000Z</time>
      </trkpt>
      <trkpt lat="43.46313" lon="6.42974">
        <ele>221.6</ele>
        <time>2026-01-25T10:45:20.000Z</time>
      </trkpt>
      <trkpt lat="43.4631" lon="6.42987">
        <ele>221.9</ele>
        <time>2026-01-25T10:45:30.000Z</time>
      </trkpt>
      <trkpt lat="43.46308" lon="6.43">
        <ele>222.6</ele>
        <time>2026-01-25T10:45:41.000Z</time>
      </trkpt>
      <trkpt lat="43.46307" lon="6.43013">
        <ele>223.1</ele>
        <time>2026-01-25T10:45:52.000Z</time>
      </trkpt>
      <trkpt lat="43.46305" lon="6.43026">
        <ele>223.8</ele>
        <time>2026-01-25T10:46:02.000Z</time>
      </trkpt>
      <trkpt lat="43.46301" lon="6.43038">
        <ele>224.4</ele>
        <time>2026-01-25T10:46:12.000Z</time>
      </trkpt>
      <trkpt lat="43.46297" lon="6.4305">
        <ele>224.6</ele>
        <time>2026-01-25T10:46:21.000Z</time>
      </trkpt>
      <trkpt lat="43.46293" lon="6.43062">
        <ele>224.7</ele>
        <time>2026-01-25T10:46:31.000Z</time>
      </trkpt>
      <trkpt lat="43.46288" lon="6.43073">
        <ele>224.8</ele>
        <time>2026-01-25T10:46:41.000Z</time>
      </trkpt>
      <trkpt lat="43.46283" lon="6.43083">
        <ele>224.7</ele>
        <time>2026-01-25T10:46:54.000Z</time>
      </trkpt>
      <trkpt lat="43.46278" lon="6.43094">
        <ele>224.3</ele>
        <time>2026-01-25T10:47:07.000Z</time>
      </trkpt>
      <trkpt lat="43.46274" lon="6.43107">
        <ele>223.9</ele>
        <time>2026-01-25T10:47:18.000Z</time>
      </trkpt>
      <trkpt lat="43.46267" lon="6.43114">
        <ele>223.3</ele>
        <time>2026-01-25T10:47:27.000Z</time>
      </trkpt>
      <trkpt lat="43.4626" lon="6.43124">
        <ele>222.9</ele>
        <time>2026-01-25T10:47:37.000Z</time>
      </trkpt>
      <trkpt lat="43.46255" lon="6.43135">
        <ele>222.8</ele>
        <time>2026-01-25T10:47:47.000Z</time>
      </trkpt>
      <trkpt lat="43.46247" lon="6.43142">
        <ele>222.7</ele>
        <time>2026-01-25T10:47:58.000Z</time>
      </trkpt>
      <trkpt lat="43.46238" lon="6.43148">
        <ele>222.7</ele>
        <time>2026-01-25T10:48:11.000Z</time>
      </trkpt>
      <trkpt lat="43.46231" lon="6.43154">
        <ele>222.9</ele>
        <time>2026-01-25T10:48:23.000Z</time>
      </trkpt>
      <trkpt lat="43.46221" lon="6.43156">
        <ele>223.6</ele>
        <time>2026-01-25T10:48:36.000Z</time>
      </trkpt>
      <trkpt lat="43.46212" lon="6.43157">
        <ele>224.2</ele>
        <time>2026-01-25T10:48:53.000Z</time>
      </trkpt>
      <trkpt lat="43.46203" lon="6.43163">
        <ele>224.5</ele>
        <time>2026-01-25T10:49:01.000Z</time>
      </trkpt>
      <trkpt lat="43.46203" lon="6.43176">
        <ele>225.4</ele>
        <time>2026-01-25T10:49:13.000Z</time>
      </trkpt>
      <trkpt lat="43.46201" lon="6.43189">
        <ele>227</ele>
        <time>2026-01-25T10:49:27.000Z</time>
      </trkpt>
      <trkpt lat="43.46203" lon="6.43202">
        <ele>228.8</ele>
        <time>2026-01-25T10:49:42.000Z</time>
      </trkpt>
      <trkpt lat="43.46209" lon="6.43211">
        <ele>229.4</ele>
        <time>2026-01-25T10:49:53.000Z</time>
      </trkpt>
      <trkpt lat="43.46215" lon="6.43209">
        <ele>229.9</ele>
        <time>2026-01-25T10:50:42.000Z</time>
      </trkpt>
      <trkpt lat="43.46215" lon="6.4321">
        <ele>230</ele>
        <time>2026-01-25T10:51:07.000Z</time>
      </trkpt>
      <trkpt lat="43.46224" lon="6.43211">
        <ele>230</ele>
        <time>2026-01-25T10:51:21.000Z</time>
      </trkpt>
      <trkpt lat="43.46217" lon="6.43219">
        <ele>230.2</ele>
        <time>2026-01-25T10:51:46.000Z</time>
      </trkpt>
      <trkpt lat="43.46224" lon="6.43226">
        <ele>230.6</ele>
        <time>2026-01-25T10:51:56.000Z</time>
      </trkpt>
      <trkpt lat="43.46233" lon="6.4323">
        <ele>231</ele>
        <time>2026-01-25T10:52:03.000Z</time>
      </trkpt>
      <trkpt lat="43.46242" lon="6.43233">
        <ele>231.4</ele>
        <time>2026-01-25T10:52:11.000Z</time>
      </trkpt>
      <trkpt lat="43.46252" lon="6.43237">
        <ele>231.7</ele>
        <time>2026-01-25T10:52:20.000Z</time>
      </trkpt>
      <trkpt lat="43.46244" lon="6.4323">
        <ele>231.8</ele>
        <time>2026-01-25T10:52:35.000Z</time>
      </trkpt>
      <trkpt lat="43.46234" lon="6.43225">
        <ele>231.8</ele>
        <time>2026-01-25T10:52:42.000Z</time>
      </trkpt>
      <trkpt lat="43.46224" lon="6.43223">
        <ele>231.8</ele>
        <time>2026-01-25T10:52:52.000Z</time>
      </trkpt>
      <trkpt lat="43.46214" lon="6.43221">
        <ele>231.8</ele>
        <time>2026-01-25T10:53:01.000Z</time>
      </trkpt>
      <trkpt lat="43.46205" lon="6.43218">
        <ele>231.7</ele>
        <time>2026-01-25T10:53:07.000Z</time>
      </trkpt>
      <trkpt lat="43.46196" lon="6.43216">
        <ele>231.6</ele>
        <time>2026-01-25T10:53:13.000Z</time>
      </trkpt>
      <trkpt lat="43.46187" lon="6.43215">
        <ele>231.2</ele>
        <time>2026-01-25T10:53:21.000Z</time>
      </trkpt>
      <trkpt lat="43.46177" lon="6.43215">
        <ele>230.3</ele>
        <time>2026-01-25T10:53:31.000Z</time>
      </trkpt>
      <trkpt lat="43.46168" lon="6.43214">
        <ele>229.5</ele>
        <time>2026-01-25T10:53:39.000Z</time>
      </trkpt>
      <trkpt lat="43.46158" lon="6.43215">
        <ele>227.6</ele>
        <time>2026-01-25T10:53:54.000Z</time>
      </trkpt>
      <trkpt lat="43.4615" lon="6.43219">
        <ele>226.7</ele>
        <time>2026-01-25T10:54:06.000Z</time>
      </trkpt>
      <trkpt lat="43.4614" lon="6.43218">
        <ele>225.1</ele>
        <time>2026-01-25T10:54:28.000Z</time>
      </trkpt>
      <trkpt lat="43.4613" lon="6.43215">
        <ele>224.7</ele>
        <time>2026-01-25T10:54:36.000Z</time>
      </trkpt>
      <trkpt lat="43.46121" lon="6.43213">
        <ele>224.3</ele>
        <time>2026-01-25T10:54:46.000Z</time>
      </trkpt>
      <trkpt lat="43.46112" lon="6.4321">
        <ele>223.4</ele>
        <time>2026-01-25T10:55:13.000Z</time>
      </trkpt>
      <trkpt lat="43.46104" lon="6.43202">
        <ele>223.2</ele>
        <time>2026-01-25T10:55:23.000Z</time>
      </trkpt>
      <trkpt lat="43.46096" lon="6.43196">
        <ele>222.9</ele>
        <time>2026-01-25T10:55:31.000Z</time>
      </trkpt>
      <trkpt lat="43.46087" lon="6.4319">
        <ele>222.5</ele>
        <time>2026-01-25T10:55:39.000Z</time>
      </trkpt>
      <trkpt lat="43.4608" lon="6.43183">
        <ele>221.8</ele>
        <time>2026-01-25T10:56:06.000Z</time>
      </trkpt>
      <trkpt lat="43.46073" lon="6.43175">
        <ele>221.8</ele>
        <time>2026-01-25T10:56:17.000Z</time>
      </trkpt>
      <trkpt lat="43.46065" lon="6.43166">
        <ele>221.7</ele>
        <time>2026-01-25T10:56:24.000Z</time>
      </trkpt>
      <trkpt lat="43.46059" lon="6.43157">
        <ele>221.7</ele>
        <time>2026-01-25T10:56:31.000Z</time>
      </trkpt>
      <trkpt lat="43.46051" lon="6.43149">
        <ele>221.6</ele>
        <time>2026-01-25T10:56:40.000Z</time>
      </trkpt>
      <trkpt lat="43.46041" lon="6.43145">
        <ele>221.5</ele>
        <time>2026-01-25T10:56:49.000Z</time>
      </trkpt>
      <trkpt lat="43.46032" lon="6.43143">
        <ele>221.1</ele>
        <time>2026-01-25T10:56:58.000Z</time>
      </trkpt>
      <trkpt lat="43.46023" lon="6.43141">
        <ele>220.7</ele>
        <time>2026-01-25T10:57:05.000Z</time>
      </trkpt>
      <trkpt lat="43.46013" lon="6.43142">
        <ele>220.2</ele>
        <time>2026-01-25T10:57:15.000Z</time>
      </trkpt>
      <trkpt lat="43.46004" lon="6.43138">
        <ele>219.1</ele>
        <time>2026-01-25T10:57:28.000Z</time>
      </trkpt>
      <trkpt lat="43.45995" lon="6.43136">
        <ele>218.6</ele>
        <time>2026-01-25T10:57:40.000Z</time>
      </trkpt>
      <trkpt lat="43.45987" lon="6.43127">
        <ele>218.3</ele>
        <time>2026-01-25T10:57:50.000Z</time>
      </trkpt>
      <trkpt lat="43.45979" lon="6.4312">
        <ele>218.2</ele>
        <time>2026-01-25T10:58:05.000Z</time>
      </trkpt>
      <trkpt lat="43.45978" lon="6.43118">
        <ele>218.5</ele>
        <time>2026-01-25T10:58:19.000Z</time>
      </trkpt>
      <trkpt lat="43.4598" lon="6.43117">
        <ele>218.8</ele>
        <time>2026-01-25T10:58:31.000Z</time>
      </trkpt>
      <trkpt lat="43.45971" lon="6.43114">
        <ele>219.8</ele>
        <time>2026-01-25T10:59:13.000Z</time>
      </trkpt>
      <trkpt lat="43.45968" lon="6.43126">
        <ele>220.5</ele>
        <time>2026-01-25T10:59:26.000Z</time>
      </trkpt>
      <trkpt lat="43.45969" lon="6.4314">
        <ele>221.4</ele>
        <time>2026-01-25T10:59:37.000Z</time>
      </trkpt>
      <trkpt lat="43.45965" lon="6.43151">
        <ele>222.6</ele>
        <time>2026-01-25T10:59:51.000Z</time>
      </trkpt>
      <trkpt lat="43.45966" lon="6.43164">
        <ele>224.1</ele>
        <time>2026-01-25T11:00:05.000Z</time>
      </trkpt>
      <trkpt lat="43.45966" lon="6.43178">
        <ele>225.4</ele>
        <time>2026-01-25T11:00:20.000Z</time>
      </trkpt>
      <trkpt lat="43.45967" lon="6.4319">
        <ele>227.9</ele>
        <time>2026-01-25T11:00:49.000Z</time>
      </trkpt>
      <trkpt lat="43.45968" lon="6.43203">
        <ele>229.4</ele>
        <time>2026-01-25T11:01:04.000Z</time>
      </trkpt>
      <trkpt lat="43.4597" lon="6.43215">
        <ele>231.6</ele>
        <time>2026-01-25T11:01:23.000Z</time>
      </trkpt>
      <trkpt lat="43.45972" lon="6.43227">
        <ele>233</ele>
        <time>2026-01-25T11:01:37.000Z</time>
      </trkpt>
      <trkpt lat="43.45972" lon="6.4324">
        <ele>234.8</ele>
        <time>2026-01-25T11:01:53.000Z</time>
      </trkpt>
      <trkpt lat="43.45973" lon="6.43253">
        <ele>236.6</ele>
        <time>2026-01-25T11:02:10.000Z</time>
      </trkpt>
      <trkpt lat="43.45977" lon="6.43265">
        <ele>238.4</ele>
        <time>2026-01-25T11:02:44.000Z</time>
      </trkpt>
      <trkpt lat="43.45983" lon="6.43275">
        <ele>240.1</ele>
        <time>2026-01-25T11:03:03.000Z</time>
      </trkpt>
      <trkpt lat="43.45985" lon="6.43287">
        <ele>242.1</ele>
        <time>2026-01-25T11:03:27.000Z</time>
      </trkpt>
      <trkpt lat="43.45988" lon="6.43287">
        <ele>242.9</ele>
        <time>2026-01-25T11:03:43.000Z</time>
      </trkpt>
      <trkpt lat="43.45989" lon="6.43288">
        <ele>243.1</ele>
        <time>2026-01-25T11:03:59.000Z</time>
      </trkpt>
      <trkpt lat="43.4599" lon="6.43286">
        <ele>243.1</ele>
        <time>2026-01-25T11:04:24.000Z</time>
      </trkpt>
      <trkpt lat="43.45989" lon="6.43287">
        <ele>243</ele>
        <time>2026-01-25T11:04:28.000Z</time>
      </trkpt>
      <trkpt lat="43.45987" lon="6.43299">
        <ele>243.2</ele>
        <time>2026-01-25T11:04:42.000Z</time>
      </trkpt>
      <trkpt lat="43.45994" lon="6.43307">
        <ele>244.2</ele>
        <time>2026-01-25T11:04:55.000Z</time>
      </trkpt>
      <trkpt lat="43.46" lon="6.43316">
        <ele>246.1</ele>
        <time>2026-01-25T11:05:09.000Z</time>
      </trkpt>
      <trkpt lat="43.45996" lon="6.43325">
        <ele>249.4</ele>
        <time>2026-01-25T11:05:53.000Z</time>
      </trkpt>
      <trkpt lat="43.45995" lon="6.43324">
        <ele>249.4</ele>
        <time>2026-01-25T11:06:05.000Z</time>
      </trkpt>
      <trkpt lat="43.45986" lon="6.43326">
        <ele>249.3</ele>
        <time>2026-01-25T11:06:26.000Z</time>
      </trkpt>
      <trkpt lat="43.45984" lon="6.4333">
        <ele>248.7</ele>
        <time>2026-01-25T11:06:51.000Z</time>
      </trkpt>
      <trkpt lat="43.45982" lon="6.43329">
        <ele>248.6</ele>
        <time>2026-01-25T11:07:03.000Z</time>
      </trkpt>
      <trkpt lat="43.45982" lon="6.43329">
        <ele>248.6</ele>
        <time>2026-01-25T11:07:14.000Z</time>
      </trkpt>
      <trkpt lat="43.45982" lon="6.43329">
        <ele>248.4</ele>
        <time>2026-01-25T11:07:36.000Z</time>
      </trkpt>
      <trkpt lat="43.45981" lon="6.4333">
        <ele>248.2</ele>
        <time>2026-01-25T11:08:01.000Z</time>
      </trkpt>
      <trkpt lat="43.45985" lon="6.43333">
        <ele>247.9</ele>
        <time>2026-01-25T11:09:09.000Z</time>
      </trkpt>
      <trkpt lat="43.45984" lon="6.43334">
        <ele>247.9</ele>
        <time>2026-01-25T11:09:13.000Z</time>
      </trkpt>
      <trkpt lat="43.45983" lon="6.43333">
        <ele>248.1</ele>
        <time>2026-01-25T11:10:02.000Z</time>
      </trkpt>
      <trkpt lat="43.45977" lon="6.43342">
        <ele>247.8</ele>
        <time>2026-01-25T11:10:14.000Z</time>
      </trkpt>
      <trkpt lat="43.45972" lon="6.43354">
        <ele>247.8</ele>
        <time>2026-01-25T11:10:24.000Z</time>
      </trkpt>
      <trkpt lat="43.45968" lon="6.43366">
        <ele>247.8</ele>
        <time>2026-01-25T11:10:33.000Z</time>
      </trkpt>
      <trkpt lat="43.45969" lon="6.43379">
        <ele>247.8</ele>
        <time>2026-01-25T11:10:42.000Z</time>
      </trkpt>
      <trkpt lat="43.45971" lon="6.43392">
        <ele>248</ele>
        <time>2026-01-25T11:10:51.000Z</time>
      </trkpt>
      <trkpt lat="43.45968" lon="6.43405">
        <ele>248.3</ele>
        <time>2026-01-25T11:11:01.000Z</time>
      </trkpt>
      <trkpt lat="43.45969" lon="6.43419">
        <ele>248.5</ele>
        <time>2026-01-25T11:11:09.000Z</time>
      </trkpt>
      <trkpt lat="43.45968" lon="6.43432">
        <ele>248.9</ele>
        <time>2026-01-25T11:11:19.000Z</time>
      </trkpt>
      <trkpt lat="43.45967" lon="6.43444">
        <ele>249</ele>
        <time>2026-01-25T11:11:27.000Z</time>
      </trkpt>
      <trkpt lat="43.45967" lon="6.43457">
        <ele>249.1</ele>
        <time>2026-01-25T11:11:35.000Z</time>
      </trkpt>
      <trkpt lat="43.4597" lon="6.4347">
        <ele>249</ele>
        <time>2026-01-25T11:11:43.000Z</time>
      </trkpt>
      <trkpt lat="43.45967" lon="6.43482">
        <ele>248.8</ele>
        <time>2026-01-25T11:11:57.000Z</time>
      </trkpt>
      <trkpt lat="43.4596" lon="6.4349">
        <ele>248.6</ele>
        <time>2026-01-25T11:12:07.000Z</time>
      </trkpt>
      <trkpt lat="43.45953" lon="6.43498">
        <ele>248.2</ele>
        <time>2026-01-25T11:12:27.000Z</time>
      </trkpt>
      <trkpt lat="43.45945" lon="6.43506">
        <ele>248</ele>
        <time>2026-01-25T11:12:35.000Z</time>
      </trkpt>
      <trkpt lat="43.45936" lon="6.43511">
        <ele>247.7</ele>
        <time>2026-01-25T11:12:42.000Z</time>
      </trkpt>
      <trkpt lat="43.45929" lon="6.4352">
        <ele>247.3</ele>
        <time>2026-01-25T11:12:51.000Z</time>
      </trkpt>
      <trkpt lat="43.45921" lon="6.43528">
        <ele>246.9</ele>
        <time>2026-01-25T11:12:59.000Z</time>
      </trkpt>
      <trkpt lat="43.45916" lon="6.43539">
        <ele>246.6</ele>
        <time>2026-01-25T11:13:08.000Z</time>
      </trkpt>
      <trkpt lat="43.45909" lon="6.43547">
        <ele>246.3</ele>
        <time>2026-01-25T11:13:18.000Z</time>
      </trkpt>
      <trkpt lat="43.45901" lon="6.43553">
        <ele>246.2</ele>
        <time>2026-01-25T11:13:26.000Z</time>
      </trkpt>
      <trkpt lat="43.45892" lon="6.43559">
        <ele>246.1</ele>
        <time>2026-01-25T11:13:34.000Z</time>
      </trkpt>
      <trkpt lat="43.45884" lon="6.43567">
        <ele>246.2</ele>
        <time>2026-01-25T11:13:44.000Z</time>
      </trkpt>
      <trkpt lat="43.45877" lon="6.43577">
        <ele>246.2</ele>
        <time>2026-01-25T11:13:54.000Z</time>
      </trkpt>
      <trkpt lat="43.45869" lon="6.43583">
        <ele>246.3</ele>
        <time>2026-01-25T11:14:03.000Z</time>
      </trkpt>
      <trkpt lat="43.45861" lon="6.43591">
        <ele>246.5</ele>
        <time>2026-01-25T11:14:14.000Z</time>
      </trkpt>
      <trkpt lat="43.45853" lon="6.43598">
        <ele>246.8</ele>
        <time>2026-01-25T11:14:25.000Z</time>
      </trkpt>
      <trkpt lat="43.45845" lon="6.43606">
        <ele>247.4</ele>
        <time>2026-01-25T11:14:35.000Z</time>
      </trkpt>
      <trkpt lat="43.45837" lon="6.43613">
        <ele>248.1</ele>
        <time>2026-01-25T11:14:45.000Z</time>
      </trkpt>
      <trkpt lat="43.4583" lon="6.43621">
        <ele>249.4</ele>
        <time>2026-01-25T11:14:57.000Z</time>
      </trkpt>
      <trkpt lat="43.45822" lon="6.43628">
        <ele>250.3</ele>
        <time>2026-01-25T11:15:09.000Z</time>
      </trkpt>
      <trkpt lat="43.45814" lon="6.43635">
        <ele>251</ele>
        <time>2026-01-25T11:15:20.000Z</time>
      </trkpt>
      <trkpt lat="43.45806" lon="6.43642">
        <ele>252.3</ele>
        <time>2026-01-25T11:15:31.000Z</time>
      </trkpt>
      <trkpt lat="43.45797" lon="6.43648">
        <ele>253.3</ele>
        <time>2026-01-25T11:15:43.000Z</time>
      </trkpt>
      <trkpt lat="43.4579" lon="6.43655">
        <ele>254.2</ele>
        <time>2026-01-25T11:15:55.000Z</time>
      </trkpt>
      <trkpt lat="43.45781" lon="6.4366">
        <ele>255.5</ele>
        <time>2026-01-25T11:16:07.000Z</time>
      </trkpt>
      <trkpt lat="43.45775" lon="6.43667">
        <ele>256.7</ele>
        <time>2026-01-25T11:17:22.000Z</time>
      </trkpt>
      <trkpt lat="43.45772" lon="6.43667">
        <ele>256.6</ele>
        <time>2026-01-25T11:17:47.000Z</time>
      </trkpt>
      <trkpt lat="43.45764" lon="6.4367">
        <ele>256.6</ele>
        <time>2026-01-25T11:17:59.000Z</time>
      </trkpt>
      <trkpt lat="43.45754" lon="6.43669">
        <ele>256.6</ele>
        <time>2026-01-25T11:18:10.000Z</time>
      </trkpt>
      <trkpt lat="43.45744" lon="6.43666">
        <ele>256.5</ele>
        <time>2026-01-25T11:18:20.000Z</time>
      </trkpt>
      <trkpt lat="43.45735" lon="6.43663">
        <ele>256.2</ele>
        <time>2026-01-25T11:18:29.000Z</time>
      </trkpt>
      <trkpt lat="43.45726" lon="6.43661">
        <ele>255.7</ele>
        <time>2026-01-25T11:18:39.000Z</time>
      </trkpt>
      <trkpt lat="43.45716" lon="6.43657">
        <ele>254.9</ele>
        <time>2026-01-25T11:18:48.000Z</time>
      </trkpt>
      <trkpt lat="43.45707" lon="6.43654">
        <ele>254</ele>
        <time>2026-01-25T11:18:57.000Z</time>
      </trkpt>
      <trkpt lat="43.45697" lon="6.43655">
        <ele>253.2</ele>
        <time>2026-01-25T11:19:04.000Z</time>
      </trkpt>
      <trkpt lat="43.45688" lon="6.43655">
        <ele>252.4</ele>
        <time>2026-01-25T11:19:12.000Z</time>
      </trkpt>
      <trkpt lat="43.45679" lon="6.43654">
        <ele>251.8</ele>
        <time>2026-01-25T11:19:22.000Z</time>
      </trkpt>
      <trkpt lat="43.4567" lon="6.43655">
        <ele>251.5</ele>
        <time>2026-01-25T11:19:31.000Z</time>
      </trkpt>
      <trkpt lat="43.4566" lon="6.43655">
        <ele>251.3</ele>
        <time>2026-01-25T11:19:40.000Z</time>
      </trkpt>
      <trkpt lat="43.45651" lon="6.43658">
        <ele>250.8</ele>
        <time>2026-01-25T11:20:07.000Z</time>
      </trkpt>
      <trkpt lat="43.45649" lon="6.4367">
        <ele>250.1</ele>
        <time>2026-01-25T11:20:32.000Z</time>
      </trkpt>
      <trkpt lat="43.4564" lon="6.43672">
        <ele>249.3</ele>
        <time>2026-01-25T11:20:53.000Z</time>
      </trkpt>
      <trkpt lat="43.45634" lon="6.43681">
        <ele>248.9</ele>
        <time>2026-01-25T11:21:20.000Z</time>
      </trkpt>
      <trkpt lat="43.45628" lon="6.43671">
        <ele>248.9</ele>
        <time>2026-01-25T11:22:12.000Z</time>
      </trkpt>
      <trkpt lat="43.45619" lon="6.43674">
        <ele>249.1</ele>
        <time>2026-01-25T11:22:40.000Z</time>
      </trkpt>
      <trkpt lat="43.4561" lon="6.4368">
        <ele>249.1</ele>
        <time>2026-01-25T11:23:05.000Z</time>
      </trkpt>
      <trkpt lat="43.45601" lon="6.43683">
        <ele>249.1</ele>
        <time>2026-01-25T11:23:14.000Z</time>
      </trkpt>
      <trkpt lat="43.45592" lon="6.43689">
        <ele>249.1</ele>
        <time>2026-01-25T11:23:26.000Z</time>
      </trkpt>
      <trkpt lat="43.45583" lon="6.43691">
        <ele>249.5</ele>
        <time>2026-01-25T11:24:16.000Z</time>
      </trkpt>
      <trkpt lat="43.45583" lon="6.43693">
        <ele>249.9</ele>
        <time>2026-01-25T11:24:50.000Z</time>
      </trkpt>
      <trkpt lat="43.45583" lon="6.43695">
        <ele>249.1</ele>
        <time>2026-01-25T11:27:29.000Z</time>
      </trkpt>
      <trkpt lat="43.45574" lon="6.43696">
        <ele>249</ele>
        <time>2026-01-25T11:28:10.000Z</time>
      </trkpt>
      <trkpt lat="43.45564" lon="6.43697">
        <ele>249.3</ele>
        <time>2026-01-25T11:28:22.000Z</time>
      </trkpt>
      <trkpt lat="43.45555" lon="6.43693">
        <ele>250.1</ele>
        <time>2026-01-25T11:28:36.000Z</time>
      </trkpt>
      <trkpt lat="43.45546" lon="6.43688">
        <ele>250.6</ele>
        <time>2026-01-25T11:28:47.000Z</time>
      </trkpt>
      <trkpt lat="43.45538" lon="6.43682">
        <ele>250.9</ele>
        <time>2026-01-25T11:28:59.000Z</time>
      </trkpt>
      <trkpt lat="43.45541" lon="6.4367">
        <ele>250.4</ele>
        <time>2026-01-25T11:29:29.000Z</time>
      </trkpt>
      <trkpt lat="43.4555" lon="6.43668">
        <ele>250</ele>
        <time>2026-01-25T11:29:39.000Z</time>
      </trkpt>
      <trkpt lat="43.45558" lon="6.43673">
        <ele>249.6</ele>
        <time>2026-01-25T11:29:50.000Z</time>
      </trkpt>
      <trkpt lat="43.45564" lon="6.43683">
        <ele>249.3</ele>
        <time>2026-01-25T11:30:05.000Z</time>
      </trkpt>
      <trkpt lat="43.45567" lon="6.43685">
        <ele>249</ele>
        <time>2026-01-25T11:30:26.000Z</time>
      </trkpt>
      <trkpt lat="43.45566" lon="6.43684">
        <ele>248.7</ele>
        <time>2026-01-25T11:30:41.000Z</time>
      </trkpt>
      <trkpt lat="43.45567" lon="6.43683">
        <ele>248.5</ele>
        <time>2026-01-25T11:31:08.000Z</time>
      </trkpt>
      <trkpt lat="43.45567" lon="6.43683">
        <ele>248.2</ele>
        <time>2026-01-25T11:31:18.000Z</time>
      </trkpt>
      <trkpt lat="43.45567" lon="6.43683">
        <ele>248</ele>
        <time>2026-01-25T11:31:30.000Z</time>
      </trkpt>
      <trkpt lat="43.45566" lon="6.43681">
        <ele>247.5</ele>
        <time>2026-01-25T11:32:25.000Z</time>
      </trkpt>
      <trkpt lat="43.45566" lon="6.43681">
        <ele>247.6</ele>
        <time>2026-01-25T11:32:36.000Z</time>
      </trkpt>
      <trkpt lat="43.45566" lon="6.4368">
        <ele>247.6</ele>
        <time>2026-01-25T11:33:00.000Z</time>
      </trkpt>
      <trkpt lat="43.45566" lon="6.4368">
        <ele>247.7</ele>
        <time>2026-01-25T11:33:11.000Z</time>
      </trkpt>
      <trkpt lat="43.45567" lon="6.43681">
        <ele>247.8</ele>
        <time>2026-01-25T11:35:37.000Z</time>
      </trkpt>
      <trkpt lat="43.45567" lon="6.43681">
        <ele>247.8</ele>
        <time>2026-01-25T11:35:48.000Z</time>
      </trkpt>
      <trkpt lat="43.45567" lon="6.43682">
        <ele>247.8</ele>
        <time>2026-01-25T11:36:06.000Z</time>
      </trkpt>
      <trkpt lat="43.45567" lon="6.43681">
        <ele>247.7</ele>
        <time>2026-01-25T11:36:24.000Z</time>
      </trkpt>
      <trkpt lat="43.45568" lon="6.4368">
        <ele>246.9</ele>
        <time>2026-01-25T11:46:59.000Z</time>
      </trkpt>
      <trkpt lat="43.45568" lon="6.4368">
        <ele>246.8</ele>
        <time>2026-01-25T11:47:11.000Z</time>
      </trkpt>
      <trkpt lat="43.45566" lon="6.4368">
        <ele>246.8</ele>
        <time>2026-01-25T11:47:32.000Z</time>
      </trkpt>
      <trkpt lat="43.45567" lon="6.43681">
        <ele>247</ele>
        <time>2026-01-25T11:48:43.000Z</time>
      </trkpt>
      <trkpt lat="43.45567" lon="6.43681">
        <ele>246.7</ele>
        <time>2026-01-25T11:48:57.000Z</time>
      </trkpt>
      <trkpt lat="43.45567" lon="6.43681">
        <ele>247.2</ele>
        <time>2026-01-25T11:49:08.000Z</time>
      </trkpt>
      <trkpt lat="43.45567" lon="6.43681">
        <ele>247.4</ele>
        <time>2026-01-25T11:49:10.000Z</time>
      </trkpt>
      <trkpt lat="43.45567" lon="6.4368">
        <ele>247.2</ele>
        <time>2026-01-25T11:49:21.000Z</time>
      </trkpt>
      <trkpt lat="43.45567" lon="6.4368">
        <ele>247.2</ele>
        <time>2026-01-25T11:50:06.000Z</time>
      </trkpt>
      <trkpt lat="43.45567" lon="6.4368">
        <ele>247.2</ele>
        <time>2026-01-25T11:50:14.000Z</time>
      </trkpt>
      <trkpt lat="43.45567" lon="6.4368">
        <ele>247.2</ele>
        <time>2026-01-25T11:50:19.000Z</time>
      </trkpt>
      <trkpt lat="43.45567" lon="6.4368">
        <ele>247.2</ele>
        <time>2026-01-25T11:50:33.000Z</time>
      </trkpt>
      <trkpt lat="43.45567" lon="6.4368">
        <ele>248.6</ele>
        <time>2026-01-25T11:55:34.000Z</time>
      </trkpt>
      <trkpt lat="43.45567" lon="6.4368">
        <ele>248.7</ele>
        <time>2026-01-25T11:55:45.000Z</time>
      </trkpt>
      <trkpt lat="43.45567" lon="6.4368">
        <ele>249</ele>
        <time>2026-01-25T11:56:29.000Z</time>
      </trkpt>
      <trkpt lat="43.45567" lon="6.4368">
        <ele>249</ele>
        <time>2026-01-25T11:56:41.000Z</time>
      </trkpt>
      <trkpt lat="43.45567" lon="6.4368">
        <ele>248.9</ele>
        <time>2026-01-25T11:58:02.000Z</time>
      </trkpt>
      <trkpt lat="43.45567" lon="6.4368">
        <ele>249.3</ele>
        <time>2026-01-25T11:58:13.000Z</time>
      </trkpt>
      <trkpt lat="43.45567" lon="6.4368">
        <ele>248.9</ele>
        <time>2026-01-25T11:58:47.000Z</time>
      </trkpt>
      <trkpt lat="43.45567" lon="6.4368">
        <ele>248.7</ele>
        <time>2026-01-25T11:58:58.000Z</time>
      </trkpt>
      <trkpt lat="43.45567" lon="6.4368">
        <ele>250.2</ele>
        <time>2026-01-25T11:59:22.000Z</time>
      </trkpt>
      <trkpt lat="43.45567" lon="6.4368">
        <ele>248.8</ele>
        <time>2026-01-25T11:59:33.000Z</time>
      </trkpt>
      <trkpt lat="43.45566" lon="6.43687">
        <ele>250.7</ele>
        <time>2026-01-25T12:03:16.000Z</time>
      </trkpt>
      <trkpt lat="43.45558" lon="6.43679">
        <ele>250.2</ele>
        <time>2026-01-25T12:03:58.000Z</time>
      </trkpt>
      <trkpt lat="43.45566" lon="6.43686">
        <ele>250.5</ele>
        <time>2026-01-25T12:05:46.000Z</time>
      </trkpt>
      <trkpt lat="43.45567" lon="6.43683">
        <ele>250.2</ele>
        <time>2026-01-25T12:06:07.000Z</time>
      </trkpt>
      <trkpt lat="43.45558" lon="6.43683">
        <ele>251.2</ele>
        <time>2026-01-25T12:13:08.000Z</time>
      </trkpt>
      <trkpt lat="43.45567" lon="6.4368">
        <ele>251.2</ele>
        <time>2026-01-25T12:14:28.000Z</time>
      </trkpt>
      <trkpt lat="43.45568" lon="6.43681">
        <ele>251.2</ele>
        <time>2026-01-25T12:14:37.000Z</time>
      </trkpt>
      <trkpt lat="43.45568" lon="6.4368">
        <ele>251.2</ele>
        <time>2026-01-25T12:14:46.000Z</time>
      </trkpt>
      <trkpt lat="43.45568" lon="6.4368">
        <ele>251.2</ele>
        <time>2026-01-25T12:15:36.000Z</time>
      </trkpt>
      <trkpt lat="43.45566" lon="6.4368">
        <ele>251.2</ele>
        <time>2026-01-25T12:15:46.000Z</time>
      </trkpt>
      <trkpt lat="43.45566" lon="6.43679">
        <ele>251.2</ele>
        <time>2026-01-25T12:16:54.000Z</time>
      </trkpt>
      <trkpt lat="43.45568" lon="6.4368">
        <ele>251.2</ele>
        <time>2026-01-25T12:17:06.000Z</time>
      </trkpt>
      <trkpt lat="43.45568" lon="6.4368">
        <ele>251.5</ele>
        <time>2026-01-25T12:19:02.000Z</time>
      </trkpt>
      <trkpt lat="43.45568" lon="6.43681">
        <ele>251.4</ele>
        <time>2026-01-25T12:19:21.000Z</time>
      </trkpt>
      <trkpt lat="43.45567" lon="6.43682">
        <ele>251.5</ele>
        <time>2026-01-25T12:19:49.000Z</time>
      </trkpt>
      <trkpt lat="43.45569" lon="6.43678">
        <ele>251.5</ele>
        <time>2026-01-25T12:20:19.000Z</time>
      </trkpt>
      <trkpt lat="43.45568" lon="6.43678">
        <ele>251.5</ele>
        <time>2026-01-25T12:21:27.000Z</time>
      </trkpt>
      <trkpt lat="43.45567" lon="6.43678">
        <ele>251.6</ele>
        <time>2026-01-25T12:21:39.000Z</time>
      </trkpt>
      <trkpt lat="43.45566" lon="6.43678">
        <ele>251.6</ele>
        <time>2026-01-25T12:22:28.000Z</time>
      </trkpt>
      <trkpt lat="43.45568" lon="6.43682">
        <ele>251.6</ele>
        <time>2026-01-25T12:22:43.000Z</time>
      </trkpt>
      <trkpt lat="43.45568" lon="6.43682">
        <ele>251.9</ele>
        <time>2026-01-25T12:25:27.000Z</time>
      </trkpt>
      <trkpt lat="43.45569" lon="6.43683">
        <ele>252.2</ele>
        <time>2026-01-25T12:25:38.000Z</time>
      </trkpt>
      <trkpt lat="43.45569" lon="6.43683">
        <ele>252.3</ele>
        <time>2026-01-25T12:25:58.000Z</time>
      </trkpt>
      <trkpt lat="43.45569" lon="6.43683">
        <ele>252.5</ele>
        <time>2026-01-25T12:26:31.000Z</time>
      </trkpt>
      <trkpt lat="43.45568" lon="6.43682">
        <ele>252.5</ele>
        <time>2026-01-25T12:26:38.000Z</time>
      </trkpt>
      <trkpt lat="43.45563" lon="6.43672">
        <ele>252.8</ele>
        <time>2026-01-25T12:26:57.000Z</time>
      </trkpt>
      <trkpt lat="43.45554" lon="6.43669">
        <ele>252.8</ele>
        <time>2026-01-25T12:27:15.000Z</time>
      </trkpt>
      <trkpt lat="43.45545" lon="6.43666">
        <ele>252.8</ele>
        <time>2026-01-25T12:27:26.000Z</time>
      </trkpt>
      <trkpt lat="43.45537" lon="6.43672">
        <ele>253</ele>
        <time>2026-01-25T12:27:51.000Z</time>
      </trkpt>
      <trkpt lat="43.45538" lon="6.43682">
        <ele>254.2</ele>
        <time>2026-01-25T12:29:14.000Z</time>
      </trkpt>
      <trkpt lat="43.45541" lon="6.43686">
        <ele>254.2</ele>
        <time>2026-01-25T12:29:31.000Z</time>
      </trkpt>
      <trkpt lat="43.45544" lon="6.4369">
        <ele>254.4</ele>
        <time>2026-01-25T12:29:47.000Z</time>
      </trkpt>
      <trkpt lat="43.45545" lon="6.43692">
        <ele>254.4</ele>
        <time>2026-01-25T12:29:54.000Z</time>
      </trkpt>
      <trkpt lat="43.4555" lon="6.43703">
        <ele>254.4</ele>
        <time>2026-01-25T12:30:08.000Z</time>
      </trkpt>
      <trkpt lat="43.45551" lon="6.43716">
        <ele>254.5</ele>
        <time>2026-01-25T12:30:19.000Z</time>
      </trkpt>
      <trkpt lat="43.45545" lon="6.43726">
        <ele>254.4</ele>
        <time>2026-01-25T12:30:29.000Z</time>
      </trkpt>
      <trkpt lat="43.4554" lon="6.43737">
        <ele>254.4</ele>
        <time>2026-01-25T12:30:40.000Z</time>
      </trkpt>
      <trkpt lat="43.45532" lon="6.43744">
        <ele>254.4</ele>
        <time>2026-01-25T12:30:50.000Z</time>
      </trkpt>
      <trkpt lat="43.45527" lon="6.43755">
        <ele>254.5</ele>
        <time>2026-01-25T12:31:00.000Z</time>
      </trkpt>
      <trkpt lat="43.45519" lon="6.43761">
        <ele>254.6</ele>
        <time>2026-01-25T12:31:10.000Z</time>
      </trkpt>
      <trkpt lat="43.45511" lon="6.43767">
        <ele>255.3</ele>
        <time>2026-01-25T12:31:21.000Z</time>
      </trkpt>
      <trkpt lat="43.45505" lon="6.43777">
        <ele>256.5</ele>
        <time>2026-01-25T12:31:33.000Z</time>
      </trkpt>
      <trkpt lat="43.45498" lon="6.43787">
        <ele>257.3</ele>
        <time>2026-01-25T12:31:45.000Z</time>
      </trkpt>
      <trkpt lat="43.45493" lon="6.43798">
        <ele>257.7</ele>
        <time>2026-01-25T12:31:57.000Z</time>
      </trkpt>
      <trkpt lat="43.45491" lon="6.43811">
        <ele>257.9</ele>
        <time>2026-01-25T12:32:10.000Z</time>
      </trkpt>
      <trkpt lat="43.45486" lon="6.43821">
        <ele>258</ele>
        <time>2026-01-25T12:32:24.000Z</time>
      </trkpt>
      <trkpt lat="43.45483" lon="6.43827">
        <ele>258</ele>
        <time>2026-01-25T12:33:02.000Z</time>
      </trkpt>
      <trkpt lat="43.45483" lon="6.43827">
        <ele>258</ele>
        <time>2026-01-25T12:33:05.000Z</time>
      </trkpt>
      <trkpt lat="43.4548" lon="6.43827">
        <ele>258.2</ele>
        <time>2026-01-25T12:33:29.000Z</time>
      </trkpt>
      <trkpt lat="43.45477" lon="6.43826">
        <ele>258.6</ele>
        <time>2026-01-25T12:34:02.000Z</time>
      </trkpt>
      <trkpt lat="43.45476" lon="6.43825">
        <ele>258.6</ele>
        <time>2026-01-25T12:34:17.000Z</time>
      </trkpt>
      <trkpt lat="43.45476" lon="6.43828">
        <ele>259.3</ele>
        <time>2026-01-25T12:34:31.000Z</time>
      </trkpt>
      <trkpt lat="43.45476" lon="6.43828">
        <ele>259.2</ele>
        <time>2026-01-25T12:34:42.000Z</time>
      </trkpt>
      <trkpt lat="43.45475" lon="6.43829">
        <ele>259.1</ele>
        <time>2026-01-25T12:34:47.000Z</time>
      </trkpt>
      <trkpt lat="43.45476" lon="6.43831">
        <ele>259</ele>
        <time>2026-01-25T12:35:01.000Z</time>
      </trkpt>
      <trkpt lat="43.45476" lon="6.43831">
        <ele>258.9</ele>
        <time>2026-01-25T12:35:24.000Z</time>
      </trkpt>
      <trkpt lat="43.45475" lon="6.4383">
        <ele>258.7</ele>
        <time>2026-01-25T12:35:36.000Z</time>
      </trkpt>
      <trkpt lat="43.45476" lon="6.43831">
        <ele>258.6</ele>
        <time>2026-01-25T12:35:58.000Z</time>
      </trkpt>
      <trkpt lat="43.45476" lon="6.43831">
        <ele>258.5</ele>
        <time>2026-01-25T12:36:08.000Z</time>
      </trkpt>
      <trkpt lat="43.45477" lon="6.43834">
        <ele>259</ele>
        <time>2026-01-25T12:39:12.000Z</time>
      </trkpt>
      <trkpt lat="43.45479" lon="6.43834">
        <ele>259</ele>
        <time>2026-01-25T12:39:15.000Z</time>
      </trkpt>
      <trkpt lat="43.45478" lon="6.43834">
        <ele>259.1</ele>
        <time>2026-01-25T12:39:43.000Z</time>
      </trkpt>
      <trkpt lat="43.45487" lon="6.43831">
        <ele>258.7</ele>
        <time>2026-01-25T12:40:22.000Z</time>
      </trkpt>
      <trkpt lat="43.45491" lon="6.43819">
        <ele>258.5</ele>
        <time>2026-01-25T12:40:36.000Z</time>
      </trkpt>
      <trkpt lat="43.45491" lon="6.43818">
        <ele>258.4</ele>
        <time>2026-01-25T12:40:47.000Z</time>
      </trkpt>
      <trkpt lat="43.45492" lon="6.43817">
        <ele>258.4</ele>
        <time>2026-01-25T12:40:52.000Z</time>
      </trkpt>
      <trkpt lat="43.45496" lon="6.43806">
        <ele>258.4</ele>
        <time>2026-01-25T12:41:05.000Z</time>
      </trkpt>
      <trkpt lat="43.45501" lon="6.43793">
        <ele>258.7</ele>
        <time>2026-01-25T12:41:20.000Z</time>
      </trkpt>
      <trkpt lat="43.45506" lon="6.43782">
        <ele>258.8</ele>
        <time>2026-01-25T12:41:37.000Z</time>
      </trkpt>
      <trkpt lat="43.45511" lon="6.43771">
        <ele>258.6</ele>
        <time>2026-01-25T12:41:46.000Z</time>
      </trkpt>
      <trkpt lat="43.45518" lon="6.43762">
        <ele>258</ele>
        <time>2026-01-25T12:41:56.000Z</time>
      </trkpt>
      <trkpt lat="43.45527" lon="6.43757">
        <ele>256.6</ele>
        <time>2026-01-25T12:42:05.000Z</time>
      </trkpt>
      <trkpt lat="43.45536" lon="6.43753">
        <ele>255.4</ele>
        <time>2026-01-25T12:42:14.000Z</time>
      </trkpt>
      <trkpt lat="43.45545" lon="6.43748">
        <ele>253.9</ele>
        <time>2026-01-25T12:42:26.000Z</time>
      </trkpt>
      <trkpt lat="43.45554" lon="6.43744">
        <ele>253</ele>
        <time>2026-01-25T12:42:37.000Z</time>
      </trkpt>
      <trkpt lat="43.45563" lon="6.4374">
        <ele>252</ele>
        <time>2026-01-25T12:42:49.000Z</time>
      </trkpt>
      <trkpt lat="43.45571" lon="6.43736">
        <ele>251.1</ele>
        <time>2026-01-25T12:42:59.000Z</time>
      </trkpt>
      <trkpt lat="43.45581" lon="6.43733">
        <ele>249.4</ele>
        <time>2026-01-25T12:43:13.000Z</time>
      </trkpt>
      <trkpt lat="43.4559" lon="6.43731">
        <ele>247.8</ele>
        <time>2026-01-25T12:43:28.000Z</time>
      </trkpt>
      <trkpt lat="43.45599" lon="6.43729">
        <ele>246.6</ele>
        <time>2026-01-25T12:43:39.000Z</time>
      </trkpt>
      <trkpt lat="43.45608" lon="6.4373">
        <ele>245.4</ele>
        <time>2026-01-25T12:43:52.000Z</time>
      </trkpt>
      <trkpt lat="43.45618" lon="6.43729">
        <ele>244.6</ele>
        <time>2026-01-25T12:44:03.000Z</time>
      </trkpt>
      <trkpt lat="43.45628" lon="6.43728">
        <ele>243.4</ele>
        <time>2026-01-25T12:44:15.000Z</time>
      </trkpt>
      <trkpt lat="43.45637" lon="6.4373">
        <ele>242</ele>
        <time>2026-01-25T12:44:29.000Z</time>
      </trkpt>
      <trkpt lat="43.45646" lon="6.43732">
        <ele>240.8</ele>
        <time>2026-01-25T12:44:42.000Z</time>
      </trkpt>
      <trkpt lat="43.45656" lon="6.43735">
        <ele>239.6</ele>
        <time>2026-01-25T12:44:57.000Z</time>
      </trkpt>
      <trkpt lat="43.45664" lon="6.43741">
        <ele>238.9</ele>
        <time>2026-01-25T12:45:06.000Z</time>
      </trkpt>
      <trkpt lat="43.45672" lon="6.43746">
        <ele>238</ele>
        <time>2026-01-25T12:45:15.000Z</time>
      </trkpt>
      <trkpt lat="43.45681" lon="6.4375">
        <ele>236.5</ele>
        <time>2026-01-25T12:45:27.000Z</time>
      </trkpt>
      <trkpt lat="43.45688" lon="6.43758">
        <ele>235.4</ele>
        <time>2026-01-25T12:45:37.000Z</time>
      </trkpt>
      <trkpt lat="43.45694" lon="6.43768">
        <ele>233.7</ele>
        <time>2026-01-25T12:45:50.000Z</time>
      </trkpt>
      <trkpt lat="43.457" lon="6.43777">
        <ele>232.8</ele>
        <time>2026-01-25T12:46:03.000Z</time>
      </trkpt>
      <trkpt lat="43.45705" lon="6.43789">
        <ele>231.4</ele>
        <time>2026-01-25T12:46:14.000Z</time>
      </trkpt>
      <trkpt lat="43.45712" lon="6.43797">
        <ele>229.4</ele>
        <time>2026-01-25T12:46:27.000Z</time>
      </trkpt>
      <trkpt lat="43.45718" lon="6.43808">
        <ele>228.2</ele>
        <time>2026-01-25T12:46:38.000Z</time>
      </trkpt>
      <trkpt lat="43.45724" lon="6.43817">
        <ele>227</ele>
        <time>2026-01-25T12:46:50.000Z</time>
      </trkpt>
      <trkpt lat="43.45729" lon="6.43826">
        <ele>224.8</ele>
        <time>2026-01-25T12:47:17.000Z</time>
      </trkpt>
      <trkpt lat="43.45729" lon="6.43826">
        <ele>224.8</ele>
        <time>2026-01-25T12:47:24.000Z</time>
      </trkpt>
      <trkpt lat="43.45734" lon="6.43837">
        <ele>224.5</ele>
        <time>2026-01-25T12:47:40.000Z</time>
      </trkpt>
      <trkpt lat="43.45737" lon="6.4385">
        <ele>223.7</ele>
        <time>2026-01-25T12:47:50.000Z</time>
      </trkpt>
      <trkpt lat="43.4574" lon="6.43862">
        <ele>222.2</ele>
        <time>2026-01-25T12:48:01.000Z</time>
      </trkpt>
      <trkpt lat="43.45745" lon="6.43875">
        <ele>220.9</ele>
        <time>2026-01-25T12:48:11.000Z</time>
      </trkpt>
      <trkpt lat="43.45746" lon="6.43888">
        <ele>219.6</ele>
        <time>2026-01-25T12:48:23.000Z</time>
      </trkpt>
      <trkpt lat="43.45746" lon="6.43901">
        <ele>218.7</ele>
        <time>2026-01-25T12:48:33.000Z</time>
      </trkpt>
      <trkpt lat="43.45748" lon="6.43914">
        <ele>217.3</ele>
        <time>2026-01-25T12:48:46.000Z</time>
      </trkpt>
      <trkpt lat="43.45748" lon="6.43927">
        <ele>216</ele>
        <time>2026-01-25T12:48:57.000Z</time>
      </trkpt>
      <trkpt lat="43.45748" lon="6.4394">
        <ele>214.9</ele>
        <time>2026-01-25T12:49:09.000Z</time>
      </trkpt>
      <trkpt lat="43.45747" lon="6.43952">
        <ele>213.8</ele>
        <time>2026-01-25T12:49:20.000Z</time>
      </trkpt>
      <trkpt lat="43.45744" lon="6.43965">
        <ele>212.6</ele>
        <time>2026-01-25T12:49:32.000Z</time>
      </trkpt>
      <trkpt lat="43.45742" lon="6.43978">
        <ele>211.4</ele>
        <time>2026-01-25T12:49:43.000Z</time>
      </trkpt>
      <trkpt lat="43.45742" lon="6.43991">
        <ele>210.2</ele>
        <time>2026-01-25T12:49:55.000Z</time>
      </trkpt>
      <trkpt lat="43.45742" lon="6.44004">
        <ele>208.6</ele>
        <time>2026-01-25T12:50:07.000Z</time>
      </trkpt>
      <trkpt lat="43.45745" lon="6.44016">
        <ele>207.6</ele>
        <time>2026-01-25T12:50:18.000Z</time>
      </trkpt>
      <trkpt lat="43.45747" lon="6.44028">
        <ele>206.8</ele>
        <time>2026-01-25T12:50:27.000Z</time>
      </trkpt>
      <trkpt lat="43.45751" lon="6.4404">
        <ele>206</ele>
        <time>2026-01-25T12:50:36.000Z</time>
      </trkpt>
      <trkpt lat="43.45756" lon="6.44051">
        <ele>204.9</ele>
        <time>2026-01-25T12:50:46.000Z</time>
      </trkpt>
      <trkpt lat="43.4576" lon="6.44063">
        <ele>203.9</ele>
        <time>2026-01-25T12:50:56.000Z</time>
      </trkpt>
      <trkpt lat="43.45766" lon="6.44074">
        <ele>203.6</ele>
        <time>2026-01-25T12:51:06.000Z</time>
      </trkpt>
      <trkpt lat="43.45772" lon="6.44085">
        <ele>203.1</ele>
        <time>2026-01-25T12:51:17.000Z</time>
      </trkpt>
      <trkpt lat="43.45779" lon="6.44094">
        <ele>202.1</ele>
        <time>2026-01-25T12:51:27.000Z</time>
      </trkpt>
      <trkpt lat="43.45788" lon="6.44097">
        <ele>200.8</ele>
        <time>2026-01-25T12:51:37.000Z</time>
      </trkpt>
      <trkpt lat="43.45797" lon="6.44101">
        <ele>199.4</ele>
        <time>2026-01-25T12:51:48.000Z</time>
      </trkpt>
      <trkpt lat="43.45806" lon="6.44102">
        <ele>198.3</ele>
        <time>2026-01-25T12:51:57.000Z</time>
      </trkpt>
      <trkpt lat="43.45816" lon="6.441">
        <ele>196.9</ele>
        <time>2026-01-25T12:52:09.000Z</time>
      </trkpt>
      <trkpt lat="43.45826" lon="6.44101">
        <ele>195.3</ele>
        <time>2026-01-25T12:52:21.000Z</time>
      </trkpt>
      <trkpt lat="43.45836" lon="6.44098">
        <ele>194.2</ele>
        <time>2026-01-25T12:52:32.000Z</time>
      </trkpt>
      <trkpt lat="43.45845" lon="6.44098">
        <ele>192.8</ele>
        <time>2026-01-25T12:52:45.000Z</time>
      </trkpt>
      <trkpt lat="43.45854" lon="6.44095">
        <ele>191.5</ele>
        <time>2026-01-25T12:52:55.000Z</time>
      </trkpt>
      <trkpt lat="43.45863" lon="6.44093">
        <ele>190.3</ele>
        <time>2026-01-25T12:53:03.000Z</time>
      </trkpt>
      <trkpt lat="43.45873" lon="6.44092">
        <ele>189.5</ele>
        <time>2026-01-25T12:53:12.000Z</time>
      </trkpt>
      <trkpt lat="43.45882" lon="6.4409">
        <ele>188.6</ele>
        <time>2026-01-25T12:53:20.000Z</time>
      </trkpt>
      <trkpt lat="43.45891" lon="6.44087">
        <ele>187.6</ele>
        <time>2026-01-25T12:53:31.000Z</time>
      </trkpt>
      <trkpt lat="43.459" lon="6.44083">
        <ele>186.8</ele>
        <time>2026-01-25T12:53:43.000Z</time>
      </trkpt>
      <trkpt lat="43.45909" lon="6.44078">
        <ele>186.1</ele>
        <time>2026-01-25T12:53:53.000Z</time>
      </trkpt>
      <trkpt lat="43.45917" lon="6.44073">
        <ele>185.5</ele>
        <time>2026-01-25T12:54:03.000Z</time>
      </trkpt>
      <trkpt lat="43.45926" lon="6.44068">
        <ele>184.9</ele>
        <time>2026-01-25T12:54:11.000Z</time>
      </trkpt>
      <trkpt lat="43.45933" lon="6.44061">
        <ele>184.3</ele>
        <time>2026-01-25T12:54:20.000Z</time>
      </trkpt>
      <trkpt lat="43.45941" lon="6.44053">
        <ele>183.7</ele>
        <time>2026-01-25T12:54:31.000Z</time>
      </trkpt>
      <trkpt lat="43.4595" lon="6.44046">
        <ele>183.2</ele>
        <time>2026-01-25T12:54:41.000Z</time>
      </trkpt>
      <trkpt lat="43.45953" lon="6.4404">
        <ele>182.4</ele>
        <time>2026-01-25T12:55:02.000Z</time>
      </trkpt>
      <trkpt lat="43.45954" lon="6.44038">
        <ele>182.3</ele>
        <time>2026-01-25T12:55:07.000Z</time>
      </trkpt>
      <trkpt lat="43.45955" lon="6.44043">
        <ele>182.1</ele>
        <time>2026-01-25T12:55:23.000Z</time>
      </trkpt>
      <trkpt lat="43.45955" lon="6.44041">
        <ele>182.1</ele>
        <time>2026-01-25T12:55:34.000Z</time>
      </trkpt>
      <trkpt lat="43.4596" lon="6.4403">
        <ele>182</ele>
        <time>2026-01-25T12:56:02.000Z</time>
      </trkpt>
      <trkpt lat="43.45966" lon="6.44019">
        <ele>182.1</ele>
        <time>2026-01-25T12:56:13.000Z</time>
      </trkpt>
      <trkpt lat="43.45972" lon="6.44011">
        <ele>182.2</ele>
        <time>2026-01-25T12:56:22.000Z</time>
      </trkpt>
      <trkpt lat="43.45978" lon="6.44001">
        <ele>182.5</ele>
        <time>2026-01-25T12:56:31.000Z</time>
      </trkpt>
      <trkpt lat="43.45982" lon="6.43989">
        <ele>183.5</ele>
        <time>2026-01-25T12:56:42.000Z</time>
      </trkpt>
      <trkpt lat="43.45983" lon="6.43977">
        <ele>184.9</ele>
        <time>2026-01-25T12:56:53.000Z</time>
      </trkpt>
      <trkpt lat="43.45989" lon="6.43966">
        <ele>185.9</ele>
        <time>2026-01-25T12:57:03.000Z</time>
      </trkpt>
      <trkpt lat="43.45992" lon="6.43953">
        <ele>186.5</ele>
        <time>2026-01-25T12:57:13.000Z</time>
      </trkpt>
      <trkpt lat="43.45993" lon="6.43941">
        <ele>187.1</ele>
        <time>2026-01-25T12:57:23.000Z</time>
      </trkpt>
      <trkpt lat="43.45996" lon="6.43928">
        <ele>187.8</ele>
        <time>2026-01-25T12:57:33.000Z</time>
      </trkpt>
      <trkpt lat="43.45999" lon="6.43917">
        <ele>188.5</ele>
        <time>2026-01-25T12:57:43.000Z</time>
      </trkpt>
      <trkpt lat="43.46004" lon="6.43906">
        <ele>189.8</ele>
        <time>2026-01-25T12:58:00.000Z</time>
      </trkpt>
      <trkpt lat="43.46014" lon="6.43907">
        <ele>191.8</ele>
        <time>2026-01-25T12:58:27.000Z</time>
      </trkpt>
      <trkpt lat="43.46023" lon="6.43902">
        <ele>192.2</ele>
        <time>2026-01-25T12:58:36.000Z</time>
      </trkpt>
      <trkpt lat="43.4603" lon="6.43892">
        <ele>192.6</ele>
        <time>2026-01-25T12:58:44.000Z</time>
      </trkpt>
      <trkpt lat="43.46036" lon="6.43881">
        <ele>193.6</ele>
        <time>2026-01-25T12:58:57.000Z</time>
      </trkpt>
      <trkpt lat="43.4604" lon="6.4387">
        <ele>194.5</ele>
        <time>2026-01-25T12:59:08.000Z</time>
      </trkpt>
      <trkpt lat="43.46047" lon="6.4386">
        <ele>195.3</ele>
        <time>2026-01-25T12:59:17.000Z</time>
      </trkpt>
      <trkpt lat="43.46053" lon="6.43851">
        <ele>196.2</ele>
        <time>2026-01-25T12:59:29.000Z</time>
      </trkpt>
      <trkpt lat="43.46059" lon="6.43841">
        <ele>196.9</ele>
        <time>2026-01-25T12:59:42.000Z</time>
      </trkpt>
      <trkpt lat="43.46064" lon="6.4383">
        <ele>197.4</ele>
        <time>2026-01-25T12:59:52.000Z</time>
      </trkpt>
      <trkpt lat="43.46069" lon="6.43818">
        <ele>198.2</ele>
        <time>2026-01-25T13:00:04.000Z</time>
      </trkpt>
      <trkpt lat="43.46076" lon="6.43809">
        <ele>198.6</ele>
        <time>2026-01-25T13:00:11.000Z</time>
      </trkpt>
      <trkpt lat="43.46079" lon="6.43795">
        <ele>199.2</ele>
        <time>2026-01-25T13:00:19.000Z</time>
      </trkpt>
      <trkpt lat="43.46087" lon="6.43787">
        <ele>199.7</ele>
        <time>2026-01-25T13:00:26.000Z</time>
      </trkpt>
      <trkpt lat="43.46093" lon="6.43778">
        <ele>200.3</ele>
        <time>2026-01-25T13:00:38.000Z</time>
      </trkpt>
      <trkpt lat="43.46091" lon="6.43765">
        <ele>200.9</ele>
        <time>2026-01-25T13:00:50.000Z</time>
      </trkpt>
      <trkpt lat="43.46096" lon="6.43753">
        <ele>201.7</ele>
        <time>2026-01-25T13:01:01.000Z</time>
      </trkpt>
      <trkpt lat="43.46105" lon="6.4375">
        <ele>202.7</ele>
        <time>2026-01-25T13:01:11.000Z</time>
      </trkpt>
      <trkpt lat="43.46114" lon="6.43744">
        <ele>203.5</ele>
        <time>2026-01-25T13:01:20.000Z</time>
      </trkpt>
      <trkpt lat="43.46123" lon="6.43743">
        <ele>204.5</ele>
        <time>2026-01-25T13:01:35.000Z</time>
      </trkpt>
      <trkpt lat="43.46132" lon="6.4375">
        <ele>205.4</ele>
        <time>2026-01-25T13:01:53.000Z</time>
      </trkpt>
      <trkpt lat="43.4614" lon="6.43758">
        <ele>205.8</ele>
        <time>2026-01-25T13:02:04.000Z</time>
      </trkpt>
      <trkpt lat="43.46146" lon="6.43767">
        <ele>206.2</ele>
        <time>2026-01-25T13:02:13.000Z</time>
      </trkpt>
      <trkpt lat="43.46155" lon="6.43774">
        <ele>207.2</ele>
        <time>2026-01-25T13:02:29.000Z</time>
      </trkpt>
      <trkpt lat="43.46164" lon="6.43778">
        <ele>207.8</ele>
        <time>2026-01-25T13:02:36.000Z</time>
      </trkpt>
      <trkpt lat="43.46169" lon="6.43789">
        <ele>208.6</ele>
        <time>2026-01-25T13:02:46.000Z</time>
      </trkpt>
      <trkpt lat="43.46176" lon="6.43798">
        <ele>209.3</ele>
        <time>2026-01-25T13:02:57.000Z</time>
      </trkpt>
      <trkpt lat="43.46185" lon="6.43802">
        <ele>210.1</ele>
        <time>2026-01-25T13:03:08.000Z</time>
      </trkpt>
      <trkpt lat="43.46195" lon="6.43799">
        <ele>211.4</ele>
        <time>2026-01-25T13:03:19.000Z</time>
      </trkpt>
      <trkpt lat="43.46202" lon="6.43792">
        <ele>212.7</ele>
        <time>2026-01-25T13:03:30.000Z</time>
      </trkpt>
      <trkpt lat="43.46206" lon="6.43779">
        <ele>213.2</ele>
        <time>2026-01-25T13:03:38.000Z</time>
      </trkpt>
      <trkpt lat="43.46212" lon="6.43769">
        <ele>213.4</ele>
        <time>2026-01-25T13:03:47.000Z</time>
      </trkpt>
      <trkpt lat="43.46217" lon="6.43758">
        <ele>213.5</ele>
        <time>2026-01-25T13:03:58.000Z</time>
      </trkpt>
      <trkpt lat="43.46223" lon="6.43747">
        <ele>213.4</ele>
        <time>2026-01-25T13:04:23.000Z</time>
      </trkpt>
      <trkpt lat="43.46227" lon="6.43735">
        <ele>213.3</ele>
        <time>2026-01-25T13:04:34.000Z</time>
      </trkpt>
      <trkpt lat="43.46232" lon="6.43724">
        <ele>213.3</ele>
        <time>2026-01-25T13:04:44.000Z</time>
      </trkpt>
      <trkpt lat="43.46237" lon="6.43712">
        <ele>213.3</ele>
        <time>2026-01-25T13:04:53.000Z</time>
      </trkpt>
      <trkpt lat="43.4624" lon="6.43699">
        <ele>213.3</ele>
        <time>2026-01-25T13:05:04.000Z</time>
      </trkpt>
      <trkpt lat="43.46245" lon="6.43688">
        <ele>213.3</ele>
        <time>2026-01-25T13:05:13.000Z</time>
      </trkpt>
      <trkpt lat="43.4625" lon="6.43677">
        <ele>213.3</ele>
        <time>2026-01-25T13:05:22.000Z</time>
      </trkpt>
      <trkpt lat="43.46253" lon="6.43665">
        <ele>213.5</ele>
        <time>2026-01-25T13:05:32.000Z</time>
      </trkpt>
      <trkpt lat="43.46258" lon="6.43653">
        <ele>213.7</ele>
        <time>2026-01-25T13:05:42.000Z</time>
      </trkpt>
      <trkpt lat="43.46264" lon="6.43642">
        <ele>214</ele>
        <time>2026-01-25T13:05:51.000Z</time>
      </trkpt>
      <trkpt lat="43.46269" lon="6.43631">
        <ele>214.3</ele>
        <time>2026-01-25T13:06:01.000Z</time>
      </trkpt>
      <trkpt lat="43.46275" lon="6.43621">
        <ele>214.5</ele>
        <time>2026-01-25T13:06:10.000Z</time>
      </trkpt>
      <trkpt lat="43.46282" lon="6.43611">
        <ele>214.7</ele>
        <time>2026-01-25T13:06:20.000Z</time>
      </trkpt>
      <trkpt lat="43.46288" lon="6.43601">
        <ele>214.7</ele>
        <time>2026-01-25T13:06:30.000Z</time>
      </trkpt>
      <trkpt lat="43.46292" lon="6.43589">
        <ele>214.8</ele>
        <time>2026-01-25T13:06:42.000Z</time>
      </trkpt>
      <trkpt lat="43.463" lon="6.43583">
        <ele>215</ele>
        <time>2026-01-25T13:07:16.000Z</time>
      </trkpt>
      <trkpt lat="43.46307" lon="6.43574">
        <ele>215.1</ele>
        <time>2026-01-25T13:07:26.000Z</time>
      </trkpt>
      <trkpt lat="43.46311" lon="6.43562">
        <ele>215.2</ele>
        <time>2026-01-25T13:07:40.000Z</time>
      </trkpt>
      <trkpt lat="43.46318" lon="6.43551">
        <ele>215.3</ele>
        <time>2026-01-25T13:07:49.000Z</time>
      </trkpt>
      <trkpt lat="43.46322" lon="6.43539">
        <ele>215.6</ele>
        <time>2026-01-25T13:07:59.000Z</time>
      </trkpt>
      <trkpt lat="43.4633" lon="6.4353">
        <ele>215.9</ele>
        <time>2026-01-25T13:08:08.000Z</time>
      </trkpt>
      <trkpt lat="43.46336" lon="6.43521">
        <ele>216.1</ele>
        <time>2026-01-25T13:08:17.000Z</time>
      </trkpt>
      <trkpt lat="43.46343" lon="6.43513">
        <ele>216.5</ele>
        <time>2026-01-25T13:08:28.000Z</time>
      </trkpt>
      <trkpt lat="43.46349" lon="6.43503">
        <ele>216.7</ele>
        <time>2026-01-25T13:08:40.000Z</time>
      </trkpt>
      <trkpt lat="43.46356" lon="6.43493">
        <ele>216.8</ele>
        <time>2026-01-25T13:08:49.000Z</time>
      </trkpt>
      <trkpt lat="43.46362" lon="6.43485">
        <ele>216.8</ele>
        <time>2026-01-25T13:08:57.000Z</time>
      </trkpt>
      <trkpt lat="43.46367" lon="6.43474">
        <ele>217.1</ele>
        <time>2026-01-25T13:09:07.000Z</time>
      </trkpt>
      <trkpt lat="43.46373" lon="6.43464">
        <ele>217.4</ele>
        <time>2026-01-25T13:09:18.000Z</time>
      </trkpt>
      <trkpt lat="43.46378" lon="6.43453">
        <ele>217.8</ele>
        <time>2026-01-25T13:09:29.000Z</time>
      </trkpt>
      <trkpt lat="43.46385" lon="6.43445">
        <ele>218.1</ele>
        <time>2026-01-25T13:09:38.000Z</time>
      </trkpt>
      <trkpt lat="43.4639" lon="6.43435">
        <ele>218.4</ele>
        <time>2026-01-25T13:09:47.000Z</time>
      </trkpt>
      <trkpt lat="43.46395" lon="6.43424">
        <ele>218.7</ele>
        <time>2026-01-25T13:09:58.000Z</time>
      </trkpt>
      <trkpt lat="43.46402" lon="6.43415">
        <ele>218.7</ele>
        <time>2026-01-25T13:10:06.000Z</time>
      </trkpt>
      <trkpt lat="43.46408" lon="6.43404">
        <ele>218.6</ele>
        <time>2026-01-25T13:10:15.000Z</time>
      </trkpt>
      <trkpt lat="43.46412" lon="6.43399">
        <ele>218.6</ele>
        <time>2026-01-25T13:10:36.000Z</time>
      </trkpt>
      <trkpt lat="43.46413" lon="6.43399">
        <ele>218.6</ele>
        <time>2026-01-25T13:10:39.000Z</time>
      </trkpt>
      <trkpt lat="43.46414" lon="6.43386">
        <ele>218.7</ele>
        <time>2026-01-25T13:11:29.000Z</time>
      </trkpt>
      <trkpt lat="43.46418" lon="6.43377">
        <ele>218.5</ele>
        <time>2026-01-25T13:11:56.000Z</time>
      </trkpt>
      <trkpt lat="43.46419" lon="6.43377">
        <ele>218.5</ele>
        <time>2026-01-25T13:11:59.000Z</time>
      </trkpt>
      <trkpt lat="43.46422" lon="6.43365">
        <ele>218.5</ele>
        <time>2026-01-25T13:12:08.000Z</time>
      </trkpt>
      <trkpt lat="43.46427" lon="6.43355">
        <ele>218.4</ele>
        <time>2026-01-25T13:12:19.000Z</time>
      </trkpt>
      <trkpt lat="43.4643" lon="6.43342">
        <ele>218.4</ele>
        <time>2026-01-25T13:12:27.000Z</time>
      </trkpt>
      <trkpt lat="43.4643" lon="6.43329">
        <ele>218.4</ele>
        <time>2026-01-25T13:12:36.000Z</time>
      </trkpt>
      <trkpt lat="43.46433" lon="6.43316">
        <ele>218.3</ele>
        <time>2026-01-25T13:12:46.000Z</time>
      </trkpt>
      <trkpt lat="43.46433" lon="6.43303">
        <ele>218.3</ele>
        <time>2026-01-25T13:12:56.000Z</time>
      </trkpt>
      <trkpt lat="43.46441" lon="6.43295">
        <ele>218.4</ele>
        <time>2026-01-25T13:13:05.000Z</time>
      </trkpt>
      <trkpt lat="43.46449" lon="6.43288">
        <ele>218.4</ele>
        <time>2026-01-25T13:13:14.000Z</time>
      </trkpt>
      <trkpt lat="43.46459" lon="6.43283">
        <ele>218.5</ele>
        <time>2026-01-25T13:13:22.000Z</time>
      </trkpt>
      <trkpt lat="43.46465" lon="6.43274">
        <ele>218.7</ele>
        <time>2026-01-25T13:13:35.000Z</time>
      </trkpt>
      <trkpt lat="43.46473" lon="6.43268">
        <ele>218.8</ele>
        <time>2026-01-25T13:13:42.000Z</time>
      </trkpt>
      <trkpt lat="43.46483" lon="6.43263">
        <ele>218.9</ele>
        <time>2026-01-25T13:13:54.000Z</time>
      </trkpt>
      <trkpt lat="43.4649" lon="6.43254">
        <ele>218.9</ele>
        <time>2026-01-25T13:13:58.000Z</time>
      </trkpt>
      <trkpt lat="43.46495" lon="6.43243">
        <ele>218.8</ele>
        <time>2026-01-25T13:14:03.000Z</time>
      </trkpt>
      <trkpt lat="43.46501" lon="6.43234">
        <ele>218.7</ele>
        <time>2026-01-25T13:14:16.000Z</time>
      </trkpt>
      <trkpt lat="43.46507" lon="6.43223">
        <ele>218.7</ele>
        <time>2026-01-25T13:14:26.000Z</time>
      </trkpt>
      <trkpt lat="43.46508" lon="6.43211">
        <ele>218.8</ele>
        <time>2026-01-25T13:14:49.000Z</time>
      </trkpt>
      <trkpt lat="43.46501" lon="6.43203">
        <ele>218.8</ele>
        <time>2026-01-25T13:14:57.000Z</time>
      </trkpt>
      <trkpt lat="43.46508" lon="6.43196">
        <ele>219.3</ele>
        <time>2026-01-25T13:15:48.000Z</time>
      </trkpt>
      <trkpt lat="43.46517" lon="6.43194">
        <ele>219.2</ele>
        <time>2026-01-25T13:16:10.000Z</time>
      </trkpt>
      <trkpt lat="43.46525" lon="6.43189">
        <ele>219.2</ele>
        <time>2026-01-25T13:16:18.000Z</time>
      </trkpt>
      <trkpt lat="43.46526" lon="6.43176">
        <ele>219.2</ele>
        <time>2026-01-25T13:16:28.000Z</time>
      </trkpt>
      <trkpt lat="43.46524" lon="6.43163">
        <ele>219.3</ele>
        <time>2026-01-25T13:16:39.000Z</time>
      </trkpt>
      <trkpt lat="43.46524" lon="6.43151">
        <ele>219.5</ele>
        <time>2026-01-25T13:16:50.000Z</time>
      </trkpt>
      <trkpt lat="43.46523" lon="6.43138">
        <ele>220.2</ele>
        <time>2026-01-25T13:17:02.000Z</time>
      </trkpt>
      <trkpt lat="43.4652" lon="6.43125">
        <ele>221.2</ele>
        <time>2026-01-25T13:17:13.000Z</time>
      </trkpt>
      <trkpt lat="43.46526" lon="6.43116">
        <ele>222.3</ele>
        <time>2026-01-25T13:17:23.000Z</time>
      </trkpt>
      <trkpt lat="43.46527" lon="6.43116">
        <ele>223.1</ele>
        <time>2026-01-25T13:17:39.000Z</time>
      </trkpt>
      <trkpt lat="43.46529" lon="6.43115">
        <ele>223.1</ele>
        <time>2026-01-25T13:18:06.000Z</time>
      </trkpt>
      <trkpt lat="43.46539" lon="6.43115">
        <ele>223.2</ele>
        <time>2026-01-25T13:18:15.000Z</time>
      </trkpt>
      <trkpt lat="43.46548" lon="6.43116">
        <ele>223.2</ele>
        <time>2026-01-25T13:18:24.000Z</time>
      </trkpt>
      <trkpt lat="43.46557" lon="6.43116">
        <ele>223.2</ele>
        <time>2026-01-25T13:18:34.000Z</time>
      </trkpt>
      <trkpt lat="43.46567" lon="6.43114">
        <ele>223.4</ele>
        <time>2026-01-25T13:18:44.000Z</time>
      </trkpt>
      <trkpt lat="43.46576" lon="6.43114">
        <ele>223.5</ele>
        <time>2026-01-25T13:18:53.000Z</time>
      </trkpt>
      <trkpt lat="43.46585" lon="6.43114">
        <ele>223.7</ele>
        <time>2026-01-25T13:19:03.000Z</time>
      </trkpt>
      <trkpt lat="43.46594" lon="6.43113">
        <ele>223.8</ele>
        <time>2026-01-25T13:19:13.000Z</time>
      </trkpt>
      <trkpt lat="43.46603" lon="6.43112">
        <ele>224.1</ele>
        <time>2026-01-25T13:19:22.000Z</time>
      </trkpt>
      <trkpt lat="43.46613" lon="6.43112">
        <ele>224.3</ele>
        <time>2026-01-25T13:19:31.000Z</time>
      </trkpt>
      <trkpt lat="43.46622" lon="6.43111">
        <ele>224.5</ele>
        <time>2026-01-25T13:19:40.000Z</time>
      </trkpt>
      <trkpt lat="43.46631" lon="6.43111">
        <ele>224.9</ele>
        <time>2026-01-25T13:19:49.000Z</time>
      </trkpt>
      <trkpt lat="43.4664" lon="6.4311">
        <ele>225.2</ele>
        <time>2026-01-25T13:19:59.000Z</time>
      </trkpt>
      <trkpt lat="43.46649" lon="6.43105">
        <ele>225.5</ele>
        <time>2026-01-25T13:20:09.000Z</time>
      </trkpt>
      <trkpt lat="43.46658" lon="6.43107">
        <ele>225.9</ele>
        <time>2026-01-25T13:20:18.000Z</time>
      </trkpt>
      <trkpt lat="43.46668" lon="6.43108">
        <ele>226.2</ele>
        <time>2026-01-25T13:20:31.000Z</time>
      </trkpt>
      <trkpt lat="43.46672" lon="6.43096">
        <ele>226.6</ele>
        <time>2026-01-25T13:20:47.000Z</time>
      </trkpt>
      <trkpt lat="43.46668" lon="6.43084">
        <ele>226.8</ele>
        <time>2026-01-25T13:20:56.000Z</time>
      </trkpt>
      <trkpt lat="43.46664" lon="6.43072">
        <ele>227.2</ele>
        <time>2026-01-25T13:21:05.000Z</time>
      </trkpt>
      <trkpt lat="43.46664" lon="6.43059">
        <ele>228.4</ele>
        <time>2026-01-25T13:21:27.000Z</time>
      </trkpt>
      <trkpt lat="43.46664" lon="6.43062">
        <ele>228.2</ele>
        <time>2026-01-25T13:21:54.000Z</time>
      </trkpt>
      <trkpt lat="43.46665" lon="6.43062">
        <ele>228.5</ele>
        <time>2026-01-25T13:23:24.000Z</time>
      </trkpt>
      <trkpt lat="43.46664" lon="6.43061">
        <ele>228.5</ele>
        <time>2026-01-25T13:23:34.000Z</time>
      </trkpt>
      <trkpt lat="43.46664" lon="6.43061">
        <ele>228.6</ele>
        <time>2026-01-25T13:23:36.000Z</time>
      </trkpt>
      <trkpt lat="43.46663" lon="6.43049">
        <ele>228.9</ele>
        <time>2026-01-25T13:23:52.000Z</time>
      </trkpt>
      <trkpt lat="43.46659" lon="6.43047">
        <ele>228.9</ele>
        <time>2026-01-25T13:24:08.000Z</time>
      </trkpt>
      <trkpt lat="43.46659" lon="6.43047">
        <ele>228.9</ele>
        <time>2026-01-25T13:24:09.000Z</time>
      </trkpt>
      <trkpt lat="43.4665" lon="6.43045">
        <ele>228.9</ele>
        <time>2026-01-25T13:24:20.000Z</time>
      </trkpt>
      <trkpt lat="43.46642" lon="6.43052">
        <ele>228.9</ele>
        <time>2026-01-25T13:24:32.000Z</time>
      </trkpt>
      <trkpt lat="43.46641" lon="6.43055">
        <ele>228.9</ele>
        <time>2026-01-25T13:25:14.000Z</time>
      </trkpt>
      <trkpt lat="43.46643" lon="6.43055">
        <ele>228.7</ele>
        <time>2026-01-25T13:25:59.000Z</time>
      </trkpt>
      <trkpt lat="43.46651" lon="6.43049">
        <ele>228.6</ele>
        <time>2026-01-25T13:26:18.000Z</time>
      </trkpt>
      <trkpt lat="43.46659" lon="6.43055">
        <ele>228.6</ele>
        <time>2026-01-25T13:26:34.000Z</time>
      </trkpt>
      <trkpt lat="43.46668" lon="6.43056">
        <ele>228.5</ele>
        <time>2026-01-25T13:26:44.000Z</time>
      </trkpt>
      <trkpt lat="43.46669" lon="6.43043">
        <ele>228.2</ele>
        <time>2026-01-25T13:27:09.000Z</time>
      </trkpt>
      <trkpt lat="43.46669" lon="6.43042">
        <ele>228.1</ele>
        <time>2026-01-25T13:27:20.000Z</time>
      </trkpt>
      <trkpt lat="43.46669" lon="6.43043">
        <ele>228</ele>
        <time>2026-01-25T13:27:35.000Z</time>
      </trkpt>
      <trkpt lat="43.46669" lon="6.43043">
        <ele>228</ele>
        <time>2026-01-25T13:27:36.000Z</time>
      </trkpt>
      <trkpt lat="43.46669" lon="6.43044">
        <ele>228</ele>
        <time>2026-01-25T13:27:39.000Z</time>
      </trkpt>
      <trkpt lat="43.46669" lon="6.43041">
        <ele>227.9</ele>
        <time>2026-01-25T13:27:57.000Z</time>
      </trkpt>
      <trkpt lat="43.4667" lon="6.43036">
        <ele>227.9</ele>
        <time>2026-01-25T13:28:14.000Z</time>
      </trkpt>
      <trkpt lat="43.46678" lon="6.43029">
        <ele>227.9</ele>
        <time>2026-01-25T13:28:24.000Z</time>
      </trkpt>
      <trkpt lat="43.46687" lon="6.43026">
        <ele>227.7</ele>
        <time>2026-01-25T13:28:40.000Z</time>
      </trkpt>
      <trkpt lat="43.46696" lon="6.43027">
        <ele>227.5</ele>
        <time>2026-01-25T13:28:52.000Z</time>
      </trkpt>
      <trkpt lat="43.46706" lon="6.43024">
        <ele>227.3</ele>
        <time>2026-01-25T13:29:04.000Z</time>
      </trkpt>
      <trkpt lat="43.46715" lon="6.43025">
        <ele>227.1</ele>
        <time>2026-01-25T13:29:14.000Z</time>
      </trkpt>
      <trkpt lat="43.46724" lon="6.43024">
        <ele>226.9</ele>
        <time>2026-01-25T13:29:26.000Z</time>
      </trkpt>
      <trkpt lat="43.46733" lon="6.43023">
        <ele>226.9</ele>
        <time>2026-01-25T13:29:36.000Z</time>
      </trkpt>
      <trkpt lat="43.46742" lon="6.4302">
        <ele>226.9</ele>
        <time>2026-01-25T13:29:45.000Z</time>
      </trkpt>
      <trkpt lat="43.46752" lon="6.43019">
        <ele>226.9</ele>
        <time>2026-01-25T13:29:56.000Z</time>
      </trkpt>
      <trkpt lat="43.46761" lon="6.4302">
        <ele>227.1</ele>
        <time>2026-01-25T13:30:05.000Z</time>
      </trkpt>
      <trkpt lat="43.4677" lon="6.43024">
        <ele>227.2</ele>
        <time>2026-01-25T13:30:17.000Z</time>
      </trkpt>
      <trkpt lat="43.46778" lon="6.43032">
        <ele>227.4</ele>
        <time>2026-01-25T13:30:29.000Z</time>
      </trkpt>
      <trkpt lat="43.46786" lon="6.43037">
        <ele>227.7</ele>
        <time>2026-01-25T13:30:39.000Z</time>
      </trkpt>
      <trkpt lat="43.46795" lon="6.43045">
        <ele>228.1</ele>
        <time>2026-01-25T13:30:50.000Z</time>
      </trkpt>
      <trkpt lat="43.46804" lon="6.43047">
        <ele>228.4</ele>
        <time>2026-01-25T13:31:00.000Z</time>
      </trkpt>
      <trkpt lat="43.46813" lon="6.43048">
        <ele>228.7</ele>
        <time>2026-01-25T13:31:09.000Z</time>
      </trkpt>
      <trkpt lat="43.46822" lon="6.43049">
        <ele>228.9</ele>
        <time>2026-01-25T13:31:18.000Z</time>
      </trkpt>
      <trkpt lat="43.46831" lon="6.43049">
        <ele>229.3</ele>
        <time>2026-01-25T13:31:28.000Z</time>
      </trkpt>
      <trkpt lat="43.4684" lon="6.43051">
        <ele>229.7</ele>
        <time>2026-01-25T13:31:38.000Z</time>
      </trkpt>
      <trkpt lat="43.4685" lon="6.43052">
        <ele>230.5</ele>
        <time>2026-01-25T13:31:49.000Z</time>
      </trkpt>
      <trkpt lat="43.46859" lon="6.43052">
        <ele>231.3</ele>
        <time>2026-01-25T13:32:01.000Z</time>
      </trkpt>
      <trkpt lat="43.46869" lon="6.43052">
        <ele>232</ele>
        <time>2026-01-25T13:32:13.000Z</time>
      </trkpt>
      <trkpt lat="43.46878" lon="6.43053">
        <ele>232.4</ele>
        <time>2026-01-25T13:32:24.000Z</time>
      </trkpt>
      <trkpt lat="43.46888" lon="6.43054">
        <ele>233</ele>
        <time>2026-01-25T13:32:35.000Z</time>
      </trkpt>
      <trkpt lat="43.46897" lon="6.43055">
        <ele>233.5</ele>
        <time>2026-01-25T13:32:46.000Z</time>
      </trkpt>
      <trkpt lat="43.46906" lon="6.43058">
        <ele>234.3</ele>
        <time>2026-01-25T13:32:57.000Z</time>
      </trkpt>
      <trkpt lat="43.46916" lon="6.43059">
        <ele>234.9</ele>
        <time>2026-01-25T13:33:08.000Z</time>
      </trkpt>
      <trkpt lat="43.46919" lon="6.43062">
        <ele>235.4</ele>
        <time>2026-01-25T13:33:36.000Z</time>
      </trkpt>
      <trkpt lat="43.46919" lon="6.43064">
        <ele>235.4</ele>
        <time>2026-01-25T13:34:17.000Z</time>
      </trkpt>
      <trkpt lat="43.46918" lon="6.43065">
        <ele>235.4</ele>
        <time>2026-01-25T13:34:28.000Z</time>
      </trkpt>
      <trkpt lat="43.46916" lon="6.43065">
        <ele>235.2</ele>
        <time>2026-01-25T13:34:48.000Z</time>
      </trkpt>
      <trkpt lat="43.46916" lon="6.43066">
        <ele>235.2</ele>
        <time>2026-01-25T13:34:59.000Z</time>
      </trkpt>
      <trkpt lat="43.46916" lon="6.43066">
        <ele>235.1</ele>
        <time>2026-01-25T13:35:11.000Z</time>
      </trkpt>
      <trkpt lat="43.46916" lon="6.43066">
        <ele>235</ele>
        <time>2026-01-25T13:35:18.000Z</time>
      </trkpt>
      <trkpt lat="43.46917" lon="6.43067">
        <ele>234.9</ele>
        <time>2026-01-25T13:35:27.000Z</time>
      </trkpt>
      <trkpt lat="43.46917" lon="6.43066">
        <ele>234.8</ele>
        <time>2026-01-25T13:35:38.000Z</time>
      </trkpt>
      <trkpt lat="43.46923" lon="6.43066">
        <ele>234.4</ele>
        <time>2026-01-25T13:36:48.000Z</time>
      </trkpt>
      <trkpt lat="43.46932" lon="6.43066">
        <ele>234.3</ele>
        <time>2026-01-25T13:36:57.000Z</time>
      </trkpt>
      <trkpt lat="43.4694" lon="6.43067">
        <ele>234.5</ele>
        <time>2026-01-25T13:37:27.000Z</time>
      </trkpt>
      <trkpt lat="43.46944" lon="6.43067">
        <ele>234.5</ele>
        <time>2026-01-25T13:37:38.000Z</time>
      </trkpt>
      <trkpt lat="43.46953" lon="6.43068">
        <ele>234.5</ele>
        <time>2026-01-25T13:37:49.000Z</time>
      </trkpt>
      <trkpt lat="43.46962" lon="6.4307">
        <ele>234.8</ele>
        <time>2026-01-25T13:38:01.000Z</time>
      </trkpt>
      <trkpt lat="43.46972" lon="6.4307">
        <ele>235.3</ele>
        <time>2026-01-25T13:38:14.000Z</time>
      </trkpt>
      <trkpt lat="43.46981" lon="6.4307">
        <ele>235.8</ele>
        <time>2026-01-25T13:38:24.000Z</time>
      </trkpt>
      <trkpt lat="43.4699" lon="6.43072">
        <ele>236.4</ele>
        <time>2026-01-25T13:38:36.000Z</time>
      </trkpt>
      <trkpt lat="43.47" lon="6.43073">
        <ele>236.8</ele>
        <time>2026-01-25T13:38:45.000Z</time>
      </trkpt>
      <trkpt lat="43.47009" lon="6.43074">
        <ele>237.3</ele>
        <time>2026-01-25T13:38:55.000Z</time>
      </trkpt>
      <trkpt lat="43.47018" lon="6.43075">
        <ele>238</ele>
        <time>2026-01-25T13:39:04.000Z</time>
      </trkpt>
      <trkpt lat="43.47028" lon="6.43076">
        <ele>238.5</ele>
        <time>2026-01-25T13:39:14.000Z</time>
      </trkpt>
      <trkpt lat="43.47038" lon="6.43075">
        <ele>239</ele>
        <time>2026-01-25T13:39:25.000Z</time>
      </trkpt>
      <trkpt lat="43.47047" lon="6.43076">
        <ele>239.5</ele>
        <time>2026-01-25T13:39:36.000Z</time>
      </trkpt>
      <trkpt lat="43.47057" lon="6.43073">
        <ele>240</ele>
        <time>2026-01-25T13:39:52.000Z</time>
      </trkpt>
      <trkpt lat="43.47066" lon="6.4307">
        <ele>240.7</ele>
        <time>2026-01-25T13:40:20.000Z</time>
      </trkpt>
      <trkpt lat="43.47068" lon="6.4307">
        <ele>240.8</ele>
        <time>2026-01-25T13:40:37.000Z</time>
      </trkpt>
      <trkpt lat="43.4707" lon="6.43067">
        <ele>240.8</ele>
        <time>2026-01-25T13:41:00.000Z</time>
      </trkpt>
      <trkpt lat="43.4708" lon="6.43065">
        <ele>240.8</ele>
        <time>2026-01-25T13:41:11.000Z</time>
      </trkpt>
      <trkpt lat="43.47088" lon="6.43062">
        <ele>240.7</ele>
        <time>2026-01-25T13:41:52.000Z</time>
      </trkpt>
      <trkpt lat="43.47097" lon="6.43059">
        <ele>240.7</ele>
        <time>2026-01-25T13:42:11.000Z</time>
      </trkpt>
      <trkpt lat="43.47106" lon="6.43057">
        <ele>240.8</ele>
        <time>2026-01-25T13:42:33.000Z</time>
      </trkpt>
      <trkpt lat="43.47115" lon="6.43052">
        <ele>240.9</ele>
        <time>2026-01-25T13:42:44.000Z</time>
      </trkpt>
      <trkpt lat="43.47125" lon="6.43053">
        <ele>241</ele>
        <time>2026-01-25T13:42:54.000Z</time>
      </trkpt>
      <trkpt lat="43.47135" lon="6.43053">
        <ele>241.2</ele>
        <time>2026-01-25T13:43:05.000Z</time>
      </trkpt>
      <trkpt lat="43.47144" lon="6.43053">
        <ele>241.9</ele>
        <time>2026-01-25T13:43:18.000Z</time>
      </trkpt>
      <trkpt lat="43.47151" lon="6.43044">
        <ele>242.8</ele>
        <time>2026-01-25T13:43:36.000Z</time>
      </trkpt>
      <trkpt lat="43.4716" lon="6.43039">
        <ele>243.7</ele>
        <time>2026-01-25T13:43:49.000Z</time>
      </trkpt>
      <trkpt lat="43.47166" lon="6.4303">
        <ele>244.8</ele>
        <time>2026-01-25T13:44:00.000Z</time>
      </trkpt>
      <trkpt lat="43.47169" lon="6.43018">
        <ele>246.3</ele>
        <time>2026-01-25T13:44:13.000Z</time>
      </trkpt>
      <trkpt lat="43.47171" lon="6.43005">
        <ele>248</ele>
        <time>2026-01-25T13:44:27.000Z</time>
      </trkpt>
      <trkpt lat="43.4718" lon="6.43006">
        <ele>249.6</ele>
        <time>2026-01-25T13:44:42.000Z</time>
      </trkpt>
      <trkpt lat="43.47182" lon="6.43009">
        <ele>250.2</ele>
        <time>2026-01-25T13:45:20.000Z</time>
      </trkpt>
      <trkpt lat="43.47183" lon="6.43008">
        <ele>250</ele>
        <time>2026-01-25T13:46:04.000Z</time>
      </trkpt>
      <trkpt lat="43.47183" lon="6.43008">
        <ele>250</ele>
        <time>2026-01-25T13:46:12.000Z</time>
      </trkpt>
      <trkpt lat="43.47187" lon="6.43006">
        <ele>249.2</ele>
        <time>2026-01-25T13:47:41.000Z</time>
      </trkpt>
      <trkpt lat="43.47193" lon="6.42996">
        <ele>249.2</ele>
        <time>2026-01-25T13:47:52.000Z</time>
      </trkpt>
      <trkpt lat="43.47201" lon="6.42989">
        <ele>249.5</ele>
        <time>2026-01-25T13:48:05.000Z</time>
      </trkpt>
      <trkpt lat="43.47209" lon="6.42983">
        <ele>251</ele>
        <time>2026-01-25T13:48:16.000Z</time>
      </trkpt>
      <trkpt lat="43.47216" lon="6.42975">
        <ele>252.6</ele>
        <time>2026-01-25T13:48:28.000Z</time>
      </trkpt>
      <trkpt lat="43.47225" lon="6.42978">
        <ele>253.9</ele>
        <time>2026-01-25T13:48:54.000Z</time>
      </trkpt>
      <trkpt lat="43.47234" lon="6.42978">
        <ele>254</ele>
        <time>2026-01-25T13:49:12.000Z</time>
      </trkpt>
      <trkpt lat="43.47244" lon="6.42981">
        <ele>254.1</ele>
        <time>2026-01-25T13:49:22.000Z</time>
      </trkpt>
      <trkpt lat="43.47253" lon="6.42983">
        <ele>254.2</ele>
        <time>2026-01-25T13:49:32.000Z</time>
      </trkpt>
      <trkpt lat="43.47262" lon="6.42985">
        <ele>254.3</ele>
        <time>2026-01-25T13:49:42.000Z</time>
      </trkpt>
      <trkpt lat="43.47272" lon="6.42987">
        <ele>254.4</ele>
        <time>2026-01-25T13:49:52.000Z</time>
      </trkpt>
      <trkpt lat="43.47281" lon="6.42988">
        <ele>254.4</ele>
        <time>2026-01-25T13:50:02.000Z</time>
      </trkpt>
      <trkpt lat="43.47291" lon="6.42991">
        <ele>254.5</ele>
        <time>2026-01-25T13:50:13.000Z</time>
      </trkpt>
      <trkpt lat="43.473" lon="6.42992">
        <ele>254.6</ele>
        <time>2026-01-25T13:50:24.000Z</time>
      </trkpt>
      <trkpt lat="43.47309" lon="6.42993">
        <ele>254.8</ele>
        <time>2026-01-25T13:50:34.000Z</time>
      </trkpt>
      <trkpt lat="43.47318" lon="6.42992">
        <ele>255.1</ele>
        <time>2026-01-25T13:50:43.000Z</time>
      </trkpt>
      <trkpt lat="43.47328" lon="6.42993">
        <ele>255.4</ele>
        <time>2026-01-25T13:50:53.000Z</time>
      </trkpt>
      <trkpt lat="43.47337" lon="6.42992">
        <ele>255.7</ele>
        <time>2026-01-25T13:51:03.000Z</time>
      </trkpt>
      <trkpt lat="43.47347" lon="6.4299">
        <ele>256</ele>
        <time>2026-01-25T13:51:13.000Z</time>
      </trkpt>
      <trkpt lat="43.47356" lon="6.42992">
        <ele>256.2</ele>
        <time>2026-01-25T13:51:23.000Z</time>
      </trkpt>
      <trkpt lat="43.47365" lon="6.42992">
        <ele>256.3</ele>
        <time>2026-01-25T13:51:34.000Z</time>
      </trkpt>
      <trkpt lat="43.47375" lon="6.42992">
        <ele>256.4</ele>
        <time>2026-01-25T13:51:44.000Z</time>
      </trkpt>
      <trkpt lat="43.47385" lon="6.42992">
        <ele>256.4</ele>
        <time>2026-01-25T13:51:53.000Z</time>
      </trkpt>
      <trkpt lat="43.47394" lon="6.42996">
        <ele>256.2</ele>
        <time>2026-01-25T13:52:09.000Z</time>
      </trkpt>
      <trkpt lat="43.47401" lon="6.43003">
        <ele>255.7</ele>
        <time>2026-01-25T13:52:29.000Z</time>
      </trkpt>
      <trkpt lat="43.4741" lon="6.43006">
        <ele>255</ele>
        <time>2026-01-25T13:52:50.000Z</time>
      </trkpt>
      <trkpt lat="43.4742" lon="6.43009">
        <ele>254.9</ele>
        <time>2026-01-25T13:53:03.000Z</time>
      </trkpt>
      <trkpt lat="43.47429" lon="6.43009">
        <ele>255</ele>
        <time>2026-01-25T13:53:12.000Z</time>
      </trkpt>
      <trkpt lat="43.47438" lon="6.43011">
        <ele>255.2</ele>
        <time>2026-01-25T13:53:21.000Z</time>
      </trkpt>
      <trkpt lat="43.47448" lon="6.43014">
        <ele>255.5</ele>
        <time>2026-01-25T13:53:30.000Z</time>
      </trkpt>
      <trkpt lat="43.47456" lon="6.43018">
        <ele>255.5</ele>
        <time>2026-01-25T13:53:39.000Z</time>
      </trkpt>
      <trkpt lat="43.47466" lon="6.43019">
        <ele>255.2</ele>
        <time>2026-01-25T13:53:53.000Z</time>
      </trkpt>
      <trkpt lat="43.47475" lon="6.43016">
        <ele>254.9</ele>
        <time>2026-01-25T13:54:07.000Z</time>
      </trkpt>
      <trkpt lat="43.47485" lon="6.43016">
        <ele>254.6</ele>
        <time>2026-01-25T13:54:20.000Z</time>
      </trkpt>
      <trkpt lat="43.47494" lon="6.43017">
        <ele>254.4</ele>
        <time>2026-01-25T13:54:32.000Z</time>
      </trkpt>
      <trkpt lat="43.47503" lon="6.43012">
        <ele>254.1</ele>
        <time>2026-01-25T13:54:44.000Z</time>
      </trkpt>
      <trkpt lat="43.47511" lon="6.43007">
        <ele>253.9</ele>
        <time>2026-01-25T13:54:58.000Z</time>
      </trkpt>
      <trkpt lat="43.4752" lon="6.43006">
        <ele>253.3</ele>
        <time>2026-01-25T13:55:11.000Z</time>
      </trkpt>
      <trkpt lat="43.47529" lon="6.43008">
        <ele>252.5</ele>
        <time>2026-01-25T13:55:22.000Z</time>
      </trkpt>
      <trkpt lat="43.47538" lon="6.43005">
        <ele>251.2</ele>
        <time>2026-01-25T13:55:50.000Z</time>
      </trkpt>
      <trkpt lat="43.47548" lon="6.43004">
        <ele>250.5</ele>
        <time>2026-01-25T13:56:02.000Z</time>
      </trkpt>
      <trkpt lat="43.47557" lon="6.43">
        <ele>249.3</ele>
        <time>2026-01-25T13:56:17.000Z</time>
      </trkpt>
      <trkpt lat="43.47565" lon="6.42996">
        <ele>248.8</ele>
        <time>2026-01-25T13:56:27.000Z</time>
      </trkpt>
      <trkpt lat="43.47574" lon="6.42993">
        <ele>248.4</ele>
        <time>2026-01-25T13:56:37.000Z</time>
      </trkpt>
      <trkpt lat="43.47584" lon="6.42993">
        <ele>248</ele>
        <time>2026-01-25T13:56:45.000Z</time>
      </trkpt>
      <trkpt lat="43.47593" lon="6.42988">
        <ele>247.5</ele>
        <time>2026-01-25T13:56:54.000Z</time>
      </trkpt>
      <trkpt lat="43.47602" lon="6.42985">
        <ele>246.7</ele>
        <time>2026-01-25T13:57:04.000Z</time>
      </trkpt>
      <trkpt lat="43.47611" lon="6.42981">
        <ele>245.8</ele>
        <time>2026-01-25T13:57:14.000Z</time>
      </trkpt>
      <trkpt lat="43.4762" lon="6.42977">
        <ele>245.1</ele>
        <time>2026-01-25T13:57:25.000Z</time>
      </trkpt>
      <trkpt lat="43.4763" lon="6.42975">
        <ele>244.7</ele>
        <time>2026-01-25T13:57:33.000Z</time>
      </trkpt>
      <trkpt lat="43.4764" lon="6.42972">
        <ele>244.2</ele>
        <time>2026-01-25T13:57:44.000Z</time>
      </trkpt>
      <trkpt lat="43.47649" lon="6.42972">
        <ele>243.6</ele>
        <time>2026-01-25T13:57:55.000Z</time>
      </trkpt>
      <trkpt lat="43.47659" lon="6.42973">
        <ele>242.8</ele>
        <time>2026-01-25T13:58:06.000Z</time>
      </trkpt>
      <trkpt lat="43.47668" lon="6.4297">
        <ele>242.1</ele>
        <time>2026-01-25T13:58:15.000Z</time>
      </trkpt>
      <trkpt lat="43.47678" lon="6.42968">
        <ele>241.2</ele>
        <time>2026-01-25T13:58:27.000Z</time>
      </trkpt>
      <trkpt lat="43.47687" lon="6.42965">
        <ele>240.3</ele>
        <time>2026-01-25T13:58:39.000Z</time>
      </trkpt>
      <trkpt lat="43.47696" lon="6.42963">
        <ele>239.3</ele>
        <time>2026-01-25T13:58:49.000Z</time>
      </trkpt>
      <trkpt lat="43.47706" lon="6.4296">
        <ele>238.3</ele>
        <time>2026-01-25T13:59:01.000Z</time>
      </trkpt>
      <trkpt lat="43.47715" lon="6.42959">
        <ele>237.4</ele>
        <time>2026-01-25T13:59:14.000Z</time>
      </trkpt>
      <trkpt lat="43.47724" lon="6.42959">
        <ele>236.7</ele>
        <time>2026-01-25T13:59:26.000Z</time>
      </trkpt>
      <trkpt lat="43.47733" lon="6.42956">
        <ele>236</ele>
        <time>2026-01-25T13:59:38.000Z</time>
      </trkpt>
      <trkpt lat="43.47743" lon="6.42953">
        <ele>235.4</ele>
        <time>2026-01-25T13:59:48.000Z</time>
      </trkpt>
      <trkpt lat="43.47753" lon="6.42952">
        <ele>234.7</ele>
        <time>2026-01-25T13:59:57.000Z</time>
      </trkpt>
      <trkpt lat="43.47762" lon="6.42951">
        <ele>233.5</ele>
        <time>2026-01-25T14:00:18.000Z</time>
      </trkpt>
      <trkpt lat="43.47771" lon="6.42949">
        <ele>232.9</ele>
        <time>2026-01-25T14:00:31.000Z</time>
      </trkpt>
      <trkpt lat="43.47773" lon="6.42945">
        <ele>232.5</ele>
        <time>2026-01-25T14:00:50.000Z</time>
      </trkpt>
      <trkpt lat="43.47776" lon="6.42943">
        <ele>232.2</ele>
        <time>2026-01-25T14:01:09.000Z</time>
      </trkpt>
      <trkpt lat="43.47786" lon="6.42944">
        <ele>231.9</ele>
        <time>2026-01-25T14:01:20.000Z</time>
      </trkpt>
      <trkpt lat="43.47795" lon="6.42944">
        <ele>231.5</ele>
        <time>2026-01-25T14:01:28.000Z</time>
      </trkpt>
      <trkpt lat="43.47806" lon="6.42944">
        <ele>230.5</ele>
        <time>2026-01-25T14:01:39.000Z</time>
      </trkpt>
      <trkpt lat="43.47815" lon="6.42941">
        <ele>228.8</ele>
        <time>2026-01-25T14:02:02.000Z</time>
      </trkpt>
      <trkpt lat="43.47824" lon="6.42943">
        <ele>228.4</ele>
        <time>2026-01-25T14:02:11.000Z</time>
      </trkpt>
      <trkpt lat="43.47827" lon="6.42939">
        <ele>227.8</ele>
        <time>2026-01-25T14:02:28.000Z</time>
      </trkpt>
      <trkpt lat="43.4783" lon="6.42938">
        <ele>227.7</ele>
        <time>2026-01-25T14:02:33.000Z</time>
      </trkpt>
      <trkpt lat="43.47832" lon="6.42926">
        <ele>227.5</ele>
        <time>2026-01-25T14:02:45.000Z</time>
      </trkpt>
      <trkpt lat="43.47835" lon="6.42915">
        <ele>227.2</ele>
        <time>2026-01-25T14:03:17.000Z</time>
      </trkpt>
      <trkpt lat="43.47839" lon="6.42904">
        <ele>226.8</ele>
        <time>2026-01-25T14:03:41.000Z</time>
      </trkpt>
      <trkpt lat="43.47839" lon="6.42915">
        <ele>226.9</ele>
        <time>2026-01-25T14:04:59.000Z</time>
      </trkpt>
      <trkpt lat="43.47838" lon="6.42917">
        <ele>226.9</ele>
        <time>2026-01-25T14:05:09.000Z</time>
      </trkpt>
      <trkpt lat="43.47837" lon="6.42913">
        <ele>227</ele>
        <time>2026-01-25T14:05:36.000Z</time>
      </trkpt>
      <trkpt lat="43.47837" lon="6.42914">
        <ele>227.1</ele>
        <time>2026-01-25T14:05:47.000Z</time>
      </trkpt>
      <trkpt lat="43.4783" lon="6.42913">
        <ele>227.4</ele>
        <time>2026-01-25T14:06:58.000Z</time>
      </trkpt>
      <trkpt lat="43.47833" lon="6.42916">
        <ele>227.4</ele>
        <time>2026-01-25T14:07:09.000Z</time>
      </trkpt>
      <trkpt lat="43.47833" lon="6.42915">
        <ele>227.3</ele>
        <time>2026-01-25T14:09:00.000Z</time>
      </trkpt>
      <trkpt lat="43.4784" lon="6.42924">
        <ele>227.2</ele>
        <time>2026-01-25T14:09:24.000Z</time>
      </trkpt>
      <trkpt lat="43.47848" lon="6.42932">
        <ele>227.1</ele>
        <time>2026-01-25T14:09:40.000Z</time>
      </trkpt>
      <trkpt lat="43.47856" lon="6.42925">
        <ele>227</ele>
        <time>2026-01-25T14:09:50.000Z</time>
      </trkpt>
      <trkpt lat="43.47864" lon="6.42917">
        <ele>226.8</ele>
        <time>2026-01-25T14:10:00.000Z</time>
      </trkpt>
      <trkpt lat="43.47864" lon="6.42904">
        <ele>226.6</ele>
        <time>2026-01-25T14:10:08.000Z</time>
      </trkpt>
      <trkpt lat="43.47863" lon="6.42891">
        <ele>226.4</ele>
        <time>2026-01-25T14:10:17.000Z</time>
      </trkpt>
      <trkpt lat="43.47862" lon="6.42877">
        <ele>225.9</ele>
        <time>2026-01-25T14:10:27.000Z</time>
      </trkpt>
      <trkpt lat="43.47861" lon="6.42864">
        <ele>225.2</ele>
        <time>2026-01-25T14:10:38.000Z</time>
      </trkpt>
      <trkpt lat="43.47866" lon="6.42852">
        <ele>224.7</ele>
        <time>2026-01-25T14:10:48.000Z</time>
      </trkpt>
      <trkpt lat="43.47875" lon="6.42848">
        <ele>223.5</ele>
        <time>2026-01-25T14:11:07.000Z</time>
      </trkpt>
      <trkpt lat="43.47884" lon="6.42848">
        <ele>223</ele>
        <time>2026-01-25T14:11:14.000Z</time>
      </trkpt>
      <trkpt lat="43.47893" lon="6.42843">
        <ele>222.8</ele>
        <time>2026-01-25T14:11:24.000Z</time>
      </trkpt>
      <trkpt lat="43.47903" lon="6.42844">
        <ele>222.8</ele>
        <time>2026-01-25T14:11:34.000Z</time>
      </trkpt>
      <trkpt lat="43.47912" lon="6.42843">
        <ele>222.8</ele>
        <time>2026-01-25T14:11:44.000Z</time>
      </trkpt>
      <trkpt lat="43.47921" lon="6.42842">
        <ele>222.9</ele>
        <time>2026-01-25T14:11:52.000Z</time>
      </trkpt>
      <trkpt lat="43.47931" lon="6.4284">
        <ele>222.9</ele>
        <time>2026-01-25T14:12:00.000Z</time>
      </trkpt>
      <trkpt lat="43.4794" lon="6.42837">
        <ele>223</ele>
        <time>2026-01-25T14:12:08.000Z</time>
      </trkpt>
      <trkpt lat="43.47949" lon="6.42835">
        <ele>222.9</ele>
        <time>2026-01-25T14:12:19.000Z</time>
      </trkpt>
      <trkpt lat="43.47959" lon="6.42834">
        <ele>222.9</ele>
        <time>2026-01-25T14:12:29.000Z</time>
      </trkpt>
      <trkpt lat="43.47969" lon="6.42835">
        <ele>222.8</ele>
        <time>2026-01-25T14:12:37.000Z</time>
      </trkpt>
      <trkpt lat="43.47978" lon="6.42833">
        <ele>222.7</ele>
        <time>2026-01-25T14:12:46.000Z</time>
      </trkpt>
      <trkpt lat="43.47988" lon="6.42832">
        <ele>222.7</ele>
        <time>2026-01-25T14:12:55.000Z</time>
      </trkpt>
      <trkpt lat="43.47998" lon="6.42829">
        <ele>222.7</ele>
        <time>2026-01-25T14:13:05.000Z</time>
      </trkpt>
      <trkpt lat="43.48007" lon="6.42829">
        <ele>222.8</ele>
        <time>2026-01-25T14:13:21.000Z</time>
      </trkpt>
      <trkpt lat="43.48016" lon="6.42825">
        <ele>222.4</ele>
        <time>2026-01-25T14:13:41.000Z</time>
      </trkpt>
      <trkpt lat="43.48025" lon="6.42824">
        <ele>221.5</ele>
        <time>2026-01-25T14:13:52.000Z</time>
      </trkpt>
      <trkpt lat="43.48034" lon="6.42818">
        <ele>221</ele>
        <time>2026-01-25T14:14:02.000Z</time>
      </trkpt>
      <trkpt lat="43.48043" lon="6.42819">
        <ele>220.7</ele>
        <time>2026-01-25T14:14:12.000Z</time>
      </trkpt>
      <trkpt lat="43.48053" lon="6.42819">
        <ele>220.5</ele>
        <time>2026-01-25T14:14:24.000Z</time>
      </trkpt>
      <trkpt lat="43.48062" lon="6.42822">
        <ele>220.4</ele>
        <time>2026-01-25T14:14:33.000Z</time>
      </trkpt>
      <trkpt lat="43.48071" lon="6.42817">
        <ele>220.3</ele>
        <time>2026-01-25T14:14:43.000Z</time>
      </trkpt>
      <trkpt lat="43.4808" lon="6.42812">
        <ele>220.3</ele>
        <time>2026-01-25T14:14:52.000Z</time>
      </trkpt>
      <trkpt lat="43.48082" lon="6.42799">
        <ele>220.3</ele>
        <time>2026-01-25T14:15:00.000Z</time>
      </trkpt>
      <trkpt lat="43.48084" lon="6.42786">
        <ele>220.1</ele>
        <time>2026-01-25T14:15:09.000Z</time>
      </trkpt>
      <trkpt lat="43.48086" lon="6.42774">
        <ele>220</ele>
        <time>2026-01-25T14:15:19.000Z</time>
      </trkpt>
      <trkpt lat="43.48095" lon="6.42779">
        <ele>219.8</ele>
        <time>2026-01-25T14:15:34.000Z</time>
      </trkpt>
      <trkpt lat="43.48097" lon="6.42781">
        <ele>219.8</ele>
        <time>2026-01-25T14:15:49.000Z</time>
      </trkpt>
      <trkpt lat="43.48097" lon="6.42781">
        <ele>219.8</ele>
        <time>2026-01-25T14:15:54.000Z</time>
      </trkpt>
      <trkpt lat="43.48096" lon="6.42779">
        <ele>219.9</ele>
        <time>2026-01-25T14:16:05.000Z</time>
      </trkpt>
      <trkpt lat="43.48097" lon="6.42782">
        <ele>219.9</ele>
        <time>2026-01-25T14:16:58.000Z</time>
      </trkpt>
      <trkpt lat="43.48106" lon="6.4279">
        <ele>219.9</ele>
        <time>2026-01-25T14:17:08.000Z</time>
      </trkpt>
      <trkpt lat="43.48115" lon="6.42795">
        <ele>220</ele>
        <time>2026-01-25T14:17:17.000Z</time>
      </trkpt>
      <trkpt lat="43.48123" lon="6.428">
        <ele>220.4</ele>
        <time>2026-01-25T14:17:29.000Z</time>
      </trkpt>
      <trkpt lat="43.48132" lon="6.42804">
        <ele>221.2</ele>
        <time>2026-01-25T14:17:43.000Z</time>
      </trkpt>
      <trkpt lat="43.4814" lon="6.42808">
        <ele>222.3</ele>
        <time>2026-01-25T14:18:01.000Z</time>
      </trkpt>
      <trkpt lat="43.48147" lon="6.42798">
        <ele>222.6</ele>
        <time>2026-01-25T14:18:11.000Z</time>
      </trkpt>
      <trkpt lat="43.48151" lon="6.42787">
        <ele>222.5</ele>
        <time>2026-01-25T14:18:23.000Z</time>
      </trkpt>
      <trkpt lat="43.48152" lon="6.42774">
        <ele>222.1</ele>
        <time>2026-01-25T14:18:38.000Z</time>
      </trkpt>
      <trkpt lat="43.48154" lon="6.42762">
        <ele>221.7</ele>
        <time>2026-01-25T14:18:47.000Z</time>
      </trkpt>
      <trkpt lat="43.48156" lon="6.42749">
        <ele>220.8</ele>
        <time>2026-01-25T14:18:56.000Z</time>
      </trkpt>
      <trkpt lat="43.48159" lon="6.42737">
        <ele>219.6</ele>
        <time>2026-01-25T14:19:08.000Z</time>
      </trkpt>
      <trkpt lat="43.48162" lon="6.42724">
        <ele>218.7</ele>
        <time>2026-01-25T14:19:20.000Z</time>
      </trkpt>
      <trkpt lat="43.48166" lon="6.42712">
        <ele>217.7</ele>
        <time>2026-01-25T14:19:33.000Z</time>
      </trkpt>
      <trkpt lat="43.48169" lon="6.427">
        <ele>216.9</ele>
        <time>2026-01-25T14:19:45.000Z</time>
      </trkpt>
      <trkpt lat="43.48172" lon="6.42688">
        <ele>216.1</ele>
        <time>2026-01-25T14:19:57.000Z</time>
      </trkpt>
      <trkpt lat="43.48174" lon="6.42675">
        <ele>215.4</ele>
        <time>2026-01-25T14:20:09.000Z</time>
      </trkpt>
      <trkpt lat="43.48178" lon="6.42663">
        <ele>214.8</ele>
        <time>2026-01-25T14:20:20.000Z</time>
      </trkpt>
      <trkpt lat="43.48181" lon="6.42651">
        <ele>214.3</ele>
        <time>2026-01-25T14:20:33.000Z</time>
      </trkpt>
      <trkpt lat="43.48186" lon="6.4264">
        <ele>214</ele>
        <time>2026-01-25T14:20:47.000Z</time>
      </trkpt>
      <trkpt lat="43.48188" lon="6.42627">
        <ele>213.9</ele>
        <time>2026-01-25T14:20:58.000Z</time>
      </trkpt>
      <trkpt lat="43.48192" lon="6.42615">
        <ele>213.9</ele>
        <time>2026-01-25T14:21:09.000Z</time>
      </trkpt>
      <trkpt lat="43.48197" lon="6.42605">
        <ele>213.9</ele>
        <time>2026-01-25T14:21:20.000Z</time>
      </trkpt>
      <trkpt lat="43.48201" lon="6.42593">
        <ele>214</ele>
        <time>2026-01-25T14:21:31.000Z</time>
      </trkpt>
      <trkpt lat="43.48199" lon="6.42589">
        <ele>214.5</ele>
        <time>2026-01-25T14:22:07.000Z</time>
      </trkpt>
      <trkpt lat="43.48204" lon="6.42585">
        <ele>214.6</ele>
        <time>2026-01-25T14:22:28.000Z</time>
      </trkpt>
      <trkpt lat="43.48207" lon="6.4258">
        <ele>215.2</ele>
        <time>2026-01-25T14:22:50.000Z</time>
      </trkpt>
      <trkpt lat="43.48208" lon="6.4258">
        <ele>215.3</ele>
        <time>2026-01-25T14:22:53.000Z</time>
      </trkpt>
      <trkpt lat="43.48217" lon="6.42581">
        <ele>215.7</ele>
        <time>2026-01-25T14:23:15.000Z</time>
      </trkpt>
      <trkpt lat="43.48226" lon="6.42586">
        <ele>215.9</ele>
        <time>2026-01-25T14:23:45.000Z</time>
      </trkpt>
      <trkpt lat="43.48229" lon="6.42599">
        <ele>215.9</ele>
        <time>2026-01-25T14:24:30.000Z</time>
      </trkpt>
      <trkpt lat="43.48232" lon="6.42608">
        <ele>215.3</ele>
        <time>2026-01-25T14:24:53.000Z</time>
      </trkpt>
      <trkpt lat="43.48234" lon="6.42605">
        <ele>215.4</ele>
        <time>2026-01-25T14:25:20.000Z</time>
      </trkpt>
      <trkpt lat="43.48243" lon="6.42601">
        <ele>215.4</ele>
        <time>2026-01-25T14:25:39.000Z</time>
      </trkpt>
      <trkpt lat="43.48253" lon="6.42598">
        <ele>215.5</ele>
        <time>2026-01-25T14:25:52.000Z</time>
      </trkpt>
      <trkpt lat="43.48257" lon="6.42591">
        <ele>216.3</ele>
        <time>2026-01-25T14:26:34.000Z</time>
      </trkpt>
      <trkpt lat="43.48258" lon="6.42592">
        <ele>216.5</ele>
        <time>2026-01-25T14:26:36.000Z</time>
      </trkpt>
      <trkpt lat="43.4826" lon="6.4258">
        <ele>216.8</ele>
        <time>2026-01-25T14:26:51.000Z</time>
      </trkpt>
      <trkpt lat="43.48254" lon="6.4257">
        <ele>218.4</ele>
        <time>2026-01-25T14:27:17.000Z</time>
      </trkpt>
      <trkpt lat="43.48246" lon="6.42562">
        <ele>218.7</ele>
        <time>2026-01-25T14:27:31.000Z</time>
      </trkpt>
      <trkpt lat="43.48237" lon="6.42559">
        <ele>219</ele>
        <time>2026-01-25T14:27:44.000Z</time>
      </trkpt>
      <trkpt lat="43.48229" lon="6.42551">
        <ele>219</ele>
        <time>2026-01-25T14:27:52.000Z</time>
      </trkpt>
      <trkpt lat="43.48221" lon="6.42544">
        <ele>218.8</ele>
        <time>2026-01-25T14:28:17.000Z</time>
      </trkpt>
      <trkpt lat="43.48226" lon="6.42555">
        <ele>218.4</ele>
        <time>2026-01-25T14:29:09.000Z</time>
      </trkpt>
      <trkpt lat="43.48236" lon="6.42555">
        <ele>218.6</ele>
        <time>2026-01-25T14:29:20.000Z</time>
      </trkpt>
      <trkpt lat="43.4824" lon="6.42544">
        <ele>218.9</ele>
        <time>2026-01-25T14:29:29.000Z</time>
      </trkpt>
      <trkpt lat="43.48247" lon="6.4254">
        <ele>220.1</ele>
        <time>2026-01-25T14:29:51.000Z</time>
      </trkpt>
      <trkpt lat="43.48247" lon="6.42539">
        <ele>220.1</ele>
        <time>2026-01-25T14:29:55.000Z</time>
      </trkpt>
      <trkpt lat="43.48247" lon="6.42537">
        <ele>220.3</ele>
        <time>2026-01-25T14:30:08.000Z</time>
      </trkpt>
      <trkpt lat="43.48249" lon="6.42532">
        <ele>220.3</ele>
        <time>2026-01-25T14:30:53.000Z</time>
      </trkpt>
      <trkpt lat="43.48255" lon="6.42523">
        <ele>220.5</ele>
        <time>2026-01-25T14:31:14.000Z</time>
      </trkpt>
      <trkpt lat="43.48259" lon="6.42512">
        <ele>220.6</ele>
        <time>2026-01-25T14:31:27.000Z</time>
      </trkpt>
      <trkpt lat="43.48263" lon="6.425">
        <ele>220.9</ele>
        <time>2026-01-25T14:31:38.000Z</time>
      </trkpt>
      <trkpt lat="43.48266" lon="6.42488">
        <ele>221</ele>
        <time>2026-01-25T14:31:48.000Z</time>
      </trkpt>
      <trkpt lat="43.4826" lon="6.42478">
        <ele>220.9</ele>
        <time>2026-01-25T14:31:59.000Z</time>
      </trkpt>
      <trkpt lat="43.48264" lon="6.42466">
        <ele>219.7</ele>
        <time>2026-01-25T14:32:19.000Z</time>
      </trkpt>
      <trkpt lat="43.48271" lon="6.42459">
        <ele>219.6</ele>
        <time>2026-01-25T14:32:40.000Z</time>
      </trkpt>
      <trkpt lat="43.48269" lon="6.42454">
        <ele>219.5</ele>
        <time>2026-01-25T14:33:10.000Z</time>
      </trkpt>
      <trkpt lat="43.4827" lon="6.42451">
        <ele>220.1</ele>
        <time>2026-01-25T14:33:34.000Z</time>
      </trkpt>
      <trkpt lat="43.48271" lon="6.42452">
        <ele>220</ele>
        <time>2026-01-25T14:33:45.000Z</time>
      </trkpt>
      <trkpt lat="43.48266" lon="6.42457">
        <ele>219.8</ele>
        <time>2026-01-25T14:35:09.000Z</time>
      </trkpt>
      <trkpt lat="43.48275" lon="6.42459">
        <ele>219.8</ele>
        <time>2026-01-25T14:35:17.000Z</time>
      </trkpt>
      <trkpt lat="43.48284" lon="6.42458">
        <ele>219.8</ele>
        <time>2026-01-25T14:35:32.000Z</time>
      </trkpt>
      <trkpt lat="43.48292" lon="6.42452">
        <ele>219.9</ele>
        <time>2026-01-25T14:35:43.000Z</time>
      </trkpt>
      <trkpt lat="43.48296" lon="6.4244">
        <ele>219.9</ele>
        <time>2026-01-25T14:36:20.000Z</time>
      </trkpt>
      <trkpt lat="43.48298" lon="6.42443">
        <ele>219.9</ele>
        <time>2026-01-25T14:36:44.000Z</time>
      </trkpt>
      <trkpt lat="43.48294" lon="6.4245">
        <ele>219.9</ele>
        <time>2026-01-25T14:36:52.000Z</time>
      </trkpt>
      <trkpt lat="43.48299" lon="6.42455">
        <ele>219.8</ele>
        <time>2026-01-25T14:37:11.000Z</time>
      </trkpt>
      <trkpt lat="43.48298" lon="6.42452">
        <ele>219.8</ele>
        <time>2026-01-25T14:37:19.000Z</time>
      </trkpt>
      <trkpt lat="43.48305" lon="6.42443">
        <ele>219.8</ele>
        <time>2026-01-25T14:37:28.000Z</time>
      </trkpt>
      <trkpt lat="43.48314" lon="6.42438">
        <ele>219.7</ele>
        <time>2026-01-25T14:37:36.000Z</time>
      </trkpt>
      <trkpt lat="43.48321" lon="6.4243">
        <ele>219.2</ele>
        <time>2026-01-25T14:37:55.000Z</time>
      </trkpt>
      <trkpt lat="43.48327" lon="6.42422">
        <ele>218.3</ele>
        <time>2026-01-25T14:38:12.000Z</time>
      </trkpt>
      <trkpt lat="43.48335" lon="6.42414">
        <ele>216.7</ele>
        <time>2026-01-25T14:38:31.000Z</time>
      </trkpt>
      <trkpt lat="43.4834" lon="6.42411">
        <ele>215.4</ele>
        <time>2026-01-25T14:38:57.000Z</time>
      </trkpt>
      <trkpt lat="43.48342" lon="6.4241">
        <ele>215.4</ele>
        <time>2026-01-25T14:39:01.000Z</time>
      </trkpt>
      <trkpt lat="43.48351" lon="6.42413">
        <ele>215</ele>
        <time>2026-01-25T14:39:12.000Z</time>
      </trkpt>
      <trkpt lat="43.48355" lon="6.42414">
        <ele>214.4</ele>
        <time>2026-01-25T14:39:29.000Z</time>
      </trkpt>
      <trkpt lat="43.48358" lon="6.42415">
        <ele>214.1</ele>
        <time>2026-01-25T14:39:49.000Z</time>
      </trkpt>
      <trkpt lat="43.48357" lon="6.42412">
        <ele>213.9</ele>
        <time>2026-01-25T14:40:23.000Z</time>
      </trkpt>
      <trkpt lat="43.48357" lon="6.42411">
        <ele>213.9</ele>
        <time>2026-01-25T14:41:19.000Z</time>
      </trkpt>
      <trkpt lat="43.48357" lon="6.42411">
        <ele>213.9</ele>
        <time>2026-01-25T14:41:31.000Z</time>
      </trkpt>
      <trkpt lat="43.48356" lon="6.4241">
        <ele>214</ele>
        <time>2026-01-25T14:41:59.000Z</time>
      </trkpt>
      <trkpt lat="43.48365" lon="6.42412">
        <ele>213.9</ele>
        <time>2026-01-25T14:42:34.000Z</time>
      </trkpt>
      <trkpt lat="43.48374" lon="6.42415">
        <ele>213.5</ele>
        <time>2026-01-25T14:42:44.000Z</time>
      </trkpt>
      <trkpt lat="43.48383" lon="6.42416">
        <ele>212.3</ele>
        <time>2026-01-25T14:42:55.000Z</time>
      </trkpt>
      <trkpt lat="43.48392" lon="6.4242">
        <ele>210.6</ele>
        <time>2026-01-25T14:43:07.000Z</time>
      </trkpt>
      <trkpt lat="43.48401" lon="6.42426">
        <ele>209.5</ele>
        <time>2026-01-25T14:43:16.000Z</time>
      </trkpt>
      <trkpt lat="43.48408" lon="6.42435">
        <ele>208.7</ele>
        <time>2026-01-25T14:43:26.000Z</time>
      </trkpt>
      <trkpt lat="43.48414" lon="6.42445">
        <ele>207.8</ele>
        <time>2026-01-25T14:43:35.000Z</time>
      </trkpt>
      <trkpt lat="43.48422" lon="6.42452">
        <ele>206.6</ele>
        <time>2026-01-25T14:43:44.000Z</time>
      </trkpt>
      <trkpt lat="43.48429" lon="6.42461">
        <ele>205.2</ele>
        <time>2026-01-25T14:43:54.000Z</time>
      </trkpt>
      <trkpt lat="43.48436" lon="6.42471">
        <ele>204</ele>
        <time>2026-01-25T14:44:04.000Z</time>
      </trkpt>
      <trkpt lat="43.48442" lon="6.42481">
        <ele>203.1</ele>
        <time>2026-01-25T14:44:16.000Z</time>
      </trkpt>
      <trkpt lat="43.48447" lon="6.42492">
        <ele>202.1</ele>
        <time>2026-01-25T14:44:27.000Z</time>
      </trkpt>
      <trkpt lat="43.48448" lon="6.42505">
        <ele>200.6</ele>
        <time>2026-01-25T14:44:39.000Z</time>
      </trkpt>
      <trkpt lat="43.48446" lon="6.42517">
        <ele>198.7</ele>
        <time>2026-01-25T14:44:51.000Z</time>
      </trkpt>
      <trkpt lat="43.48452" lon="6.42527">
        <ele>197</ele>
        <time>2026-01-25T14:45:02.000Z</time>
      </trkpt>
      <trkpt lat="43.4846" lon="6.4252">
        <ele>196.2</ele>
        <time>2026-01-25T14:45:11.000Z</time>
      </trkpt>
      <trkpt lat="43.48467" lon="6.42512">
        <ele>195.5</ele>
        <time>2026-01-25T14:45:21.000Z</time>
      </trkpt>
      <trkpt lat="43.48475" lon="6.42504">
        <ele>194</ele>
        <time>2026-01-25T14:45:32.000Z</time>
      </trkpt>
      <trkpt lat="43.48484" lon="6.42496">
        <ele>193</ele>
        <time>2026-01-25T14:45:43.000Z</time>
      </trkpt>
      <trkpt lat="43.48493" lon="6.42493">
        <ele>192.7</ele>
        <time>2026-01-25T14:45:54.000Z</time>
      </trkpt>
      <trkpt lat="43.48502" lon="6.42497">
        <ele>192.6</ele>
        <time>2026-01-25T14:46:07.000Z</time>
      </trkpt>
      <trkpt lat="43.48506" lon="6.42508">
        <ele>193.2</ele>
        <time>2026-01-25T14:46:19.000Z</time>
      </trkpt>
      <trkpt lat="43.48506" lon="6.42522">
        <ele>194.2</ele>
        <time>2026-01-25T14:46:36.000Z</time>
      </trkpt>
      <trkpt lat="43.48505" lon="6.42535">
        <ele>194.6</ele>
        <time>2026-01-25T14:46:47.000Z</time>
      </trkpt>
      <trkpt lat="43.48507" lon="6.42549">
        <ele>195.3</ele>
        <time>2026-01-25T14:46:58.000Z</time>
      </trkpt>
      <trkpt lat="43.48508" lon="6.42561">
        <ele>195.8</ele>
        <time>2026-01-25T14:47:08.000Z</time>
      </trkpt>
      <trkpt lat="43.4851" lon="6.42574">
        <ele>196.1</ele>
        <time>2026-01-25T14:47:17.000Z</time>
      </trkpt>
      <trkpt lat="43.48512" lon="6.42586">
        <ele>196.5</ele>
        <time>2026-01-25T14:47:26.000Z</time>
      </trkpt>
      <trkpt lat="43.48515" lon="6.42599">
        <ele>196.9</ele>
        <time>2026-01-25T14:47:36.000Z</time>
      </trkpt>
      <trkpt lat="43.48518" lon="6.42611">
        <ele>197.6</ele>
        <time>2026-01-25T14:47:50.000Z</time>
      </trkpt>
      <trkpt lat="43.48522" lon="6.42622">
        <ele>199.1</ele>
        <time>2026-01-25T14:48:02.000Z</time>
      </trkpt>
      <trkpt lat="43.48529" lon="6.42632">
        <ele>200.3</ele>
        <time>2026-01-25T14:48:14.000Z</time>
      </trkpt>
      <trkpt lat="43.48536" lon="6.42638">
        <ele>201.5</ele>
        <time>2026-01-25T14:48:37.000Z</time>
      </trkpt>
      <trkpt lat="43.48544" lon="6.42646">
        <ele>202.1</ele>
        <time>2026-01-25T14:48:48.000Z</time>
      </trkpt>
      <trkpt lat="43.48548" lon="6.42657">
        <ele>203.1</ele>
        <time>2026-01-25T14:49:00.000Z</time>
      </trkpt>
      <trkpt lat="43.48549" lon="6.4267">
        <ele>204</ele>
        <time>2026-01-25T14:49:09.000Z</time>
      </trkpt>
      <trkpt lat="43.48551" lon="6.42682">
        <ele>204.9</ele>
        <time>2026-01-25T14:49:20.000Z</time>
      </trkpt>
      <trkpt lat="43.48558" lon="6.42691">
        <ele>205.4</ele>
        <time>2026-01-25T14:49:30.000Z</time>
      </trkpt>
      <trkpt lat="43.48567" lon="6.42694">
        <ele>206.2</ele>
        <time>2026-01-25T14:49:46.000Z</time>
      </trkpt>
      <trkpt lat="43.48568" lon="6.42695">
        <ele>206.8</ele>
        <time>2026-01-25T14:50:01.000Z</time>
      </trkpt>
      <trkpt lat="43.4857" lon="6.42695">
        <ele>206.8</ele>
        <time>2026-01-25T14:50:04.000Z</time>
      </trkpt>
      <trkpt lat="43.48579" lon="6.42696">
        <ele>207.3</ele>
        <time>2026-01-25T14:50:27.000Z</time>
      </trkpt>
      <trkpt lat="43.48588" lon="6.42699">
        <ele>208.3</ele>
        <time>2026-01-25T14:50:42.000Z</time>
      </trkpt>
      <trkpt lat="43.48597" lon="6.42702">
        <ele>209.8</ele>
        <time>2026-01-25T14:50:54.000Z</time>
      </trkpt>
      <trkpt lat="43.48604" lon="6.42711">
        <ele>211.7</ele>
        <time>2026-01-25T14:51:08.000Z</time>
      </trkpt>
      <trkpt lat="43.48609" lon="6.42722">
        <ele>213.1</ele>
        <time>2026-01-25T14:51:21.000Z</time>
      </trkpt>
      <trkpt lat="43.48614" lon="6.42732">
        <ele>214</ele>
        <time>2026-01-25T14:51:31.000Z</time>
      </trkpt>
      <trkpt lat="43.48621" lon="6.42742">
        <ele>215.1</ele>
        <time>2026-01-25T14:51:42.000Z</time>
      </trkpt>
      <trkpt lat="43.48627" lon="6.42751">
        <ele>216.2</ele>
        <time>2026-01-25T14:51:56.000Z</time>
      </trkpt>
      <trkpt lat="43.48636" lon="6.42755">
        <ele>217.7</ele>
        <time>2026-01-25T14:52:16.000Z</time>
      </trkpt>
      <trkpt lat="43.48644" lon="6.4276">
        <ele>219.3</ele>
        <time>2026-01-25T14:53:04.000Z</time>
      </trkpt>
      <trkpt lat="43.48644" lon="6.4276">
        <ele>219.3</ele>
        <time>2026-01-25T14:53:06.000Z</time>
      </trkpt>
      <trkpt lat="43.48654" lon="6.42761">
        <ele>219.4</ele>
        <time>2026-01-25T14:53:18.000Z</time>
      </trkpt>
      <trkpt lat="43.48663" lon="6.42765">
        <ele>219.5</ele>
        <time>2026-01-25T14:53:28.000Z</time>
      </trkpt>
      <trkpt lat="43.48671" lon="6.42769">
        <ele>219.5</ele>
        <time>2026-01-25T14:53:37.000Z</time>
      </trkpt>
      <trkpt lat="43.4868" lon="6.4277">
        <ele>219.3</ele>
        <time>2026-01-25T14:53:46.000Z</time>
      </trkpt>
      <trkpt lat="43.4869" lon="6.42772">
        <ele>218.5</ele>
        <time>2026-01-25T14:53:56.000Z</time>
      </trkpt>
      <trkpt lat="43.48699" lon="6.42776">
        <ele>217.5</ele>
        <time>2026-01-25T14:54:05.000Z</time>
      </trkpt>
      <trkpt lat="43.48709" lon="6.42778">
        <ele>216.2</ele>
        <time>2026-01-25T14:54:15.000Z</time>
      </trkpt>
      <trkpt lat="43.48718" lon="6.42782">
        <ele>215.2</ele>
        <time>2026-01-25T14:54:24.000Z</time>
      </trkpt>
      <trkpt lat="43.48727" lon="6.42786">
        <ele>214.7</ele>
        <time>2026-01-25T14:54:33.000Z</time>
      </trkpt>
      <trkpt lat="43.48734" lon="6.42793">
        <ele>214.1</ele>
        <time>2026-01-25T14:54:46.000Z</time>
      </trkpt>
      <trkpt lat="43.48742" lon="6.42802">
        <ele>213.8</ele>
        <time>2026-01-25T14:54:55.000Z</time>
      </trkpt>
      <trkpt lat="43.4875" lon="6.42808">
        <ele>213.6</ele>
        <time>2026-01-25T14:55:05.000Z</time>
      </trkpt>
      <trkpt lat="43.4876" lon="6.42812">
        <ele>213.7</ele>
        <time>2026-01-25T14:55:15.000Z</time>
      </trkpt>
      <trkpt lat="43.48769" lon="6.42812">
        <ele>213.7</ele>
        <time>2026-01-25T14:55:25.000Z</time>
      </trkpt>
      <trkpt lat="43.48778" lon="6.42816">
        <ele>214.2</ele>
        <time>2026-01-25T14:55:35.000Z</time>
      </trkpt>
      <trkpt lat="43.48786" lon="6.42821">
        <ele>215.4</ele>
        <time>2026-01-25T14:55:46.000Z</time>
      </trkpt>
      <trkpt lat="43.48793" lon="6.42829">
        <ele>216.8</ele>
        <time>2026-01-25T14:55:56.000Z</time>
      </trkpt>
      <trkpt lat="43.48802" lon="6.42834">
        <ele>217.8</ele>
        <time>2026-01-25T14:56:07.000Z</time>
      </trkpt>
      <trkpt lat="43.48811" lon="6.42838">
        <ele>218.7</ele>
        <time>2026-01-25T14:56:18.000Z</time>
      </trkpt>
      <trkpt lat="43.4882" lon="6.42841">
        <ele>219.1</ele>
        <time>2026-01-25T14:56:28.000Z</time>
      </trkpt>
      <trkpt lat="43.48829" lon="6.42844">
        <ele>219.6</ele>
        <time>2026-01-25T14:56:38.000Z</time>
      </trkpt>
      <trkpt lat="43.48838" lon="6.42847">
        <ele>220</ele>
        <time>2026-01-25T14:56:48.000Z</time>
      </trkpt>
      <trkpt lat="43.48847" lon="6.42851">
        <ele>220.4</ele>
        <time>2026-01-25T14:56:57.000Z</time>
      </trkpt>
      <trkpt lat="43.48856" lon="6.42855">
        <ele>220.8</ele>
        <time>2026-01-25T14:57:07.000Z</time>
      </trkpt>
      <trkpt lat="43.48866" lon="6.42858">
        <ele>220.9</ele>
        <time>2026-01-25T14:57:17.000Z</time>
      </trkpt>
      <trkpt lat="43.48875" lon="6.42862">
        <ele>220.8</ele>
        <time>2026-01-25T14:57:27.000Z</time>
      </trkpt>
      <trkpt lat="43.48884" lon="6.42866">
        <ele>220.4</ele>
        <time>2026-01-25T14:57:36.000Z</time>
      </trkpt>
      <trkpt lat="43.48893" lon="6.42868">
        <ele>219.8</ele>
        <time>2026-01-25T14:57:45.000Z</time>
      </trkpt>
      <trkpt lat="43.48903" lon="6.4287">
        <ele>218.8</ele>
        <time>2026-01-25T14:57:55.000Z</time>
      </trkpt>
      <trkpt lat="43.48913" lon="6.42874">
        <ele>218.2</ele>
        <time>2026-01-25T14:58:06.000Z</time>
      </trkpt>
      <trkpt lat="43.48922" lon="6.42878">
        <ele>217.9</ele>
        <time>2026-01-25T14:58:15.000Z</time>
      </trkpt>
      <trkpt lat="43.4893" lon="6.42884">
        <ele>217.7</ele>
        <time>2026-01-25T14:58:24.000Z</time>
      </trkpt>
      <trkpt lat="43.48939" lon="6.42888">
        <ele>217.6</ele>
        <time>2026-01-25T14:58:35.000Z</time>
      </trkpt>
      <trkpt lat="43.48948" lon="6.42893">
        <ele>217.5</ele>
        <time>2026-01-25T14:58:44.000Z</time>
      </trkpt>
      <trkpt lat="43.48957" lon="6.42897">
        <ele>217.5</ele>
        <time>2026-01-25T14:58:54.000Z</time>
      </trkpt>
      <trkpt lat="43.48967" lon="6.42899">
        <ele>217.5</ele>
        <time>2026-01-25T14:59:04.000Z</time>
      </trkpt>
      <trkpt lat="43.48976" lon="6.42904">
        <ele>217.7</ele>
        <time>2026-01-25T14:59:15.000Z</time>
      </trkpt>
      <trkpt lat="43.48985" lon="6.42908">
        <ele>218</ele>
        <time>2026-01-25T14:59:26.000Z</time>
      </trkpt>
      <trkpt lat="43.48994" lon="6.42911">
        <ele>218.7</ele>
        <time>2026-01-25T14:59:39.000Z</time>
      </trkpt>
      <trkpt lat="43.49002" lon="6.42917">
        <ele>219.4</ele>
        <time>2026-01-25T14:59:50.000Z</time>
      </trkpt>
      <trkpt lat="43.49011" lon="6.42922">
        <ele>219.7</ele>
        <time>2026-01-25T15:00:00.000Z</time>
      </trkpt>
      <trkpt lat="43.49019" lon="6.42929">
        <ele>219.7</ele>
        <time>2026-01-25T15:00:09.000Z</time>
      </trkpt>
      <trkpt lat="43.49027" lon="6.42933">
        <ele>219.7</ele>
        <time>2026-01-25T15:00:19.000Z</time>
      </trkpt>
      <trkpt lat="43.49036" lon="6.42939">
        <ele>219.7</ele>
        <time>2026-01-25T15:00:29.000Z</time>
      </trkpt>
      <trkpt lat="43.49045" lon="6.42943">
        <ele>219.7</ele>
        <time>2026-01-25T15:00:38.000Z</time>
      </trkpt>
      <trkpt lat="43.49053" lon="6.42949">
        <ele>219.6</ele>
        <time>2026-01-25T15:00:47.000Z</time>
      </trkpt>
      <trkpt lat="43.49061" lon="6.42956">
        <ele>219.6</ele>
        <time>2026-01-25T15:00:57.000Z</time>
      </trkpt>
      <trkpt lat="43.49065" lon="6.42968">
        <ele>219.5</ele>
        <time>2026-01-25T15:01:09.000Z</time>
      </trkpt>
      <trkpt lat="43.4906" lon="6.42978">
        <ele>219.4</ele>
        <time>2026-01-25T15:01:25.000Z</time>
      </trkpt>
      <trkpt lat="43.49055" lon="6.4299">
        <ele>219.3</ele>
        <time>2026-01-25T15:01:36.000Z</time>
      </trkpt>
      <trkpt lat="43.49049" lon="6.43">
        <ele>219.3</ele>
        <time>2026-01-25T15:01:46.000Z</time>
      </trkpt>
      <trkpt lat="43.49054" lon="6.43012">
        <ele>218.3</ele>
        <time>2026-01-25T15:02:11.000Z</time>
      </trkpt>
      <trkpt lat="43.49064" lon="6.43012">
        <ele>216.3</ele>
        <time>2026-01-25T15:02:47.000Z</time>
      </trkpt>
      <trkpt lat="43.49072" lon="6.43006">
        <ele>216.3</ele>
        <time>2026-01-25T15:02:58.000Z</time>
      </trkpt>
      <trkpt lat="43.4908" lon="6.42997">
        <ele>216.5</ele>
        <time>2026-01-25T15:03:07.000Z</time>
      </trkpt>
      <trkpt lat="43.49087" lon="6.42989">
        <ele>216.5</ele>
        <time>2026-01-25T15:03:16.000Z</time>
      </trkpt>
      <trkpt lat="43.49096" lon="6.42984">
        <ele>216.4</ele>
        <time>2026-01-25T15:03:22.000Z</time>
      </trkpt>
      <trkpt lat="43.49097" lon="6.42972">
        <ele>216.2</ele>
        <time>2026-01-25T15:03:33.000Z</time>
      </trkpt>
      <trkpt lat="43.49104" lon="6.42964">
        <ele>216.1</ele>
        <time>2026-01-25T15:03:41.000Z</time>
      </trkpt>
      <trkpt lat="43.49111" lon="6.42955">
        <ele>216.1</ele>
        <time>2026-01-25T15:03:47.000Z</time>
      </trkpt>
      <trkpt lat="43.49105" lon="6.42943">
        <ele>215.9</ele>
        <time>2026-01-25T15:03:57.000Z</time>
      </trkpt>
      <trkpt lat="43.49109" lon="6.4293">
        <ele>215.7</ele>
        <time>2026-01-25T15:04:10.000Z</time>
      </trkpt>
      <trkpt lat="43.49109" lon="6.42918">
        <ele>215.5</ele>
        <time>2026-01-25T15:04:18.000Z</time>
      </trkpt>
      <trkpt lat="43.49112" lon="6.42905">
        <ele>215</ele>
        <time>2026-01-25T15:04:27.000Z</time>
      </trkpt>
      <trkpt lat="43.4911" lon="6.42892">
        <ele>214.5</ele>
        <time>2026-01-25T15:04:35.000Z</time>
      </trkpt>
      <trkpt lat="43.4911" lon="6.42879">
        <ele>213.4</ele>
        <time>2026-01-25T15:04:49.000Z</time>
      </trkpt>
      <trkpt lat="43.49111" lon="6.42865">
        <ele>212.7</ele>
        <time>2026-01-25T15:04:59.000Z</time>
      </trkpt>
      <trkpt lat="43.49109" lon="6.42852">
        <ele>212</ele>
        <time>2026-01-25T15:05:07.000Z</time>
      </trkpt>
      <trkpt lat="43.49115" lon="6.42842">
        <ele>210.3</ele>
        <time>2026-01-25T15:05:21.000Z</time>
      </trkpt>
      <trkpt lat="43.49107" lon="6.42835">
        <ele>210.1</ele>
        <time>2026-01-25T15:05:38.000Z</time>
      </trkpt>
      <trkpt lat="43.49102" lon="6.42825">
        <ele>210.4</ele>
        <time>2026-01-25T15:06:03.000Z</time>
      </trkpt>
      <trkpt lat="43.49097" lon="6.4282">
        <ele>209.9</ele>
        <time>2026-01-25T15:06:34.000Z</time>
      </trkpt>
      <trkpt lat="43.49096" lon="6.42814">
        <ele>209.9</ele>
        <time>2026-01-25T15:06:43.000Z</time>
      </trkpt>
      <trkpt lat="43.49087" lon="6.42808">
        <ele>210</ele>
        <time>2026-01-25T15:07:03.000Z</time>
      </trkpt>
      <trkpt lat="43.49079" lon="6.42813">
        <ele>210.7</ele>
        <time>2026-01-25T15:07:17.000Z</time>
      </trkpt>
      <trkpt lat="43.4907" lon="6.42808">
        <ele>211.4</ele>
        <time>2026-01-25T15:07:25.000Z</time>
      </trkpt>
      <trkpt lat="43.49062" lon="6.42804">
        <ele>212.1</ele>
        <time>2026-01-25T15:07:33.000Z</time>
      </trkpt>
      <trkpt lat="43.49052" lon="6.42803">
        <ele>212.7</ele>
        <time>2026-01-25T15:07:43.000Z</time>
      </trkpt>
      <trkpt lat="43.49044" lon="6.42798">
        <ele>212.8</ele>
        <time>2026-01-25T15:07:53.000Z</time>
      </trkpt>
      <trkpt lat="43.49034" lon="6.42792">
        <ele>212.8</ele>
        <time>2026-01-25T15:08:03.000Z</time>
      </trkpt>
      <trkpt lat="43.49026" lon="6.42785">
        <ele>212.7</ele>
        <time>2026-01-25T15:08:10.000Z</time>
      </trkpt>
      <trkpt lat="43.49017" lon="6.4278">
        <ele>211.9</ele>
        <time>2026-01-25T15:08:23.000Z</time>
      </trkpt>
      <trkpt lat="43.49008" lon="6.42783">
        <ele>210.7</ele>
        <time>2026-01-25T15:08:35.000Z</time>
      </trkpt>
      <trkpt lat="43.49" lon="6.42778">
        <ele>209.3</ele>
        <time>2026-01-25T15:08:46.000Z</time>
      </trkpt>
      <trkpt lat="43.48991" lon="6.42777">
        <ele>208.3</ele>
        <time>2026-01-25T15:08:54.000Z</time>
      </trkpt>
      <trkpt lat="43.4898" lon="6.42777">
        <ele>207</ele>
        <time>2026-01-25T15:09:03.000Z</time>
      </trkpt>
      <trkpt lat="43.48971" lon="6.42777">
        <ele>205.7</ele>
        <time>2026-01-25T15:09:16.000Z</time>
      </trkpt>
      <trkpt lat="43.48962" lon="6.42777">
        <ele>205.2</ele>
        <time>2026-01-25T15:09:24.000Z</time>
      </trkpt>
      <trkpt lat="43.48956" lon="6.42773">
        <ele>204.2</ele>
        <time>2026-01-25T15:09:59.000Z</time>
      </trkpt>
      <trkpt lat="43.48954" lon="6.42771">
        <ele>204.2</ele>
        <time>2026-01-25T15:10:02.000Z</time>
      </trkpt>
      <trkpt lat="43.48954" lon="6.42772">
        <ele>204.2</ele>
        <time>2026-01-25T15:10:16.000Z</time>
      </trkpt>
      <trkpt lat="43.48953" lon="6.42771">
        <ele>204.2</ele>
        <time>2026-01-25T15:10:19.000Z</time>
      </trkpt>
      <trkpt lat="43.48957" lon="6.42777">
        <ele>204.1</ele>
        <time>2026-01-25T15:10:37.000Z</time>
      </trkpt>
      <trkpt lat="43.48958" lon="6.42775">
        <ele>204.1</ele>
        <time>2026-01-25T15:10:46.000Z</time>
      </trkpt>
      <trkpt lat="43.48963" lon="6.42764">
        <ele>202.3</ele>
        <time>2026-01-25T15:11:26.000Z</time>
      </trkpt>
      <trkpt lat="43.48971" lon="6.42756">
        <ele>201.2</ele>
        <time>2026-01-25T15:11:34.000Z</time>
      </trkpt>
      <trkpt lat="43.48979" lon="6.42747">
        <ele>200.2</ele>
        <time>2026-01-25T15:11:42.000Z</time>
      </trkpt>
      <trkpt lat="43.48981" lon="6.42734">
        <ele>198.5</ele>
        <time>2026-01-25T15:12:01.000Z</time>
      </trkpt>
      <trkpt lat="43.48986" lon="6.42724">
        <ele>197.2</ele>
        <time>2026-01-25T15:12:13.000Z</time>
      </trkpt>
      <trkpt lat="43.4899" lon="6.42712">
        <ele>195.4</ele>
        <time>2026-01-25T15:12:29.000Z</time>
      </trkpt>
      <trkpt lat="43.48997" lon="6.42703">
        <ele>194.4</ele>
        <time>2026-01-25T15:12:39.000Z</time>
      </trkpt>
      <trkpt lat="43.49002" lon="6.4269">
        <ele>192.7</ele>
        <time>2026-01-25T15:12:58.000Z</time>
      </trkpt>
      <trkpt lat="43.49005" lon="6.42677">
        <ele>191</ele>
        <time>2026-01-25T15:13:17.000Z</time>
      </trkpt>
      <trkpt lat="43.4901" lon="6.42667">
        <ele>189.9</ele>
        <time>2026-01-25T15:13:30.000Z</time>
      </trkpt>
      <trkpt lat="43.4901" lon="6.42654">
        <ele>188.8</ele>
        <time>2026-01-25T15:13:41.000Z</time>
      </trkpt>
      <trkpt lat="43.49015" lon="6.42642">
        <ele>187.9</ele>
        <time>2026-01-25T15:13:51.000Z</time>
      </trkpt>
      <trkpt lat="43.49017" lon="6.4263">
        <ele>186.6</ele>
        <time>2026-01-25T15:14:06.000Z</time>
      </trkpt>
      <trkpt lat="43.49015" lon="6.42617">
        <ele>185.5</ele>
        <time>2026-01-25T15:14:22.000Z</time>
      </trkpt>
      <trkpt lat="43.49018" lon="6.42605">
        <ele>184.4</ele>
        <time>2026-01-25T15:14:36.000Z</time>
      </trkpt>
      <trkpt lat="43.49013" lon="6.42593">
        <ele>183.2</ele>
        <time>2026-01-25T15:14:53.000Z</time>
      </trkpt>
      <trkpt lat="43.49014" lon="6.4258">
        <ele>182.4</ele>
        <time>2026-01-25T15:15:03.000Z</time>
      </trkpt>
      <trkpt lat="43.49016" lon="6.42566">
        <ele>181.7</ele>
        <time>2026-01-25T15:15:13.000Z</time>
      </trkpt>
      <trkpt lat="43.49019" lon="6.42554">
        <ele>180.5</ele>
        <time>2026-01-25T15:15:27.000Z</time>
      </trkpt>
      <trkpt lat="43.4902" lon="6.42542">
        <ele>179.6</ele>
        <time>2026-01-25T15:15:39.000Z</time>
      </trkpt>
      <trkpt lat="43.49019" lon="6.42529">
        <ele>178.5</ele>
        <time>2026-01-25T15:15:52.000Z</time>
      </trkpt>
      <trkpt lat="43.49019" lon="6.42516">
        <ele>177.3</ele>
        <time>2026-01-25T15:16:08.000Z</time>
      </trkpt>
      <trkpt lat="43.49019" lon="6.42503">
        <ele>176.5</ele>
        <time>2026-01-25T15:16:18.000Z</time>
      </trkpt>
      <trkpt lat="43.49023" lon="6.42491">
        <ele>175.3</ele>
        <time>2026-01-25T15:16:33.000Z</time>
      </trkpt>
      <trkpt lat="43.49025" lon="6.42478">
        <ele>174.4</ele>
        <time>2026-01-25T15:16:43.000Z</time>
      </trkpt>
      <trkpt lat="43.49031" lon="6.42468">
        <ele>173.8</ele>
        <time>2026-01-25T15:16:51.000Z</time>
      </trkpt>
      <trkpt lat="43.49039" lon="6.42461">
        <ele>173.4</ele>
        <time>2026-01-25T15:16:57.000Z</time>
      </trkpt>
      <trkpt lat="43.49036" lon="6.42448">
        <ele>173</ele>
        <time>2026-01-25T15:17:05.000Z</time>
      </trkpt>
      <trkpt lat="43.49037" lon="6.42435">
        <ele>172.9</ele>
        <time>2026-01-25T15:17:15.000Z</time>
      </trkpt>
      <trkpt lat="43.49034" lon="6.42434">
        <ele>172.8</ele>
        <time>2026-01-25T15:17:44.000Z</time>
      </trkpt>
      <trkpt lat="43.49034" lon="6.42433">
        <ele>172.8</ele>
        <time>2026-01-25T15:17:45.000Z</time>
      </trkpt>
      <trkpt lat="43.49036" lon="6.42421">
        <ele>172.8</ele>
        <time>2026-01-25T15:17:57.000Z</time>
      </trkpt>
      <trkpt lat="43.49032" lon="6.42408">
        <ele>172.8</ele>
        <time>2026-01-25T15:18:08.000Z</time>
      </trkpt>
      <trkpt lat="43.49029" lon="6.42396">
        <ele>172.9</ele>
        <time>2026-01-25T15:18:15.000Z</time>
      </trkpt>
      <trkpt lat="43.49024" lon="6.42384">
        <ele>172.9</ele>
        <time>2026-01-25T15:18:24.000Z</time>
      </trkpt>
      <trkpt lat="43.49027" lon="6.42372">
        <ele>173.1</ele>
        <time>2026-01-25T15:18:34.000Z</time>
      </trkpt>
      <trkpt lat="43.49026" lon="6.42358">
        <ele>174.1</ele>
        <time>2026-01-25T15:18:56.000Z</time>
      </trkpt>
      <trkpt lat="43.49025" lon="6.42345">
        <ele>174.7</ele>
        <time>2026-01-25T15:19:08.000Z</time>
      </trkpt>
      <trkpt lat="43.49027" lon="6.42333">
        <ele>175.2</ele>
        <time>2026-01-25T15:19:16.000Z</time>
      </trkpt>
      <trkpt lat="43.49025" lon="6.4232">
        <ele>175.7</ele>
        <time>2026-01-25T15:19:25.000Z</time>
      </trkpt>
      <trkpt lat="43.49021" lon="6.42308">
        <ele>176.3</ele>
        <time>2026-01-25T15:19:36.000Z</time>
      </trkpt>
      <trkpt lat="43.49019" lon="6.42296">
        <ele>176.8</ele>
        <time>2026-01-25T15:19:47.000Z</time>
      </trkpt>
      <trkpt lat="43.49021" lon="6.42283">
        <ele>177.1</ele>
        <time>2026-01-25T15:19:59.000Z</time>
      </trkpt>
      <trkpt lat="43.49018" lon="6.42271">
        <ele>177.9</ele>
        <time>2026-01-25T15:20:24.000Z</time>
      </trkpt>
      <trkpt lat="43.49019" lon="6.42271">
        <ele>178.3</ele>
        <time>2026-01-25T15:20:38.000Z</time>
      </trkpt>
      <trkpt lat="43.49015" lon="6.42268">
        <ele>178.7</ele>
        <time>2026-01-25T15:21:39.000Z</time>
      </trkpt>
      <trkpt lat="43.49013" lon="6.42255">
        <ele>178.8</ele>
        <time>2026-01-25T15:21:52.000Z</time>
      </trkpt>
      <trkpt lat="43.49008" lon="6.42244">
        <ele>179.1</ele>
        <time>2026-01-25T15:22:02.000Z</time>
      </trkpt>
      <trkpt lat="43.49003" lon="6.42233">
        <ele>179.7</ele>
        <time>2026-01-25T15:22:18.000Z</time>
      </trkpt>
      <trkpt lat="43.48999" lon="6.42221">
        <ele>179.7</ele>
        <time>2026-01-25T15:22:27.000Z</time>
      </trkpt>
      <trkpt lat="43.48991" lon="6.42214">
        <ele>179.7</ele>
        <time>2026-01-25T15:22:37.000Z</time>
      </trkpt>
      <trkpt lat="43.48983" lon="6.42206">
        <ele>179.5</ele>
        <time>2026-01-25T15:22:47.000Z</time>
      </trkpt>
      <trkpt lat="43.48977" lon="6.42197">
        <ele>179.4</ele>
        <time>2026-01-25T15:22:58.000Z</time>
      </trkpt>
      <trkpt lat="43.48978" lon="6.42184">
        <ele>179.5</ele>
        <time>2026-01-25T15:23:09.000Z</time>
      </trkpt>
      <trkpt lat="43.48974" lon="6.42172">
        <ele>179.9</ele>
        <time>2026-01-25T15:23:21.000Z</time>
      </trkpt>
      <trkpt lat="43.48974" lon="6.42159">
        <ele>180.7</ele>
        <time>2026-01-25T15:23:32.000Z</time>
      </trkpt>
      <trkpt lat="43.4897" lon="6.42147">
        <ele>182.1</ele>
        <time>2026-01-25T15:23:50.000Z</time>
      </trkpt>
      <trkpt lat="43.48968" lon="6.42135">
        <ele>183.1</ele>
        <time>2026-01-25T15:24:09.000Z</time>
      </trkpt>
      <trkpt lat="43.48966" lon="6.42122">
        <ele>183.8</ele>
        <time>2026-01-25T15:24:26.000Z</time>
      </trkpt>
      <trkpt lat="43.48966" lon="6.42108">
        <ele>184</ele>
        <time>2026-01-25T15:24:35.000Z</time>
      </trkpt>
      <trkpt lat="43.48966" lon="6.42094">
        <ele>184.2</ele>
        <time>2026-01-25T15:24:45.000Z</time>
      </trkpt>
      <trkpt lat="43.48969" lon="6.42081">
        <ele>184.3</ele>
        <time>2026-01-25T15:24:56.000Z</time>
      </trkpt>
      <trkpt lat="43.48969" lon="6.42068">
        <ele>184.4</ele>
        <time>2026-01-25T15:25:06.000Z</time>
      </trkpt>
      <trkpt lat="43.4897" lon="6.42055">
        <ele>184.3</ele>
        <time>2026-01-25T15:25:13.000Z</time>
      </trkpt>
      <trkpt lat="43.48975" lon="6.42044">
        <ele>184.1</ele>
        <time>2026-01-25T15:25:25.000Z</time>
      </trkpt>
      <trkpt lat="43.48974" lon="6.4203">
        <ele>183.8</ele>
        <time>2026-01-25T15:25:37.000Z</time>
      </trkpt>
      <trkpt lat="43.48977" lon="6.42017">
        <ele>183.5</ele>
        <time>2026-01-25T15:25:46.000Z</time>
      </trkpt>
      <trkpt lat="43.4898" lon="6.42006">
        <ele>183.3</ele>
        <time>2026-01-25T15:25:55.000Z</time>
      </trkpt>
      <trkpt lat="43.48977" lon="6.41994">
        <ele>183.2</ele>
        <time>2026-01-25T15:26:05.000Z</time>
      </trkpt>
      <trkpt lat="43.48979" lon="6.4198">
        <ele>183</ele>
        <time>2026-01-25T15:26:15.000Z</time>
      </trkpt>
      <trkpt lat="43.48976" lon="6.41967">
        <ele>182.7</ele>
        <time>2026-01-25T15:26:26.000Z</time>
      </trkpt>
      <trkpt lat="43.48975" lon="6.41953">
        <ele>181.9</ele>
        <time>2026-01-25T15:26:40.000Z</time>
      </trkpt>
      <trkpt lat="43.48976" lon="6.41941">
        <ele>181.4</ele>
        <time>2026-01-25T15:26:48.000Z</time>
      </trkpt>
      <trkpt lat="43.48972" lon="6.41929">
        <ele>180.9</ele>
        <time>2026-01-25T15:27:00.000Z</time>
      </trkpt>
      <trkpt lat="43.48972" lon="6.41916">
        <ele>180.4</ele>
        <time>2026-01-25T15:27:10.000Z</time>
      </trkpt>
      <trkpt lat="43.48972" lon="6.41903">
        <ele>179.9</ele>
        <time>2026-01-25T15:27:24.000Z</time>
      </trkpt>
      <trkpt lat="43.48967" lon="6.41892">
        <ele>179.2</ele>
        <time>2026-01-25T15:27:47.000Z</time>
      </trkpt>
      <trkpt lat="43.48967" lon="6.41891">
        <ele>179.2</ele>
        <time>2026-01-25T15:27:48.000Z</time>
      </trkpt>
      <trkpt lat="43.48967" lon="6.41891">
        <ele>179.2</ele>
        <time>2026-01-25T15:27:49.000Z</time>
      </trkpt>
      <trkpt lat="43.48968" lon="6.41891">
        <ele>179</ele>
        <time>2026-01-25T15:28:01.000Z</time>
      </trkpt>
      <trkpt lat="43.48969" lon="6.41891">
        <ele>179</ele>
        <time>2026-01-25T15:28:14.000Z</time>
      </trkpt>
      <trkpt lat="43.48969" lon="6.41891">
        <ele>178.9</ele>
        <time>2026-01-25T15:28:25.000Z</time>
      </trkpt>
      <trkpt lat="43.48965" lon="6.41889">
        <ele>178.9</ele>
        <time>2026-01-25T15:29:04.000Z</time>
      </trkpt>
      <trkpt lat="43.48957" lon="6.41882">
        <ele>178.9</ele>
        <time>2026-01-25T15:29:18.000Z</time>
      </trkpt>
      <trkpt lat="43.48949" lon="6.41875">
        <ele>178.9</ele>
        <time>2026-01-25T15:29:33.000Z</time>
      </trkpt>
      <trkpt lat="43.4894" lon="6.41874">
        <ele>179</ele>
        <time>2026-01-25T15:29:40.000Z</time>
      </trkpt>
      <trkpt lat="43.48931" lon="6.41873">
        <ele>179.2</ele>
        <time>2026-01-25T15:29:50.000Z</time>
      </trkpt>
      <trkpt lat="43.48922" lon="6.41867">
        <ele>179.5</ele>
        <time>2026-01-25T15:29:58.000Z</time>
      </trkpt>
      <trkpt lat="43.48912" lon="6.41864">
        <ele>180</ele>
        <time>2026-01-25T15:30:11.000Z</time>
      </trkpt>
      <trkpt lat="43.48904" lon="6.41857">
        <ele>180.2</ele>
        <time>2026-01-25T15:30:19.000Z</time>
      </trkpt>
      <trkpt lat="43.48895" lon="6.41851">
        <ele>180.4</ele>
        <time>2026-01-25T15:30:30.000Z</time>
      </trkpt>
      <trkpt lat="43.48886" lon="6.41851">
        <ele>180.4</ele>
        <time>2026-01-25T15:30:43.000Z</time>
      </trkpt>
      <trkpt lat="43.48877" lon="6.41847">
        <ele>180.5</ele>
        <time>2026-01-25T15:30:53.000Z</time>
      </trkpt>
      <trkpt lat="43.48868" lon="6.41844">
        <ele>180.5</ele>
        <time>2026-01-25T15:31:02.000Z</time>
      </trkpt>
      <trkpt lat="43.48859" lon="6.41842">
        <ele>180.4</ele>
        <time>2026-01-25T15:31:10.000Z</time>
      </trkpt>
      <trkpt lat="43.4885" lon="6.41839">
        <ele>180.3</ele>
        <time>2026-01-25T15:31:23.000Z</time>
      </trkpt>
      <trkpt lat="43.48843" lon="6.4183">
        <ele>180.1</ele>
        <time>2026-01-25T15:31:33.000Z</time>
      </trkpt>
      <trkpt lat="43.48836" lon="6.41821">
        <ele>179.9</ele>
        <time>2026-01-25T15:31:44.000Z</time>
      </trkpt>
      <trkpt lat="43.48832" lon="6.4181">
        <ele>179.4</ele>
        <time>2026-01-25T15:31:56.000Z</time>
      </trkpt>
      <trkpt lat="43.48826" lon="6.418">
        <ele>179</ele>
        <time>2026-01-25T15:32:03.000Z</time>
      </trkpt>
      <trkpt lat="43.48818" lon="6.41794">
        <ele>178.2</ele>
        <time>2026-01-25T15:32:12.000Z</time>
      </trkpt>
      <trkpt lat="43.48809" lon="6.41797">
        <ele>177.4</ele>
        <time>2026-01-25T15:32:21.000Z</time>
      </trkpt>
      <trkpt lat="43.488" lon="6.41798">
        <ele>177</ele>
        <time>2026-01-25T15:32:30.000Z</time>
      </trkpt>
      <trkpt lat="43.48793" lon="6.41807">
        <ele>176.4</ele>
        <time>2026-01-25T15:32:42.000Z</time>
      </trkpt>
      <trkpt lat="43.48783" lon="6.41808">
        <ele>176</ele>
        <time>2026-01-25T15:32:51.000Z</time>
      </trkpt>
      <trkpt lat="43.48774" lon="6.41806">
        <ele>175.7</ele>
        <time>2026-01-25T15:33:00.000Z</time>
      </trkpt>
      <trkpt lat="43.48765" lon="6.41811">
        <ele>175.5</ele>
        <time>2026-01-25T15:33:09.000Z</time>
      </trkpt>
      <trkpt lat="43.48756" lon="6.41818">
        <ele>175.5</ele>
        <time>2026-01-25T15:33:16.000Z</time>
      </trkpt>
      <trkpt lat="43.48751" lon="6.4183">
        <ele>175.4</ele>
        <time>2026-01-25T15:33:27.000Z</time>
      </trkpt>
      <trkpt lat="43.48746" lon="6.4184">
        <ele>175.4</ele>
        <time>2026-01-25T15:33:34.000Z</time>
      </trkpt>
      <trkpt lat="43.48741" lon="6.41852">
        <ele>175.2</ele>
        <time>2026-01-25T15:33:44.000Z</time>
      </trkpt>
      <trkpt lat="43.48736" lon="6.41862">
        <ele>174.7</ele>
        <time>2026-01-25T15:33:55.000Z</time>
      </trkpt>
      <trkpt lat="43.48727" lon="6.41864">
        <ele>174.1</ele>
        <time>2026-01-25T15:34:07.000Z</time>
      </trkpt>
      <trkpt lat="43.48718" lon="6.4186">
        <ele>173.6</ele>
        <time>2026-01-25T15:34:20.000Z</time>
      </trkpt>
      <trkpt lat="43.48709" lon="6.4186">
        <ele>173.3</ele>
        <time>2026-01-25T15:34:30.000Z</time>
      </trkpt>
      <trkpt lat="43.48699" lon="6.41862">
        <ele>173.2</ele>
        <time>2026-01-25T15:34:41.000Z</time>
      </trkpt>
      <trkpt lat="43.48691" lon="6.41858">
        <ele>173.1</ele>
        <time>2026-01-25T15:34:53.000Z</time>
      </trkpt>
      <trkpt lat="43.4869" lon="6.41855">
        <ele>173.1</ele>
        <time>2026-01-25T15:35:08.000Z</time>
      </trkpt>
      <trkpt lat="43.48693" lon="6.41855">
        <ele>173.1</ele>
        <time>2026-01-25T15:35:18.000Z</time>
      </trkpt>
      <trkpt lat="43.48695" lon="6.41843">
        <ele>173.1</ele>
        <time>2026-01-25T15:35:40.000Z</time>
      </trkpt>
      <trkpt lat="43.48695" lon="6.41829">
        <ele>173.1</ele>
        <time>2026-01-25T15:35:49.000Z</time>
      </trkpt>
      <trkpt lat="43.48694" lon="6.41815">
        <ele>173</ele>
        <time>2026-01-25T15:35:59.000Z</time>
      </trkpt>
      <trkpt lat="43.48693" lon="6.41802">
        <ele>172.8</ele>
        <time>2026-01-25T15:36:09.000Z</time>
      </trkpt>
      <trkpt lat="43.48694" lon="6.4179">
        <ele>172</ele>
        <time>2026-01-25T15:36:21.000Z</time>
      </trkpt>
      <trkpt lat="43.48691" lon="6.41777">
        <ele>170.8</ele>
        <time>2026-01-25T15:36:32.000Z</time>
      </trkpt>
      <trkpt lat="43.48686" lon="6.41765">
        <ele>169.8</ele>
        <time>2026-01-25T15:36:41.000Z</time>
      </trkpt>
      <trkpt lat="43.48686" lon="6.41753">
        <ele>168.8</ele>
        <time>2026-01-25T15:36:54.000Z</time>
      </trkpt>
      <trkpt lat="43.48691" lon="6.41741">
        <ele>168.3</ele>
        <time>2026-01-25T15:37:02.000Z</time>
      </trkpt>
      <trkpt lat="43.48691" lon="6.41729">
        <ele>167.8</ele>
        <time>2026-01-25T15:37:11.000Z</time>
      </trkpt>
      <trkpt lat="43.4869" lon="6.41715">
        <ele>166.8</ele>
        <time>2026-01-25T15:37:27.000Z</time>
      </trkpt>
      <trkpt lat="43.4869" lon="6.41702">
        <ele>166.3</ele>
        <time>2026-01-25T15:37:37.000Z</time>
      </trkpt>
      <trkpt lat="43.48685" lon="6.41692">
        <ele>165.8</ele>
        <time>2026-01-25T15:37:45.000Z</time>
      </trkpt>
      <trkpt lat="43.48679" lon="6.41683">
        <ele>165.5</ele>
        <time>2026-01-25T15:37:52.000Z</time>
      </trkpt>
      <trkpt lat="43.48674" lon="6.41671">
        <ele>164.8</ele>
        <time>2026-01-25T15:38:02.000Z</time>
      </trkpt>
      <trkpt lat="43.48665" lon="6.41666">
        <ele>164.2</ele>
        <time>2026-01-25T15:38:11.000Z</time>
      </trkpt>
      <trkpt lat="43.48656" lon="6.41667">
        <ele>163.9</ele>
        <time>2026-01-25T15:38:20.000Z</time>
      </trkpt>
      <trkpt lat="43.48648" lon="6.41672">
        <ele>163.5</ele>
        <time>2026-01-25T15:38:29.000Z</time>
      </trkpt>
      <trkpt lat="43.48639" lon="6.41677">
        <ele>162.9</ele>
        <time>2026-01-25T15:38:43.000Z</time>
      </trkpt>
      <trkpt lat="43.48632" lon="6.41685">
        <ele>162.7</ele>
        <time>2026-01-25T15:38:52.000Z</time>
      </trkpt>
      <trkpt lat="43.48623" lon="6.41689">
        <ele>162.5</ele>
        <time>2026-01-25T15:38:59.000Z</time>
      </trkpt>
      <trkpt lat="43.48614" lon="6.41695">
        <ele>162.1</ele>
        <time>2026-01-25T15:39:08.000Z</time>
      </trkpt>
      <trkpt lat="43.48605" lon="6.41696">
        <ele>161.6</ele>
        <time>2026-01-25T15:39:18.000Z</time>
      </trkpt>
      <trkpt lat="43.48597" lon="6.41688">
        <ele>160.9</ele>
        <time>2026-01-25T15:39:28.000Z</time>
      </trkpt>
      <trkpt lat="43.48594" lon="6.41676">
        <ele>159.5</ele>
        <time>2026-01-25T15:39:40.000Z</time>
      </trkpt>
      <trkpt lat="43.48593" lon="6.41663">
        <ele>158.7</ele>
        <time>2026-01-25T15:39:51.000Z</time>
      </trkpt>
      <trkpt lat="43.48591" lon="6.41651">
        <ele>158.8</ele>
        <time>2026-01-25T15:40:02.000Z</time>
      </trkpt>
      <trkpt lat="43.48583" lon="6.41643">
        <ele>159.2</ele>
        <time>2026-01-25T15:40:11.000Z</time>
      </trkpt>
      <trkpt lat="43.48574" lon="6.41641">
        <ele>159.5</ele>
        <time>2026-01-25T15:40:20.000Z</time>
      </trkpt>
      <trkpt lat="43.48565" lon="6.4164">
        <ele>159.6</ele>
        <time>2026-01-25T15:40:27.000Z</time>
      </trkpt>
      <trkpt lat="43.48556" lon="6.41636">
        <ele>159.7</ele>
        <time>2026-01-25T15:40:33.000Z</time>
      </trkpt>
      <trkpt lat="43.48548" lon="6.41632">
        <ele>159.7</ele>
        <time>2026-01-25T15:40:40.000Z</time>
      </trkpt>
      <trkpt lat="43.48538" lon="6.4163">
        <ele>159.7</ele>
        <time>2026-01-25T15:40:47.000Z</time>
      </trkpt>
      <trkpt lat="43.48529" lon="6.41628">
        <ele>159.8</ele>
        <time>2026-01-25T15:40:55.000Z</time>
      </trkpt>
      <trkpt lat="43.4852" lon="6.41627">
        <ele>159.8</ele>
        <time>2026-01-25T15:41:04.000Z</time>
      </trkpt>
      <trkpt lat="43.4851" lon="6.41625">
        <ele>159.8</ele>
        <time>2026-01-25T15:41:12.000Z</time>
      </trkpt>
      <trkpt lat="43.48501" lon="6.41623">
        <ele>159.7</ele>
        <time>2026-01-25T15:41:20.000Z</time>
      </trkpt>
      <trkpt lat="43.48492" lon="6.41623">
        <ele>159.7</ele>
        <time>2026-01-25T15:41:31.000Z</time>
      </trkpt>
      <trkpt lat="43.48483" lon="6.41618">
        <ele>159.6</ele>
        <time>2026-01-25T15:41:42.000Z</time>
      </trkpt>
      <trkpt lat="43.48474" lon="6.41613">
        <ele>159.4</ele>
        <time>2026-01-25T15:41:52.000Z</time>
      </trkpt>
      <trkpt lat="43.48464" lon="6.41607">
        <ele>159.3</ele>
        <time>2026-01-25T15:42:00.000Z</time>
      </trkpt>
      <trkpt lat="43.48456" lon="6.41599">
        <ele>159.1</ele>
        <time>2026-01-25T15:42:08.000Z</time>
      </trkpt>
      <trkpt lat="43.48448" lon="6.4159">
        <ele>159</ele>
        <time>2026-01-25T15:42:19.000Z</time>
      </trkpt>
      <trkpt lat="43.48439" lon="6.41583">
        <ele>158.9</ele>
        <time>2026-01-25T15:42:28.000Z</time>
      </trkpt>
      <trkpt lat="43.48432" lon="6.41574">
        <ele>158.7</ele>
        <time>2026-01-25T15:42:39.000Z</time>
      </trkpt>
      <trkpt lat="43.48424" lon="6.41568">
        <ele>158.5</ele>
        <time>2026-01-25T15:42:46.000Z</time>
      </trkpt>
      <trkpt lat="43.48415" lon="6.41565">
        <ele>158.4</ele>
        <time>2026-01-25T15:42:54.000Z</time>
      </trkpt>
      <trkpt lat="43.48406" lon="6.41562">
        <ele>158.3</ele>
        <time>2026-01-25T15:43:01.000Z</time>
      </trkpt>
      <trkpt lat="43.48396" lon="6.41559">
        <ele>158.2</ele>
        <time>2026-01-25T15:43:11.000Z</time>
      </trkpt>
      <trkpt lat="43.48387" lon="6.41555">
        <ele>158.2</ele>
        <time>2026-01-25T15:43:18.000Z</time>
      </trkpt>
      <trkpt lat="43.48377" lon="6.41551">
        <ele>158.2</ele>
        <time>2026-01-25T15:43:29.000Z</time>
      </trkpt>
      <trkpt lat="43.48368" lon="6.41548">
        <ele>158.2</ele>
        <time>2026-01-25T15:43:37.000Z</time>
      </trkpt>
      <trkpt lat="43.4836" lon="6.41542">
        <ele>158.3</ele>
        <time>2026-01-25T15:43:48.000Z</time>
      </trkpt>
      <trkpt lat="43.4835" lon="6.41541">
        <ele>158.2</ele>
        <time>2026-01-25T15:43:55.000Z</time>
      </trkpt>
      <trkpt lat="43.48339" lon="6.41541">
        <ele>158</ele>
        <time>2026-01-25T15:44:05.000Z</time>
      </trkpt>
      <trkpt lat="43.48329" lon="6.41538">
        <ele>157.7</ele>
        <time>2026-01-25T15:44:13.000Z</time>
      </trkpt>
      <trkpt lat="43.4832" lon="6.41539">
        <ele>157.1</ele>
        <time>2026-01-25T15:44:22.000Z</time>
      </trkpt>
      <trkpt lat="43.48315" lon="6.41539">
        <ele>156.4</ele>
        <time>2026-01-25T15:44:38.000Z</time>
      </trkpt>
      <trkpt lat="43.48315" lon="6.41539">
        <ele>156.4</ele>
        <time>2026-01-25T15:44:39.000Z</time>
      </trkpt>
      <trkpt lat="43.48305" lon="6.4154">
        <ele>156.1</ele>
        <time>2026-01-25T15:44:47.000Z</time>
      </trkpt>
      <trkpt lat="43.48296" lon="6.41541">
        <ele>155.9</ele>
        <time>2026-01-25T15:44:58.000Z</time>
      </trkpt>
      <trkpt lat="43.48286" lon="6.41543">
        <ele>155.5</ele>
        <time>2026-01-25T15:45:07.000Z</time>
      </trkpt>
      <trkpt lat="43.48287" lon="6.41556">
        <ele>154.5</ele>
        <time>2026-01-25T15:45:41.000Z</time>
      </trkpt>
      <trkpt lat="43.48283" lon="6.41551">
        <ele>154.2</ele>
        <time>2026-01-25T15:46:44.000Z</time>
      </trkpt>
      <trkpt lat="43.48283" lon="6.41552">
        <ele>154.2</ele>
        <time>2026-01-25T15:47:09.000Z</time>
      </trkpt>
      <trkpt lat="43.48282" lon="6.41545">
        <ele>154.2</ele>
        <time>2026-01-25T15:47:54.000Z</time>
      </trkpt>
      <trkpt lat="43.48282" lon="6.41546">
        <ele>154.4</ele>
        <time>2026-01-25T15:48:09.000Z</time>
      </trkpt>
      <trkpt lat="43.4828" lon="6.41549">
        <ele>154.2</ele>
        <time>2026-01-25T15:48:21.000Z</time>
      </trkpt>
      <trkpt lat="43.4828" lon="6.4155">
        <ele>154.2</ele>
        <time>2026-01-25T15:48:39.000Z</time>
      </trkpt>
      <trkpt lat="43.48281" lon="6.41555">
        <ele>154.1</ele>
        <time>2026-01-25T15:49:04.000Z</time>
      </trkpt>
      <trkpt lat="43.48281" lon="6.41555">
        <ele>154</ele>
        <time>2026-01-25T15:49:24.000Z</time>
      </trkpt>
      <trkpt lat="43.48284" lon="6.41558">
        <ele>154</ele>
        <time>2026-01-25T15:50:19.000Z</time>
      </trkpt>
      <trkpt lat="43.48286" lon="6.41561">
        <ele>153.9</ele>
        <time>2026-01-25T15:50:53.000Z</time>
      </trkpt>
      <trkpt lat="43.48286" lon="6.41561">
        <ele>153.9</ele>
        <time>2026-01-25T15:51:04.000Z</time>
      </trkpt>
      <trkpt lat="43.48287" lon="6.41561">
        <ele>153.9</ele>
        <time>2026-01-25T15:51:13.000Z</time>
      </trkpt>
      <trkpt lat="43.48287" lon="6.41562">
        <ele>153.9</ele>
        <time>2026-01-25T15:51:24.000Z</time>
      </trkpt>
      <trkpt lat="43.48288" lon="6.41561">
        <ele>153.9</ele>
        <time>2026-01-25T15:51:27.000Z</time>
      </trkpt>
      <trkpt lat="43.48283" lon="6.4155">
        <ele>153.9</ele>
        <time>2026-01-25T15:51:55.000Z</time>
      </trkpt>
      <trkpt lat="43.48279" lon="6.4155">
        <ele>153.9</ele>
        <time>2026-01-25T15:52:09.000Z</time>
      </trkpt>
      <trkpt lat="43.4828" lon="6.41554">
        <ele>153.9</ele>
        <time>2026-01-25T15:52:34.000Z</time>
      </trkpt>
      <trkpt lat="43.48281" lon="6.41552">
        <ele>153.9</ele>
        <time>2026-01-25T15:53:24.000Z</time>
      </trkpt>
      <trkpt lat="43.48281" lon="6.41552">
        <ele>153.9</ele>
        <time>2026-01-25T15:53:39.000Z</time>
      </trkpt>
      <trkpt lat="43.48281" lon="6.41551">
        <ele>153.8</ele>
        <time>2026-01-25T15:53:57.000Z</time>
      </trkpt>
      <trkpt lat="43.48281" lon="6.41551">
        <ele>153.8</ele>
        <time>2026-01-25T15:54:13.000Z</time>
      </trkpt>
      <trkpt lat="43.48279" lon="6.4155">
        <ele>153.8</ele>
        <time>2026-01-25T15:54:54.000Z</time>
      </trkpt>
      <trkpt lat="43.48279" lon="6.41546">
        <ele>153.8</ele>
        <time>2026-01-25T15:57:59.000Z</time>
      </trkpt>
      <trkpt lat="43.48279" lon="6.41546">
        <ele>153.8</ele>
        <time>2026-01-25T15:58:09.000Z</time>
      </trkpt>
      <trkpt lat="43.48279" lon="6.41548">
        <ele>153.8</ele>
        <time>2026-01-25T15:58:34.000Z</time>
      </trkpt>
      <trkpt lat="43.48279" lon="6.41548">
        <ele>153.8</ele>
        <time>2026-01-25T15:58:46.000Z</time>
      </trkpt>
      <trkpt lat="43.4828" lon="6.41549">
        <ele>154</ele>
        <time>2026-01-25T16:00:35.000Z</time>
      </trkpt>
      <trkpt lat="43.4828" lon="6.41549">
        <ele>154.3</ele>
        <time>2026-01-25T16:01:04.000Z</time>
      </trkpt>
      <trkpt lat="43.4828" lon="6.41549">
        <ele>154.3</ele>
        <time>2026-01-25T16:01:04.099Z</time>
      </trkpt>
      <trkpt lat="43.4828" lon="6.41549">
        <ele>154.3</ele>
        <time>2026-01-25T16:01:04.099Z</time>
      </trkpt>
    </trkseg>
  </trk>
</gpx>